<?xml version="1.0" encoding="UTF-8" standalone="no" ?>
<gpx xmlns="http://www.topografix.com/GPX/1/1" xmlns:xsi="http://www.w3.org/2001/XMLSchema-instance" xsi:schemaLocation="http://www.topografix.com/GPX/1/1 http://www.topografix.com/GPX/1/1/gpx.xsd" version="1.1" creator="VisuGPX - https://www.visugpx.com">
  <metadata>
    <name>Vaucelles et Beffecourt</name>
    <desc><![CDATA[Randonnée au départ de Vaucelles et Beffecourt avec passage à Montbavin]]></desc>
  </metadata>
  <trk>
    <name><![CDATA[25/01/2016 13:49]]></name>
    <desc><![CDATA[]]></desc>
    <trkseg>
      <trkpt lat="49.52987" lon="3.55482">
        <ele>121.4</ele>
        <time>2016-01-25T12:49:57.427Z</time>
      </trkpt>
      <trkpt lat="49.52983" lon="3.55481">
        <ele>123.7</ele>
        <time>2016-01-25T12:50:14.860Z</time>
      </trkpt>
      <trkpt lat="49.52983" lon="3.55481">
        <ele>124.1</ele>
        <time>2016-01-25T12:50:15.865Z</time>
      </trkpt>
      <trkpt lat="49.52982" lon="3.55481">
        <ele>124.8</ele>
        <time>2016-01-25T12:50:49.835Z</time>
      </trkpt>
      <trkpt lat="49.52978" lon="3.55483">
        <ele>123.3</ele>
        <time>2016-01-25T12:50:50.831Z</time>
      </trkpt>
      <trkpt lat="49.5297" lon="3.55479">
        <ele>122.3</ele>
        <time>2016-01-25T12:51:26.840Z</time>
      </trkpt>
      <trkpt lat="49.52969" lon="3.55479">
        <ele>122.2</ele>
        <time>2016-01-25T12:51:27.831Z</time>
      </trkpt>
      <trkpt lat="49.52966" lon="3.55475">
        <ele>122.1</ele>
        <time>2016-01-25T12:51:32.779Z</time>
      </trkpt>
      <trkpt lat="49.52966" lon="3.55475">
        <ele>122.1</ele>
        <time>2016-01-25T12:51:33.777Z</time>
      </trkpt>
      <trkpt lat="49.52966" lon="3.55475">
        <ele>122.1</ele>
        <time>2016-01-25T12:52:04.877Z</time>
      </trkpt>
      <trkpt lat="49.52968" lon="3.55475">
        <ele>122.1</ele>
        <time>2016-01-25T12:52:05.774Z</time>
      </trkpt>
      <trkpt lat="49.52969" lon="3.55475">
        <ele>122.4</ele>
        <time>2016-01-25T12:52:08.859Z</time>
      </trkpt>
      <trkpt lat="49.52969" lon="3.55475">
        <ele>122.5</ele>
        <time>2016-01-25T12:52:09.849Z</time>
      </trkpt>
      <trkpt lat="49.5297" lon="3.55476">
        <ele>122.6</ele>
        <time>2016-01-25T12:52:33.778Z</time>
      </trkpt>
      <trkpt lat="49.52972" lon="3.55478">
        <ele>124.1</ele>
        <time>2016-01-25T12:52:34.785Z</time>
      </trkpt>
      <trkpt lat="49.52972" lon="3.55478">
        <ele>123.9</ele>
        <time>2016-01-25T12:52:36.835Z</time>
      </trkpt>
      <trkpt lat="49.52972" lon="3.55478">
        <ele>123.9</ele>
        <time>2016-01-25T12:52:37.816Z</time>
      </trkpt>
      <trkpt lat="49.52971" lon="3.55478">
        <ele>123.8</ele>
        <time>2016-01-25T12:52:39.854Z</time>
      </trkpt>
      <trkpt lat="49.5297" lon="3.55478">
        <ele>123.8</ele>
        <time>2016-01-25T12:52:40.859Z</time>
      </trkpt>
      <trkpt lat="49.5297" lon="3.55479">
        <ele>123.7</ele>
        <time>2016-01-25T12:52:42.883Z</time>
      </trkpt>
      <trkpt lat="49.5297" lon="3.55478">
        <ele>123.7</ele>
        <time>2016-01-25T12:52:43.764Z</time>
      </trkpt>
      <trkpt lat="49.5297" lon="3.55478">
        <ele>123.7</ele>
        <time>2016-01-25T12:52:43.779Z</time>
      </trkpt>
      <trkpt lat="49.5297" lon="3.55478">
        <ele>123.7</ele>
        <time>2016-01-25T12:52:44.761Z</time>
      </trkpt>
      <trkpt lat="49.52974" lon="3.55479">
        <ele>123.6</ele>
        <time>2016-01-25T12:52:55.854Z</time>
      </trkpt>
      <trkpt lat="49.52974" lon="3.55479">
        <ele>123.5</ele>
        <time>2016-01-25T12:52:56.841Z</time>
      </trkpt>
      <trkpt lat="49.52974" lon="3.55479">
        <ele>123.5</ele>
        <time>2016-01-25T12:52:57.780Z</time>
      </trkpt>
      <trkpt lat="49.52974" lon="3.55479">
        <ele>123.6</ele>
        <time>2016-01-25T12:52:58.768Z</time>
      </trkpt>
      <trkpt lat="49.5298" lon="3.55482">
        <ele>124.1</ele>
        <time>2016-01-25T12:53:06.886Z</time>
      </trkpt>
      <trkpt lat="49.52981" lon="3.55482">
        <ele>124.2</ele>
        <time>2016-01-25T12:53:07.766Z</time>
      </trkpt>
      <trkpt lat="49.52981" lon="3.55482">
        <ele>124.2</ele>
        <time>2016-01-25T12:55:14.792Z</time>
      </trkpt>
      <trkpt lat="49.5298" lon="3.55481">
        <ele>124.6</ele>
        <time>2016-01-25T12:55:15.798Z</time>
      </trkpt>
      <trkpt lat="49.5298" lon="3.55481">
        <ele>124.6</ele>
        <time>2016-01-25T12:55:15.822Z</time>
      </trkpt>
      <trkpt lat="49.5298" lon="3.55481">
        <ele>124.4</ele>
        <time>2016-01-25T12:55:16.807Z</time>
      </trkpt>
      <trkpt lat="49.5298" lon="3.55481">
        <ele>124.2</ele>
        <time>2016-01-25T12:55:52.810Z</time>
      </trkpt>
      <trkpt lat="49.52979" lon="3.55481">
        <ele>124.1</ele>
        <time>2016-01-25T12:55:53.836Z</time>
      </trkpt>
      <trkpt lat="49.52978" lon="3.55481">
        <ele>124.1</ele>
        <time>2016-01-25T12:55:54.879Z</time>
      </trkpt>
      <trkpt lat="49.52978" lon="3.55481">
        <ele>124.2</ele>
        <time>2016-01-25T12:55:55.759Z</time>
      </trkpt>
      <trkpt lat="49.52978" lon="3.55481">
        <ele>124.1</ele>
        <time>2016-01-25T12:56:14.797Z</time>
      </trkpt>
      <trkpt lat="49.5298" lon="3.55476">
        <ele>124.4</ele>
        <time>2016-01-25T12:56:15.787Z</time>
      </trkpt>
      <trkpt lat="49.5298" lon="3.55477">
        <ele>124.3</ele>
        <time>2016-01-25T12:56:16.819Z</time>
      </trkpt>
      <trkpt lat="49.5298" lon="3.55477">
        <ele>124.3</ele>
        <time>2016-01-25T12:56:17.807Z</time>
      </trkpt>
      <trkpt lat="49.5298" lon="3.55477">
        <ele>124.4</ele>
        <time>2016-01-25T12:56:38.835Z</time>
      </trkpt>
      <trkpt lat="49.52983" lon="3.55478">
        <ele>124.6</ele>
        <time>2016-01-25T12:56:39.840Z</time>
      </trkpt>
      <trkpt lat="49.52982" lon="3.55477">
        <ele>124.7</ele>
        <time>2016-01-25T12:56:41.875Z</time>
      </trkpt>
      <trkpt lat="49.52982" lon="3.55477">
        <ele>124.8</ele>
        <time>2016-01-25T12:56:42.865Z</time>
      </trkpt>
      <trkpt lat="49.52982" lon="3.55477">
        <ele>124.9</ele>
        <time>2016-01-25T12:57:54.863Z</time>
      </trkpt>
      <trkpt lat="49.52981" lon="3.55476">
        <ele>125.2</ele>
        <time>2016-01-25T12:57:55.761Z</time>
      </trkpt>
      <trkpt lat="49.52978" lon="3.55474">
        <ele>124.3</ele>
        <time>2016-01-25T12:58:03.861Z</time>
      </trkpt>
      <trkpt lat="49.52978" lon="3.55475">
        <ele>124</ele>
        <time>2016-01-25T12:58:04.852Z</time>
      </trkpt>
      <trkpt lat="49.52978" lon="3.55475">
        <ele>124</ele>
        <time>2016-01-25T12:58:04.875Z</time>
      </trkpt>
      <trkpt lat="49.52978" lon="3.55475">
        <ele>123.9</ele>
        <time>2016-01-25T12:58:05.864Z</time>
      </trkpt>
      <trkpt lat="49.52982" lon="3.55469">
        <ele>123.8</ele>
        <time>2016-01-25T12:58:14.870Z</time>
      </trkpt>
      <trkpt lat="49.52982" lon="3.55468">
        <ele>123.8</ele>
        <time>2016-01-25T12:58:15.861Z</time>
      </trkpt>
      <trkpt lat="49.52982" lon="3.55468">
        <ele>123.8</ele>
        <time>2016-01-25T12:58:15.882Z</time>
      </trkpt>
      <trkpt lat="49.52982" lon="3.55468">
        <ele>123.7</ele>
        <time>2016-01-25T12:58:16.779Z</time>
      </trkpt>
      <trkpt lat="49.52984" lon="3.55456">
        <ele>123.1</ele>
        <time>2016-01-25T12:58:26.793Z</time>
      </trkpt>
      <trkpt lat="49.52984" lon="3.55454">
        <ele>123</ele>
        <time>2016-01-25T12:58:27.770Z</time>
      </trkpt>
      <trkpt lat="49.52986" lon="3.55458">
        <ele>125.5</ele>
        <time>2016-01-25T12:58:55.780Z</time>
      </trkpt>
      <trkpt lat="49.52986" lon="3.55458">
        <ele>125.4</ele>
        <time>2016-01-25T12:58:56.775Z</time>
      </trkpt>
      <trkpt lat="49.52986" lon="3.55458">
        <ele>125.4</ele>
        <time>2016-01-25T12:58:56.785Z</time>
      </trkpt>
      <trkpt lat="49.52987" lon="3.55457">
        <ele>125.1</ele>
        <time>2016-01-25T12:58:57.780Z</time>
      </trkpt>
      <trkpt lat="49.52984" lon="3.55449">
        <ele>124.7</ele>
        <time>2016-01-25T12:59:04.779Z</time>
      </trkpt>
      <trkpt lat="49.52983" lon="3.55449">
        <ele>125</ele>
        <time>2016-01-25T12:59:05.782Z</time>
      </trkpt>
      <trkpt lat="49.52983" lon="3.55449">
        <ele>125</ele>
        <time>2016-01-25T12:59:05.798Z</time>
      </trkpt>
      <trkpt lat="49.52983" lon="3.55449">
        <ele>125.3</ele>
        <time>2016-01-25T12:59:06.814Z</time>
      </trkpt>
      <trkpt lat="49.52983" lon="3.55449">
        <ele>125.5</ele>
        <time>2016-01-25T12:59:08.841Z</time>
      </trkpt>
      <trkpt lat="49.52983" lon="3.5545">
        <ele>125.6</ele>
        <time>2016-01-25T12:59:09.837Z</time>
      </trkpt>
      <trkpt lat="49.52983" lon="3.5545">
        <ele>125.7</ele>
        <time>2016-01-25T13:03:09.861Z</time>
      </trkpt>
      <trkpt lat="49.52984" lon="3.55454">
        <ele>128.2</ele>
        <time>2016-01-25T13:03:10.844Z</time>
      </trkpt>
      <trkpt lat="49.52984" lon="3.55454">
        <ele>128.2</ele>
        <time>2016-01-25T13:03:10.861Z</time>
      </trkpt>
      <trkpt lat="49.52984" lon="3.55455">
        <ele>128.3</ele>
        <time>2016-01-25T13:03:11.854Z</time>
      </trkpt>
      <trkpt lat="49.52984" lon="3.55455">
        <ele>128.3</ele>
        <time>2016-01-25T13:03:29.824Z</time>
      </trkpt>
      <trkpt lat="49.52986" lon="3.55453">
        <ele>128.5</ele>
        <time>2016-01-25T13:03:30.840Z</time>
      </trkpt>
      <trkpt lat="49.5299" lon="3.55442">
        <ele>127.8</ele>
        <time>2016-01-25T13:03:37.825Z</time>
      </trkpt>
      <trkpt lat="49.5299" lon="3.5544">
        <ele>127.6</ele>
        <time>2016-01-25T13:03:38.832Z</time>
      </trkpt>
      <trkpt lat="49.52993" lon="3.55429">
        <ele>127</ele>
        <time>2016-01-25T13:03:44.853Z</time>
      </trkpt>
      <trkpt lat="49.52994" lon="3.55427">
        <ele>126.9</ele>
        <time>2016-01-25T13:03:45.836Z</time>
      </trkpt>
      <trkpt lat="49.52998" lon="3.55416">
        <ele>126.8</ele>
        <time>2016-01-25T13:03:52.816Z</time>
      </trkpt>
      <trkpt lat="49.52999" lon="3.55415">
        <ele>126.8</ele>
        <time>2016-01-25T13:03:53.805Z</time>
      </trkpt>
      <trkpt lat="49.53004" lon="3.55404">
        <ele>127.1</ele>
        <time>2016-01-25T13:04:01.860Z</time>
      </trkpt>
      <trkpt lat="49.53004" lon="3.55402">
        <ele>127.2</ele>
        <time>2016-01-25T13:04:02.769Z</time>
      </trkpt>
      <trkpt lat="49.53009" lon="3.55392">
        <ele>127.8</ele>
        <time>2016-01-25T13:04:08.874Z</time>
      </trkpt>
      <trkpt lat="49.5301" lon="3.5539">
        <ele>127.8</ele>
        <time>2016-01-25T13:04:09.767Z</time>
      </trkpt>
      <trkpt lat="49.53016" lon="3.55382">
        <ele>128.2</ele>
        <time>2016-01-25T13:04:15.850Z</time>
      </trkpt>
      <trkpt lat="49.53018" lon="3.55381">
        <ele>128.1</ele>
        <time>2016-01-25T13:04:16.836Z</time>
      </trkpt>
      <trkpt lat="49.53024" lon="3.55374">
        <ele>128.1</ele>
        <time>2016-01-25T13:04:23.829Z</time>
      </trkpt>
      <trkpt lat="49.53025" lon="3.55373">
        <ele>127.5</ele>
        <time>2016-01-25T13:04:24.820Z</time>
      </trkpt>
      <trkpt lat="49.53033" lon="3.55366">
        <ele>126.8</ele>
        <time>2016-01-25T13:04:31.783Z</time>
      </trkpt>
      <trkpt lat="49.53034" lon="3.55365">
        <ele>127.8</ele>
        <time>2016-01-25T13:04:32.771Z</time>
      </trkpt>
      <trkpt lat="49.53041" lon="3.55355">
        <ele>129.1</ele>
        <time>2016-01-25T13:04:40.797Z</time>
      </trkpt>
      <trkpt lat="49.53042" lon="3.55354">
        <ele>129.1</ele>
        <time>2016-01-25T13:04:41.781Z</time>
      </trkpt>
      <trkpt lat="49.53048" lon="3.55343">
        <ele>129.1</ele>
        <time>2016-01-25T13:04:48.887Z</time>
      </trkpt>
      <trkpt lat="49.53049" lon="3.55342">
        <ele>129.2</ele>
        <time>2016-01-25T13:04:49.771Z</time>
      </trkpt>
      <trkpt lat="49.53054" lon="3.55334">
        <ele>128.6</ele>
        <time>2016-01-25T13:04:57.860Z</time>
      </trkpt>
      <trkpt lat="49.53055" lon="3.55332">
        <ele>128.6</ele>
        <time>2016-01-25T13:04:58.845Z</time>
      </trkpt>
      <trkpt lat="49.53059" lon="3.55321">
        <ele>129.1</ele>
        <time>2016-01-25T13:05:04.816Z</time>
      </trkpt>
      <trkpt lat="49.5306" lon="3.55319">
        <ele>129.1</ele>
        <time>2016-01-25T13:05:05.807Z</time>
      </trkpt>
      <trkpt lat="49.53063" lon="3.55308">
        <ele>129.4</ele>
        <time>2016-01-25T13:05:12.811Z</time>
      </trkpt>
      <trkpt lat="49.53063" lon="3.55306">
        <ele>129.5</ele>
        <time>2016-01-25T13:05:13.799Z</time>
      </trkpt>
      <trkpt lat="49.53065" lon="3.55295">
        <ele>129.6</ele>
        <time>2016-01-25T13:05:20.779Z</time>
      </trkpt>
      <trkpt lat="49.53065" lon="3.55293">
        <ele>129.6</ele>
        <time>2016-01-25T13:05:21.774Z</time>
      </trkpt>
      <trkpt lat="49.53069" lon="3.55282">
        <ele>129.7</ele>
        <time>2016-01-25T13:05:27.842Z</time>
      </trkpt>
      <trkpt lat="49.53069" lon="3.5528">
        <ele>129.7</ele>
        <time>2016-01-25T13:05:28.844Z</time>
      </trkpt>
      <trkpt lat="49.53069" lon="3.55268">
        <ele>129.3</ele>
        <time>2016-01-25T13:05:34.814Z</time>
      </trkpt>
      <trkpt lat="49.53069" lon="3.55266">
        <ele>128.9</ele>
        <time>2016-01-25T13:05:35.790Z</time>
      </trkpt>
      <trkpt lat="49.53072" lon="3.55252">
        <ele>128.6</ele>
        <time>2016-01-25T13:05:42.866Z</time>
      </trkpt>
      <trkpt lat="49.53072" lon="3.5525">
        <ele>128.9</ele>
        <time>2016-01-25T13:05:43.761Z</time>
      </trkpt>
      <trkpt lat="49.53072" lon="3.55237">
        <ele>129.7</ele>
        <time>2016-01-25T13:05:50.832Z</time>
      </trkpt>
      <trkpt lat="49.53072" lon="3.55236">
        <ele>129.7</ele>
        <time>2016-01-25T13:05:51.832Z</time>
      </trkpt>
      <trkpt lat="49.53074" lon="3.55223">
        <ele>130.5</ele>
        <time>2016-01-25T13:05:59.821Z</time>
      </trkpt>
      <trkpt lat="49.53074" lon="3.55221">
        <ele>130.6</ele>
        <time>2016-01-25T13:06:00.811Z</time>
      </trkpt>
      <trkpt lat="49.53076" lon="3.55209">
        <ele>131.6</ele>
        <time>2016-01-25T13:06:07.770Z</time>
      </trkpt>
      <trkpt lat="49.53076" lon="3.55207">
        <ele>131.8</ele>
        <time>2016-01-25T13:06:08.765Z</time>
      </trkpt>
      <trkpt lat="49.5308" lon="3.55196">
        <ele>131.8</ele>
        <time>2016-01-25T13:06:16.856Z</time>
      </trkpt>
      <trkpt lat="49.5308" lon="3.55195">
        <ele>132</ele>
        <time>2016-01-25T13:06:17.853Z</time>
      </trkpt>
      <trkpt lat="49.53081" lon="3.55182">
        <ele>132</ele>
        <time>2016-01-25T13:06:25.827Z</time>
      </trkpt>
      <trkpt lat="49.53081" lon="3.5518">
        <ele>132</ele>
        <time>2016-01-25T13:06:26.811Z</time>
      </trkpt>
      <trkpt lat="49.53083" lon="3.55167">
        <ele>132.9</ele>
        <time>2016-01-25T13:06:33.777Z</time>
      </trkpt>
      <trkpt lat="49.53083" lon="3.55165">
        <ele>133</ele>
        <time>2016-01-25T13:06:34.769Z</time>
      </trkpt>
      <trkpt lat="49.53082" lon="3.55152">
        <ele>132.1</ele>
        <time>2016-01-25T13:06:40.856Z</time>
      </trkpt>
      <trkpt lat="49.53083" lon="3.5515">
        <ele>132.2</ele>
        <time>2016-01-25T13:06:41.839Z</time>
      </trkpt>
      <trkpt lat="49.53085" lon="3.55137">
        <ele>133.4</ele>
        <time>2016-01-25T13:06:48.798Z</time>
      </trkpt>
      <trkpt lat="49.53086" lon="3.55136">
        <ele>133.2</ele>
        <time>2016-01-25T13:06:49.800Z</time>
      </trkpt>
      <trkpt lat="49.53089" lon="3.55125">
        <ele>133</ele>
        <time>2016-01-25T13:06:55.775Z</time>
      </trkpt>
      <trkpt lat="49.5309" lon="3.55123">
        <ele>132.8</ele>
        <time>2016-01-25T13:06:56.762Z</time>
      </trkpt>
      <trkpt lat="49.53094" lon="3.55112">
        <ele>132.8</ele>
        <time>2016-01-25T13:07:04.865Z</time>
      </trkpt>
      <trkpt lat="49.53095" lon="3.5511">
        <ele>132.9</ele>
        <time>2016-01-25T13:07:05.760Z</time>
      </trkpt>
      <trkpt lat="49.53101" lon="3.55102">
        <ele>132.8</ele>
        <time>2016-01-25T13:07:12.827Z</time>
      </trkpt>
      <trkpt lat="49.53102" lon="3.55101">
        <ele>132.9</ele>
        <time>2016-01-25T13:07:13.812Z</time>
      </trkpt>
      <trkpt lat="49.53108" lon="3.55092">
        <ele>133.5</ele>
        <time>2016-01-25T13:07:21.807Z</time>
      </trkpt>
      <trkpt lat="49.53108" lon="3.5509">
        <ele>133.6</ele>
        <time>2016-01-25T13:07:22.796Z</time>
      </trkpt>
      <trkpt lat="49.53114" lon="3.55081">
        <ele>133.8</ele>
        <time>2016-01-25T13:07:29.872Z</time>
      </trkpt>
      <trkpt lat="49.53114" lon="3.5508">
        <ele>133.8</ele>
        <time>2016-01-25T13:07:30.876Z</time>
      </trkpt>
      <trkpt lat="49.5312" lon="3.5507">
        <ele>135.1</ele>
        <time>2016-01-25T13:07:37.847Z</time>
      </trkpt>
      <trkpt lat="49.53121" lon="3.55069">
        <ele>135.2</ele>
        <time>2016-01-25T13:07:38.841Z</time>
      </trkpt>
      <trkpt lat="49.53126" lon="3.55058">
        <ele>136.8</ele>
        <time>2016-01-25T13:07:47.782Z</time>
      </trkpt>
      <trkpt lat="49.53126" lon="3.55057">
        <ele>136.8</ele>
        <time>2016-01-25T13:07:48.813Z</time>
      </trkpt>
      <trkpt lat="49.53133" lon="3.55049">
        <ele>136.9</ele>
        <time>2016-01-25T13:07:56.783Z</time>
      </trkpt>
      <trkpt lat="49.53135" lon="3.55049">
        <ele>136.9</ele>
        <time>2016-01-25T13:07:57.785Z</time>
      </trkpt>
      <trkpt lat="49.53142" lon="3.55041">
        <ele>138.4</ele>
        <time>2016-01-25T13:08:06.912Z</time>
      </trkpt>
      <trkpt lat="49.53143" lon="3.5504">
        <ele>138.5</ele>
        <time>2016-01-25T13:08:07.767Z</time>
      </trkpt>
      <trkpt lat="49.53146" lon="3.5503">
        <ele>138.8</ele>
        <time>2016-01-25T13:08:16.338Z</time>
      </trkpt>
      <trkpt lat="49.53146" lon="3.55027">
        <ele>138.7</ele>
        <time>2016-01-25T13:08:17.323Z</time>
      </trkpt>
      <trkpt lat="49.53147" lon="3.55014">
        <ele>138.2</ele>
        <time>2016-01-25T13:08:23.314Z</time>
      </trkpt>
      <trkpt lat="49.53149" lon="3.55013">
        <ele>137.9</ele>
        <time>2016-01-25T13:08:24.323Z</time>
      </trkpt>
      <trkpt lat="49.53155" lon="3.55013">
        <ele>136.8</ele>
        <time>2016-01-25T13:08:31.363Z</time>
      </trkpt>
      <trkpt lat="49.53157" lon="3.55013">
        <ele>136.2</ele>
        <time>2016-01-25T13:08:32.359Z</time>
      </trkpt>
      <trkpt lat="49.53157" lon="3.55013">
        <ele>136.2</ele>
        <time>2016-01-25T13:08:32.375Z</time>
      </trkpt>
      <trkpt lat="49.53159" lon="3.55013">
        <ele>136</ele>
        <time>2016-01-25T13:08:33.367Z</time>
      </trkpt>
      <trkpt lat="49.53165" lon="3.55006">
        <ele>137</ele>
        <time>2016-01-25T13:08:39.365Z</time>
      </trkpt>
      <trkpt lat="49.53167" lon="3.55004">
        <ele>137.4</ele>
        <time>2016-01-25T13:08:40.353Z</time>
      </trkpt>
      <trkpt lat="49.53173" lon="3.54997">
        <ele>139.3</ele>
        <time>2016-01-25T13:08:45.315Z</time>
      </trkpt>
      <trkpt lat="49.53174" lon="3.54995">
        <ele>139.8</ele>
        <time>2016-01-25T13:08:46.295Z</time>
      </trkpt>
      <trkpt lat="49.53179" lon="3.54986">
        <ele>142.8</ele>
        <time>2016-01-25T13:08:54.383Z</time>
      </trkpt>
      <trkpt lat="49.5318" lon="3.54984">
        <ele>143</ele>
        <time>2016-01-25T13:08:55.379Z</time>
      </trkpt>
      <trkpt lat="49.53181" lon="3.54971">
        <ele>143.4</ele>
        <time>2016-01-25T13:09:03.356Z</time>
      </trkpt>
      <trkpt lat="49.53181" lon="3.5497">
        <ele>143.7</ele>
        <time>2016-01-25T13:09:04.345Z</time>
      </trkpt>
      <trkpt lat="49.53182" lon="3.54957">
        <ele>145</ele>
        <time>2016-01-25T13:09:13.357Z</time>
      </trkpt>
      <trkpt lat="49.53182" lon="3.54956">
        <ele>145.1</ele>
        <time>2016-01-25T13:09:14.346Z</time>
      </trkpt>
      <trkpt lat="49.53182" lon="3.54942">
        <ele>145.9</ele>
        <time>2016-01-25T13:09:21.323Z</time>
      </trkpt>
      <trkpt lat="49.53182" lon="3.5494">
        <ele>146.1</ele>
        <time>2016-01-25T13:09:22.312Z</time>
      </trkpt>
      <trkpt lat="49.5318" lon="3.54927">
        <ele>148.4</ele>
        <time>2016-01-25T13:09:31.416Z</time>
      </trkpt>
      <trkpt lat="49.53179" lon="3.54926">
        <ele>148.7</ele>
        <time>2016-01-25T13:09:32.299Z</time>
      </trkpt>
      <trkpt lat="49.53179" lon="3.54926">
        <ele>148.7</ele>
        <time>2016-01-25T13:09:32.315Z</time>
      </trkpt>
      <trkpt lat="49.53179" lon="3.54925">
        <ele>148.8</ele>
        <time>2016-01-25T13:09:33.316Z</time>
      </trkpt>
      <trkpt lat="49.53175" lon="3.54913">
        <ele>151.1</ele>
        <time>2016-01-25T13:09:42.322Z</time>
      </trkpt>
      <trkpt lat="49.53175" lon="3.54912">
        <ele>151.2</ele>
        <time>2016-01-25T13:09:43.328Z</time>
      </trkpt>
      <trkpt lat="49.53169" lon="3.54903">
        <ele>152.4</ele>
        <time>2016-01-25T13:09:52.362Z</time>
      </trkpt>
      <trkpt lat="49.53168" lon="3.54901">
        <ele>152.9</ele>
        <time>2016-01-25T13:09:53.354Z</time>
      </trkpt>
      <trkpt lat="49.53162" lon="3.54893">
        <ele>154</ele>
        <time>2016-01-25T13:10:00.323Z</time>
      </trkpt>
      <trkpt lat="49.53162" lon="3.54891">
        <ele>154</ele>
        <time>2016-01-25T13:10:01.344Z</time>
      </trkpt>
      <trkpt lat="49.53157" lon="3.5488">
        <ele>154.8</ele>
        <time>2016-01-25T13:10:09.381Z</time>
      </trkpt>
      <trkpt lat="49.53156" lon="3.54878">
        <ele>155.1</ele>
        <time>2016-01-25T13:10:10.366Z</time>
      </trkpt>
      <trkpt lat="49.53152" lon="3.54868">
        <ele>156</ele>
        <time>2016-01-25T13:10:16.325Z</time>
      </trkpt>
      <trkpt lat="49.53151" lon="3.54867">
        <ele>156.1</ele>
        <time>2016-01-25T13:10:17.313Z</time>
      </trkpt>
      <trkpt lat="49.53145" lon="3.54858">
        <ele>157.2</ele>
        <time>2016-01-25T13:10:26.314Z</time>
      </trkpt>
      <trkpt lat="49.53144" lon="3.54857">
        <ele>157.4</ele>
        <time>2016-01-25T13:10:27.297Z</time>
      </trkpt>
      <trkpt lat="49.53138" lon="3.54847">
        <ele>158.7</ele>
        <time>2016-01-25T13:10:35.313Z</time>
      </trkpt>
      <trkpt lat="49.53137" lon="3.54846">
        <ele>158.8</ele>
        <time>2016-01-25T13:10:36.311Z</time>
      </trkpt>
      <trkpt lat="49.53135" lon="3.54836">
        <ele>160.8</ele>
        <time>2016-01-25T13:10:50.392Z</time>
      </trkpt>
      <trkpt lat="49.53134" lon="3.5483">
        <ele>162</ele>
        <time>2016-01-25T13:10:51.362Z</time>
      </trkpt>
      <trkpt lat="49.53134" lon="3.54817">
        <ele>165</ele>
        <time>2016-01-25T13:11:02.295Z</time>
      </trkpt>
      <trkpt lat="49.53135" lon="3.54816">
        <ele>165</ele>
        <time>2016-01-25T13:11:03.291Z</time>
      </trkpt>
      <trkpt lat="49.53136" lon="3.5481">
        <ele>165.6</ele>
        <time>2016-01-25T13:11:11.399Z</time>
      </trkpt>
      <trkpt lat="49.53136" lon="3.5481">
        <ele>165.5</ele>
        <time>2016-01-25T13:11:12.287Z</time>
      </trkpt>
      <trkpt lat="49.53136" lon="3.54809">
        <ele>165.5</ele>
        <time>2016-01-25T13:11:14.355Z</time>
      </trkpt>
      <trkpt lat="49.53136" lon="3.54809">
        <ele>165.5</ele>
        <time>2016-01-25T13:11:15.350Z</time>
      </trkpt>
      <trkpt lat="49.53137" lon="3.54807">
        <ele>165.4</ele>
        <time>2016-01-25T13:11:18.308Z</time>
      </trkpt>
      <trkpt lat="49.53138" lon="3.54807">
        <ele>165.5</ele>
        <time>2016-01-25T13:11:19.317Z</time>
      </trkpt>
      <trkpt lat="49.53138" lon="3.54807">
        <ele>165.5</ele>
        <time>2016-01-25T13:11:21.526Z</time>
      </trkpt>
      <trkpt lat="49.53138" lon="3.54806">
        <ele>165.5</ele>
        <time>2016-01-25T13:11:22.300Z</time>
      </trkpt>
      <trkpt lat="49.53139" lon="3.54806">
        <ele>165.5</ele>
        <time>2016-01-25T13:11:23.336Z</time>
      </trkpt>
      <trkpt lat="49.53139" lon="3.54806">
        <ele>165.5</ele>
        <time>2016-01-25T13:11:24.330Z</time>
      </trkpt>
      <trkpt lat="49.5314" lon="3.54806">
        <ele>165.5</ele>
        <time>2016-01-25T13:11:26.368Z</time>
      </trkpt>
      <trkpt lat="49.53141" lon="3.54805">
        <ele>165.4</ele>
        <time>2016-01-25T13:11:27.359Z</time>
      </trkpt>
      <trkpt lat="49.53149" lon="3.548">
        <ele>165.8</ele>
        <time>2016-01-25T13:11:34.296Z</time>
      </trkpt>
      <trkpt lat="49.5315" lon="3.54798">
        <ele>165.7</ele>
        <time>2016-01-25T13:11:35.273Z</time>
      </trkpt>
      <trkpt lat="49.53157" lon="3.54798">
        <ele>165.9</ele>
        <time>2016-01-25T13:11:42.297Z</time>
      </trkpt>
      <trkpt lat="49.53159" lon="3.54797">
        <ele>165.8</ele>
        <time>2016-01-25T13:11:43.310Z</time>
      </trkpt>
      <trkpt lat="49.53167" lon="3.54794">
        <ele>166</ele>
        <time>2016-01-25T13:11:49.387Z</time>
      </trkpt>
      <trkpt lat="49.53168" lon="3.54794">
        <ele>166.2</ele>
        <time>2016-01-25T13:11:50.376Z</time>
      </trkpt>
      <trkpt lat="49.53176" lon="3.54789">
        <ele>167.3</ele>
        <time>2016-01-25T13:11:57.352Z</time>
      </trkpt>
      <trkpt lat="49.53177" lon="3.54789">
        <ele>167.5</ele>
        <time>2016-01-25T13:11:58.339Z</time>
      </trkpt>
      <trkpt lat="49.53184" lon="3.54784">
        <ele>167.9</ele>
        <time>2016-01-25T13:12:04.304Z</time>
      </trkpt>
      <trkpt lat="49.53186" lon="3.54782">
        <ele>168</ele>
        <time>2016-01-25T13:12:05.295Z</time>
      </trkpt>
      <trkpt lat="49.53187" lon="3.54781">
        <ele>168.2</ele>
        <time>2016-01-25T13:12:06.321Z</time>
      </trkpt>
      <trkpt lat="49.53188" lon="3.54781">
        <ele>168.3</ele>
        <time>2016-01-25T13:12:07.330Z</time>
      </trkpt>
      <trkpt lat="49.53188" lon="3.54781">
        <ele>168.3</ele>
        <time>2016-01-25T13:12:07.347Z</time>
      </trkpt>
      <trkpt lat="49.53189" lon="3.5478">
        <ele>168.4</ele>
        <time>2016-01-25T13:12:08.329Z</time>
      </trkpt>
      <trkpt lat="49.53192" lon="3.5478">
        <ele>168.9</ele>
        <time>2016-01-25T13:12:12.390Z</time>
      </trkpt>
      <trkpt lat="49.53194" lon="3.54779">
        <ele>169</ele>
        <time>2016-01-25T13:12:13.383Z</time>
      </trkpt>
      <trkpt lat="49.53194" lon="3.54779">
        <ele>169</ele>
        <time>2016-01-25T13:12:13.407Z</time>
      </trkpt>
      <trkpt lat="49.53194" lon="3.54779">
        <ele>168.8</ele>
        <time>2016-01-25T13:12:14.289Z</time>
      </trkpt>
      <trkpt lat="49.53196" lon="3.54778">
        <ele>169</ele>
        <time>2016-01-25T13:12:16.318Z</time>
      </trkpt>
      <trkpt lat="49.53197" lon="3.54777">
        <ele>169.3</ele>
        <time>2016-01-25T13:12:17.312Z</time>
      </trkpt>
      <trkpt lat="49.53198" lon="3.54777">
        <ele>169.6</ele>
        <time>2016-01-25T13:12:21.353Z</time>
      </trkpt>
      <trkpt lat="49.53202" lon="3.54775">
        <ele>170.2</ele>
        <time>2016-01-25T13:12:22.354Z</time>
      </trkpt>
      <trkpt lat="49.5321" lon="3.54771">
        <ele>169.9</ele>
        <time>2016-01-25T13:12:29.335Z</time>
      </trkpt>
      <trkpt lat="49.53211" lon="3.54771">
        <ele>169.9</ele>
        <time>2016-01-25T13:12:30.334Z</time>
      </trkpt>
      <trkpt lat="49.53219" lon="3.54767">
        <ele>170.3</ele>
        <time>2016-01-25T13:12:39.316Z</time>
      </trkpt>
      <trkpt lat="49.53219" lon="3.54765">
        <ele>170.2</ele>
        <time>2016-01-25T13:12:40.317Z</time>
      </trkpt>
      <trkpt lat="49.53221" lon="3.54762">
        <ele>170.8</ele>
        <time>2016-01-25T13:12:44.376Z</time>
      </trkpt>
      <trkpt lat="49.53222" lon="3.54762">
        <ele>170.7</ele>
        <time>2016-01-25T13:12:45.364Z</time>
      </trkpt>
      <trkpt lat="49.53222" lon="3.54762">
        <ele>170.7</ele>
        <time>2016-01-25T13:12:45.387Z</time>
      </trkpt>
      <trkpt lat="49.53224" lon="3.54761">
        <ele>170.6</ele>
        <time>2016-01-25T13:12:46.374Z</time>
      </trkpt>
      <trkpt lat="49.53224" lon="3.54761">
        <ele>170.6</ele>
        <time>2016-01-25T13:12:46.396Z</time>
      </trkpt>
      <trkpt lat="49.53224" lon="3.54761">
        <ele>170.7</ele>
        <time>2016-01-25T13:12:47.386Z</time>
      </trkpt>
      <trkpt lat="49.53225" lon="3.5476">
        <ele>170.7</ele>
        <time>2016-01-25T13:12:48.322Z</time>
      </trkpt>
      <trkpt lat="49.53226" lon="3.54759">
        <ele>170.8</ele>
        <time>2016-01-25T13:12:49.340Z</time>
      </trkpt>
      <trkpt lat="49.53231" lon="3.54751">
        <ele>170.5</ele>
        <time>2016-01-25T13:12:59.339Z</time>
      </trkpt>
      <trkpt lat="49.53235" lon="3.54748">
        <ele>170.9</ele>
        <time>2016-01-25T13:13:00.333Z</time>
      </trkpt>
      <trkpt lat="49.53238" lon="3.54736">
        <ele>168.9</ele>
        <time>2016-01-25T13:13:10.386Z</time>
      </trkpt>
      <trkpt lat="49.53238" lon="3.54734">
        <ele>168.9</ele>
        <time>2016-01-25T13:13:11.416Z</time>
      </trkpt>
      <trkpt lat="49.5324" lon="3.54726">
        <ele>169.5</ele>
        <time>2016-01-25T13:13:17.402Z</time>
      </trkpt>
      <trkpt lat="49.53241" lon="3.54724">
        <ele>169.6</ele>
        <time>2016-01-25T13:13:18.387Z</time>
      </trkpt>
      <trkpt lat="49.53243" lon="3.54722">
        <ele>169.9</ele>
        <time>2016-01-25T13:13:20.313Z</time>
      </trkpt>
      <trkpt lat="49.53244" lon="3.54721">
        <ele>170.3</ele>
        <time>2016-01-25T13:13:21.307Z</time>
      </trkpt>
      <trkpt lat="49.53244" lon="3.54721">
        <ele>170.3</ele>
        <time>2016-01-25T13:13:22.337Z</time>
      </trkpt>
      <trkpt lat="49.53245" lon="3.5472">
        <ele>170.3</ele>
        <time>2016-01-25T13:13:23.325Z</time>
      </trkpt>
      <trkpt lat="49.53246" lon="3.5472">
        <ele>170</ele>
        <time>2016-01-25T13:13:25.353Z</time>
      </trkpt>
      <trkpt lat="49.53247" lon="3.54719">
        <ele>169.9</ele>
        <time>2016-01-25T13:13:26.347Z</time>
      </trkpt>
      <trkpt lat="49.53254" lon="3.54712">
        <ele>169.1</ele>
        <time>2016-01-25T13:13:37.361Z</time>
      </trkpt>
      <trkpt lat="49.53255" lon="3.54711">
        <ele>169.2</ele>
        <time>2016-01-25T13:13:38.352Z</time>
      </trkpt>
      <trkpt lat="49.53255" lon="3.54711">
        <ele>169.2</ele>
        <time>2016-01-25T13:13:38.371Z</time>
      </trkpt>
      <trkpt lat="49.53256" lon="3.54711">
        <ele>169.1</ele>
        <time>2016-01-25T13:13:39.362Z</time>
      </trkpt>
      <trkpt lat="49.53257" lon="3.54711">
        <ele>169.1</ele>
        <time>2016-01-25T13:13:44.352Z</time>
      </trkpt>
      <trkpt lat="49.5326" lon="3.54707">
        <ele>169.3</ele>
        <time>2016-01-25T13:13:45.340Z</time>
      </trkpt>
      <trkpt lat="49.53261" lon="3.54706">
        <ele>169.4</ele>
        <time>2016-01-25T13:13:46.368Z</time>
      </trkpt>
      <trkpt lat="49.53261" lon="3.54706">
        <ele>169.4</ele>
        <time>2016-01-25T13:13:47.356Z</time>
      </trkpt>
      <trkpt lat="49.53261" lon="3.54706">
        <ele>169.4</ele>
        <time>2016-01-25T13:13:47.376Z</time>
      </trkpt>
      <trkpt lat="49.53262" lon="3.54705">
        <ele>169.3</ele>
        <time>2016-01-25T13:13:48.364Z</time>
      </trkpt>
      <trkpt lat="49.53268" lon="3.54695">
        <ele>169.1</ele>
        <time>2016-01-25T13:13:54.347Z</time>
      </trkpt>
      <trkpt lat="49.53268" lon="3.54694">
        <ele>169</ele>
        <time>2016-01-25T13:13:55.341Z</time>
      </trkpt>
      <trkpt lat="49.53275" lon="3.54684">
        <ele>168</ele>
        <time>2016-01-25T13:14:02.387Z</time>
      </trkpt>
      <trkpt lat="49.53275" lon="3.54682">
        <ele>168</ele>
        <time>2016-01-25T13:14:03.340Z</time>
      </trkpt>
      <trkpt lat="49.53275" lon="3.54682">
        <ele>168</ele>
        <time>2016-01-25T13:14:03.363Z</time>
      </trkpt>
      <trkpt lat="49.53275" lon="3.54681">
        <ele>168.1</ele>
        <time>2016-01-25T13:14:04.341Z</time>
      </trkpt>
      <trkpt lat="49.53275" lon="3.54681">
        <ele>168.1</ele>
        <time>2016-01-25T13:14:04.349Z</time>
      </trkpt>
      <trkpt lat="49.53276" lon="3.5468">
        <ele>168.1</ele>
        <time>2016-01-25T13:14:05.353Z</time>
      </trkpt>
      <trkpt lat="49.53277" lon="3.54671">
        <ele>167.9</ele>
        <time>2016-01-25T13:14:11.324Z</time>
      </trkpt>
      <trkpt lat="49.53277" lon="3.5467">
        <ele>168.1</ele>
        <time>2016-01-25T13:14:12.310Z</time>
      </trkpt>
      <trkpt lat="49.53277" lon="3.5467">
        <ele>168.1</ele>
        <time>2016-01-25T13:14:12.330Z</time>
      </trkpt>
      <trkpt lat="49.53278" lon="3.54669">
        <ele>168.1</ele>
        <time>2016-01-25T13:14:13.328Z</time>
      </trkpt>
      <trkpt lat="49.53281" lon="3.54659">
        <ele>167.3</ele>
        <time>2016-01-25T13:14:22.312Z</time>
      </trkpt>
      <trkpt lat="49.53281" lon="3.54658">
        <ele>167.2</ele>
        <time>2016-01-25T13:14:23.302Z</time>
      </trkpt>
      <trkpt lat="49.53281" lon="3.54658">
        <ele>167.1</ele>
        <time>2016-01-25T13:14:28.384Z</time>
      </trkpt>
      <trkpt lat="49.53283" lon="3.54651">
        <ele>166.7</ele>
        <time>2016-01-25T13:14:29.370Z</time>
      </trkpt>
      <trkpt lat="49.5329" lon="3.54645">
        <ele>165.1</ele>
        <time>2016-01-25T13:14:36.337Z</time>
      </trkpt>
      <trkpt lat="49.53291" lon="3.54644">
        <ele>165.1</ele>
        <time>2016-01-25T13:14:37.340Z</time>
      </trkpt>
      <trkpt lat="49.53299" lon="3.54639">
        <ele>163.5</ele>
        <time>2016-01-25T13:14:45.314Z</time>
      </trkpt>
      <trkpt lat="49.533" lon="3.54638">
        <ele>163.3</ele>
        <time>2016-01-25T13:14:46.298Z</time>
      </trkpt>
      <trkpt lat="49.53304" lon="3.54627">
        <ele>164.9</ele>
        <time>2016-01-25T13:14:55.399Z</time>
      </trkpt>
      <trkpt lat="49.53304" lon="3.54626">
        <ele>164.9</ele>
        <time>2016-01-25T13:14:56.289Z</time>
      </trkpt>
      <trkpt lat="49.53307" lon="3.54613">
        <ele>166.1</ele>
        <time>2016-01-25T13:15:04.366Z</time>
      </trkpt>
      <trkpt lat="49.53308" lon="3.54612">
        <ele>166.3</ele>
        <time>2016-01-25T13:15:05.362Z</time>
      </trkpt>
      <trkpt lat="49.53309" lon="3.54599">
        <ele>166</ele>
        <time>2016-01-25T13:15:14.370Z</time>
      </trkpt>
      <trkpt lat="49.53309" lon="3.54598">
        <ele>165.8</ele>
        <time>2016-01-25T13:15:15.338Z</time>
      </trkpt>
      <trkpt lat="49.53308" lon="3.54595">
        <ele>164.5</ele>
        <time>2016-01-25T13:15:17.384Z</time>
      </trkpt>
      <trkpt lat="49.53308" lon="3.54594">
        <ele>163.9</ele>
        <time>2016-01-25T13:15:18.392Z</time>
      </trkpt>
      <trkpt lat="49.53307" lon="3.54593">
        <ele>163.4</ele>
        <time>2016-01-25T13:15:26.355Z</time>
      </trkpt>
      <trkpt lat="49.53308" lon="3.5459">
        <ele>162.8</ele>
        <time>2016-01-25T13:15:27.357Z</time>
      </trkpt>
      <trkpt lat="49.53309" lon="3.54588">
        <ele>162.7</ele>
        <time>2016-01-25T13:15:30.410Z</time>
      </trkpt>
      <trkpt lat="49.5331" lon="3.54587">
        <ele>162.6</ele>
        <time>2016-01-25T13:15:31.394Z</time>
      </trkpt>
      <trkpt lat="49.5331" lon="3.54587">
        <ele>162.6</ele>
        <time>2016-01-25T13:15:31.411Z</time>
      </trkpt>
      <trkpt lat="49.5331" lon="3.54586">
        <ele>162.6</ele>
        <time>2016-01-25T13:15:32.299Z</time>
      </trkpt>
      <trkpt lat="49.5331" lon="3.54586">
        <ele>162.6</ele>
        <time>2016-01-25T13:15:32.315Z</time>
      </trkpt>
      <trkpt lat="49.53311" lon="3.54585">
        <ele>162.7</ele>
        <time>2016-01-25T13:15:33.309Z</time>
      </trkpt>
      <trkpt lat="49.53311" lon="3.54585">
        <ele>162.7</ele>
        <time>2016-01-25T13:15:33.327Z</time>
      </trkpt>
      <trkpt lat="49.53311" lon="3.54585">
        <ele>162.7</ele>
        <time>2016-01-25T13:15:34.317Z</time>
      </trkpt>
      <trkpt lat="49.53319" lon="3.54578">
        <ele>163</ele>
        <time>2016-01-25T13:15:40.392Z</time>
      </trkpt>
      <trkpt lat="49.5332" lon="3.54577">
        <ele>163.2</ele>
        <time>2016-01-25T13:15:41.397Z</time>
      </trkpt>
      <trkpt lat="49.53325" lon="3.54567">
        <ele>163.4</ele>
        <time>2016-01-25T13:15:50.367Z</time>
      </trkpt>
      <trkpt lat="49.53327" lon="3.54566">
        <ele>163.7</ele>
        <time>2016-01-25T13:15:51.347Z</time>
      </trkpt>
      <trkpt lat="49.53333" lon="3.5456">
        <ele>163.2</ele>
        <time>2016-01-25T13:15:58.329Z</time>
      </trkpt>
      <trkpt lat="49.53334" lon="3.54558">
        <ele>163.4</ele>
        <time>2016-01-25T13:15:59.320Z</time>
      </trkpt>
      <trkpt lat="49.5334" lon="3.54549">
        <ele>161.7</ele>
        <time>2016-01-25T13:16:07.361Z</time>
      </trkpt>
      <trkpt lat="49.53341" lon="3.54547">
        <ele>161.4</ele>
        <time>2016-01-25T13:16:08.344Z</time>
      </trkpt>
      <trkpt lat="49.53346" lon="3.54536">
        <ele>159.4</ele>
        <time>2016-01-25T13:16:16.322Z</time>
      </trkpt>
      <trkpt lat="49.53347" lon="3.54535">
        <ele>159.2</ele>
        <time>2016-01-25T13:16:17.310Z</time>
      </trkpt>
      <trkpt lat="49.53355" lon="3.54532">
        <ele>157.1</ele>
        <time>2016-01-25T13:16:24.402Z</time>
      </trkpt>
      <trkpt lat="49.53356" lon="3.54532">
        <ele>156.5</ele>
        <time>2016-01-25T13:16:25.394Z</time>
      </trkpt>
      <trkpt lat="49.53364" lon="3.5453">
        <ele>154.4</ele>
        <time>2016-01-25T13:16:30.343Z</time>
      </trkpt>
      <trkpt lat="49.53366" lon="3.54529">
        <ele>154.6</ele>
        <time>2016-01-25T13:16:31.361Z</time>
      </trkpt>
      <trkpt lat="49.53373" lon="3.54523">
        <ele>154</ele>
        <time>2016-01-25T13:16:41.313Z</time>
      </trkpt>
      <trkpt lat="49.53373" lon="3.54523">
        <ele>153.9</ele>
        <time>2016-01-25T13:16:42.297Z</time>
      </trkpt>
      <trkpt lat="49.53373" lon="3.54524">
        <ele>153.9</ele>
        <time>2016-01-25T13:17:03.316Z</time>
      </trkpt>
      <trkpt lat="49.53374" lon="3.54524">
        <ele>153.2</ele>
        <time>2016-01-25T13:17:04.304Z</time>
      </trkpt>
      <trkpt lat="49.53377" lon="3.54527">
        <ele>153.3</ele>
        <time>2016-01-25T13:17:07.552Z</time>
      </trkpt>
      <trkpt lat="49.53377" lon="3.54527">
        <ele>153.1</ele>
        <time>2016-01-25T13:17:08.349Z</time>
      </trkpt>
      <trkpt lat="49.53375" lon="3.54527">
        <ele>151.8</ele>
        <time>2016-01-25T13:17:13.424Z</time>
      </trkpt>
      <trkpt lat="49.53374" lon="3.54525">
        <ele>150.7</ele>
        <time>2016-01-25T13:17:14.299Z</time>
      </trkpt>
      <trkpt lat="49.5337" lon="3.54515">
        <ele>149.6</ele>
        <time>2016-01-25T13:17:22.386Z</time>
      </trkpt>
      <trkpt lat="49.53369" lon="3.54513">
        <ele>149.4</ele>
        <time>2016-01-25T13:17:23.382Z</time>
      </trkpt>
      <trkpt lat="49.53366" lon="3.54501">
        <ele>149.2</ele>
        <time>2016-01-25T13:17:30.354Z</time>
      </trkpt>
      <trkpt lat="49.53366" lon="3.54499">
        <ele>149.2</ele>
        <time>2016-01-25T13:17:31.354Z</time>
      </trkpt>
      <trkpt lat="49.53363" lon="3.54486">
        <ele>149.2</ele>
        <time>2016-01-25T13:17:38.355Z</time>
      </trkpt>
      <trkpt lat="49.53363" lon="3.54484">
        <ele>149.3</ele>
        <time>2016-01-25T13:17:39.342Z</time>
      </trkpt>
      <trkpt lat="49.53359" lon="3.54472">
        <ele>149.6</ele>
        <time>2016-01-25T13:17:46.384Z</time>
      </trkpt>
      <trkpt lat="49.53359" lon="3.5447">
        <ele>149.7</ele>
        <time>2016-01-25T13:17:47.288Z</time>
      </trkpt>
      <trkpt lat="49.53356" lon="3.54458">
        <ele>150.3</ele>
        <time>2016-01-25T13:17:54.384Z</time>
      </trkpt>
      <trkpt lat="49.53356" lon="3.54456">
        <ele>150.3</ele>
        <time>2016-01-25T13:17:55.377Z</time>
      </trkpt>
      <trkpt lat="49.53353" lon="3.54445">
        <ele>150.7</ele>
        <time>2016-01-25T13:18:01.347Z</time>
      </trkpt>
      <trkpt lat="49.53353" lon="3.54443">
        <ele>150.8</ele>
        <time>2016-01-25T13:18:02.338Z</time>
      </trkpt>
      <trkpt lat="49.53351" lon="3.54431">
        <ele>151.1</ele>
        <time>2016-01-25T13:18:08.417Z</time>
      </trkpt>
      <trkpt lat="49.5335" lon="3.54429">
        <ele>151.2</ele>
        <time>2016-01-25T13:18:09.301Z</time>
      </trkpt>
      <trkpt lat="49.53348" lon="3.54417">
        <ele>151.7</ele>
        <time>2016-01-25T13:18:15.368Z</time>
      </trkpt>
      <trkpt lat="49.53348" lon="3.54416">
        <ele>151.8</ele>
        <time>2016-01-25T13:18:16.359Z</time>
      </trkpt>
      <trkpt lat="49.53345" lon="3.54404">
        <ele>152.8</ele>
        <time>2016-01-25T13:18:23.358Z</time>
      </trkpt>
      <trkpt lat="49.53344" lon="3.54402">
        <ele>152.7</ele>
        <time>2016-01-25T13:18:24.331Z</time>
      </trkpt>
      <trkpt lat="49.53342" lon="3.5439">
        <ele>152.8</ele>
        <time>2016-01-25T13:18:34.329Z</time>
      </trkpt>
      <trkpt lat="49.53342" lon="3.54388">
        <ele>153</ele>
        <time>2016-01-25T13:18:35.314Z</time>
      </trkpt>
      <trkpt lat="49.53341" lon="3.54376">
        <ele>153</ele>
        <time>2016-01-25T13:18:41.385Z</time>
      </trkpt>
      <trkpt lat="49.53341" lon="3.54374">
        <ele>153</ele>
        <time>2016-01-25T13:18:42.378Z</time>
      </trkpt>
      <trkpt lat="49.53339" lon="3.54361">
        <ele>153</ele>
        <time>2016-01-25T13:18:49.363Z</time>
      </trkpt>
      <trkpt lat="49.53338" lon="3.54359">
        <ele>153</ele>
        <time>2016-01-25T13:18:50.351Z</time>
      </trkpt>
      <trkpt lat="49.53337" lon="3.54347">
        <ele>153.1</ele>
        <time>2016-01-25T13:18:56.310Z</time>
      </trkpt>
      <trkpt lat="49.53336" lon="3.54345">
        <ele>153.1</ele>
        <time>2016-01-25T13:18:57.304Z</time>
      </trkpt>
      <trkpt lat="49.53334" lon="3.54332">
        <ele>153.7</ele>
        <time>2016-01-25T13:19:05.512Z</time>
      </trkpt>
      <trkpt lat="49.53334" lon="3.54331">
        <ele>153.6</ele>
        <time>2016-01-25T13:19:06.382Z</time>
      </trkpt>
      <trkpt lat="49.53331" lon="3.54319">
        <ele>153.7</ele>
        <time>2016-01-25T13:19:13.348Z</time>
      </trkpt>
      <trkpt lat="49.53331" lon="3.54317">
        <ele>153.6</ele>
        <time>2016-01-25T13:19:14.353Z</time>
      </trkpt>
      <trkpt lat="49.53329" lon="3.54306">
        <ele>154.3</ele>
        <time>2016-01-25T13:19:20.319Z</time>
      </trkpt>
      <trkpt lat="49.53328" lon="3.54304">
        <ele>154.5</ele>
        <time>2016-01-25T13:19:21.300Z</time>
      </trkpt>
      <trkpt lat="49.53327" lon="3.54291">
        <ele>155</ele>
        <time>2016-01-25T13:19:28.387Z</time>
      </trkpt>
      <trkpt lat="49.53327" lon="3.5429">
        <ele>155</ele>
        <time>2016-01-25T13:19:29.375Z</time>
      </trkpt>
      <trkpt lat="49.53324" lon="3.54278">
        <ele>155.4</ele>
        <time>2016-01-25T13:19:37.350Z</time>
      </trkpt>
      <trkpt lat="49.53323" lon="3.54275">
        <ele>155.8</ele>
        <time>2016-01-25T13:19:38.339Z</time>
      </trkpt>
      <trkpt lat="49.53321" lon="3.54264">
        <ele>157.1</ele>
        <time>2016-01-25T13:19:44.420Z</time>
      </trkpt>
      <trkpt lat="49.5332" lon="3.54262">
        <ele>157.1</ele>
        <time>2016-01-25T13:19:45.327Z</time>
      </trkpt>
      <trkpt lat="49.53318" lon="3.54249">
        <ele>158.3</ele>
        <time>2016-01-25T13:19:52.598Z</time>
      </trkpt>
      <trkpt lat="49.53318" lon="3.54247">
        <ele>158.7</ele>
        <time>2016-01-25T13:19:53.371Z</time>
      </trkpt>
      <trkpt lat="49.53315" lon="3.54236">
        <ele>158.9</ele>
        <time>2016-01-25T13:20:00.357Z</time>
      </trkpt>
      <trkpt lat="49.53314" lon="3.54234">
        <ele>158.9</ele>
        <time>2016-01-25T13:20:01.354Z</time>
      </trkpt>
      <trkpt lat="49.53312" lon="3.54222">
        <ele>159.2</ele>
        <time>2016-01-25T13:20:08.462Z</time>
      </trkpt>
      <trkpt lat="49.53312" lon="3.5422">
        <ele>159.3</ele>
        <time>2016-01-25T13:20:09.288Z</time>
      </trkpt>
      <trkpt lat="49.5331" lon="3.54215">
        <ele>159.4</ele>
        <time>2016-01-25T13:20:13.337Z</time>
      </trkpt>
      <trkpt lat="49.5331" lon="3.54216">
        <ele>158.8</ele>
        <time>2016-01-25T13:20:14.337Z</time>
      </trkpt>
      <trkpt lat="49.5331" lon="3.54216">
        <ele>158.8</ele>
        <time>2016-01-25T13:20:18.398Z</time>
      </trkpt>
      <trkpt lat="49.5331" lon="3.54214">
        <ele>158.8</ele>
        <time>2016-01-25T13:20:19.397Z</time>
      </trkpt>
      <trkpt lat="49.53307" lon="3.54203">
        <ele>159.5</ele>
        <time>2016-01-25T13:20:25.339Z</time>
      </trkpt>
      <trkpt lat="49.53307" lon="3.54201">
        <ele>159.7</ele>
        <time>2016-01-25T13:20:26.336Z</time>
      </trkpt>
      <trkpt lat="49.53303" lon="3.54189">
        <ele>160.7</ele>
        <time>2016-01-25T13:20:33.316Z</time>
      </trkpt>
      <trkpt lat="49.53303" lon="3.54188">
        <ele>160.8</ele>
        <time>2016-01-25T13:20:34.297Z</time>
      </trkpt>
      <trkpt lat="49.53299" lon="3.54175">
        <ele>162.2</ele>
        <time>2016-01-25T13:20:44.314Z</time>
      </trkpt>
      <trkpt lat="49.53299" lon="3.54174">
        <ele>162.1</ele>
        <time>2016-01-25T13:20:45.303Z</time>
      </trkpt>
      <trkpt lat="49.53295" lon="3.54163">
        <ele>162.4</ele>
        <time>2016-01-25T13:20:54.308Z</time>
      </trkpt>
      <trkpt lat="49.53294" lon="3.54162">
        <ele>162.4</ele>
        <time>2016-01-25T13:20:55.340Z</time>
      </trkpt>
      <trkpt lat="49.53294" lon="3.54162">
        <ele>162.4</ele>
        <time>2016-01-25T13:20:55.351Z</time>
      </trkpt>
      <trkpt lat="49.53294" lon="3.54162">
        <ele>162.8</ele>
        <time>2016-01-25T13:20:56.355Z</time>
      </trkpt>
      <trkpt lat="49.53293" lon="3.54162">
        <ele>162.8</ele>
        <time>2016-01-25T13:21:03.327Z</time>
      </trkpt>
      <trkpt lat="49.53292" lon="3.54161">
        <ele>162.5</ele>
        <time>2016-01-25T13:21:04.310Z</time>
      </trkpt>
      <trkpt lat="49.53287" lon="3.5415">
        <ele>162.1</ele>
        <time>2016-01-25T13:21:11.575Z</time>
      </trkpt>
      <trkpt lat="49.53287" lon="3.54149">
        <ele>162.2</ele>
        <time>2016-01-25T13:21:12.308Z</time>
      </trkpt>
      <trkpt lat="49.53283" lon="3.54138">
        <ele>162.8</ele>
        <time>2016-01-25T13:21:20.364Z</time>
      </trkpt>
      <trkpt lat="49.53282" lon="3.54136">
        <ele>162.9</ele>
        <time>2016-01-25T13:21:21.365Z</time>
      </trkpt>
      <trkpt lat="49.53277" lon="3.54125">
        <ele>164.5</ele>
        <time>2016-01-25T13:21:28.399Z</time>
      </trkpt>
      <trkpt lat="49.53276" lon="3.54124">
        <ele>164.7</ele>
        <time>2016-01-25T13:21:29.391Z</time>
      </trkpt>
      <trkpt lat="49.53272" lon="3.54113">
        <ele>165.9</ele>
        <time>2016-01-25T13:21:35.401Z</time>
      </trkpt>
      <trkpt lat="49.53272" lon="3.54111">
        <ele>165.9</ele>
        <time>2016-01-25T13:21:36.390Z</time>
      </trkpt>
      <trkpt lat="49.53268" lon="3.54099">
        <ele>167.2</ele>
        <time>2016-01-25T13:21:43.376Z</time>
      </trkpt>
      <trkpt lat="49.53268" lon="3.54097">
        <ele>167.4</ele>
        <time>2016-01-25T13:21:44.364Z</time>
      </trkpt>
      <trkpt lat="49.53269" lon="3.54085">
        <ele>168.6</ele>
        <time>2016-01-25T13:21:51.369Z</time>
      </trkpt>
      <trkpt lat="49.5327" lon="3.54083">
        <ele>169</ele>
        <time>2016-01-25T13:21:52.365Z</time>
      </trkpt>
      <trkpt lat="49.53273" lon="3.54071">
        <ele>169.6</ele>
        <time>2016-01-25T13:21:59.335Z</time>
      </trkpt>
      <trkpt lat="49.53273" lon="3.54069">
        <ele>170</ele>
        <time>2016-01-25T13:22:00.324Z</time>
      </trkpt>
      <trkpt lat="49.53277" lon="3.54059">
        <ele>170</ele>
        <time>2016-01-25T13:22:08.301Z</time>
      </trkpt>
      <trkpt lat="49.53278" lon="3.54058">
        <ele>170.1</ele>
        <time>2016-01-25T13:22:09.287Z</time>
      </trkpt>
      <trkpt lat="49.53282" lon="3.54045">
        <ele>170.4</ele>
        <time>2016-01-25T13:22:16.518Z</time>
      </trkpt>
      <trkpt lat="49.53283" lon="3.54043">
        <ele>170.8</ele>
        <time>2016-01-25T13:22:17.298Z</time>
      </trkpt>
      <trkpt lat="49.53287" lon="3.54033">
        <ele>171.8</ele>
        <time>2016-01-25T13:22:24.404Z</time>
      </trkpt>
      <trkpt lat="49.53288" lon="3.54031">
        <ele>171.9</ele>
        <time>2016-01-25T13:22:25.388Z</time>
      </trkpt>
      <trkpt lat="49.53292" lon="3.5402">
        <ele>174.1</ele>
        <time>2016-01-25T13:22:32.346Z</time>
      </trkpt>
      <trkpt lat="49.53293" lon="3.54019">
        <ele>174.2</ele>
        <time>2016-01-25T13:22:33.350Z</time>
      </trkpt>
      <trkpt lat="49.53298" lon="3.54009">
        <ele>175.4</ele>
        <time>2016-01-25T13:22:42.334Z</time>
      </trkpt>
      <trkpt lat="49.53299" lon="3.54007">
        <ele>175.6</ele>
        <time>2016-01-25T13:22:43.324Z</time>
      </trkpt>
      <trkpt lat="49.53303" lon="3.53998">
        <ele>176.3</ele>
        <time>2016-01-25T13:22:51.360Z</time>
      </trkpt>
      <trkpt lat="49.53304" lon="3.53997">
        <ele>176.6</ele>
        <time>2016-01-25T13:22:52.354Z</time>
      </trkpt>
      <trkpt lat="49.53311" lon="3.5399">
        <ele>177.4</ele>
        <time>2016-01-25T13:22:59.322Z</time>
      </trkpt>
      <trkpt lat="49.53312" lon="3.53988">
        <ele>177.6</ele>
        <time>2016-01-25T13:23:00.313Z</time>
      </trkpt>
      <trkpt lat="49.53319" lon="3.5398">
        <ele>178</ele>
        <time>2016-01-25T13:23:05.298Z</time>
      </trkpt>
      <trkpt lat="49.5332" lon="3.53978">
        <ele>177.9</ele>
        <time>2016-01-25T13:23:06.299Z</time>
      </trkpt>
      <trkpt lat="49.53325" lon="3.53969">
        <ele>178.4</ele>
        <time>2016-01-25T13:23:13.389Z</time>
      </trkpt>
      <trkpt lat="49.53326" lon="3.53967">
        <ele>178.6</ele>
        <time>2016-01-25T13:23:14.286Z</time>
      </trkpt>
      <trkpt lat="49.53332" lon="3.53959">
        <ele>180.3</ele>
        <time>2016-01-25T13:23:25.603Z</time>
      </trkpt>
      <trkpt lat="49.53334" lon="3.53958">
        <ele>180.3</ele>
        <time>2016-01-25T13:23:26.298Z</time>
      </trkpt>
      <trkpt lat="49.53341" lon="3.53955">
        <ele>181.2</ele>
        <time>2016-01-25T13:23:34.386Z</time>
      </trkpt>
      <trkpt lat="49.53343" lon="3.53955">
        <ele>181.4</ele>
        <time>2016-01-25T13:23:35.283Z</time>
      </trkpt>
      <trkpt lat="49.5335" lon="3.5395">
        <ele>182.6</ele>
        <time>2016-01-25T13:23:42.371Z</time>
      </trkpt>
      <trkpt lat="49.53351" lon="3.5395">
        <ele>182.7</ele>
        <time>2016-01-25T13:23:43.343Z</time>
      </trkpt>
      <trkpt lat="49.53359" lon="3.53945">
        <ele>183.8</ele>
        <time>2016-01-25T13:23:51.357Z</time>
      </trkpt>
      <trkpt lat="49.53361" lon="3.53945">
        <ele>183.8</ele>
        <time>2016-01-25T13:23:52.347Z</time>
      </trkpt>
      <trkpt lat="49.53368" lon="3.53939">
        <ele>184.6</ele>
        <time>2016-01-25T13:24:00.329Z</time>
      </trkpt>
      <trkpt lat="49.53369" lon="3.53938">
        <ele>184.7</ele>
        <time>2016-01-25T13:24:01.350Z</time>
      </trkpt>
      <trkpt lat="49.53376" lon="3.53931">
        <ele>184.7</ele>
        <time>2016-01-25T13:24:08.381Z</time>
      </trkpt>
      <trkpt lat="49.53377" lon="3.5393">
        <ele>184.8</ele>
        <time>2016-01-25T13:24:09.333Z</time>
      </trkpt>
      <trkpt lat="49.53383" lon="3.53923">
        <ele>186</ele>
        <time>2016-01-25T13:24:17.316Z</time>
      </trkpt>
      <trkpt lat="49.53384" lon="3.53922">
        <ele>186.1</ele>
        <time>2016-01-25T13:24:18.304Z</time>
      </trkpt>
      <trkpt lat="49.53391" lon="3.53914">
        <ele>186.8</ele>
        <time>2016-01-25T13:24:25.392Z</time>
      </trkpt>
      <trkpt lat="49.53392" lon="3.53913">
        <ele>187</ele>
        <time>2016-01-25T13:24:26.379Z</time>
      </trkpt>
      <trkpt lat="49.53397" lon="3.53904">
        <ele>187.9</ele>
        <time>2016-01-25T13:24:33.371Z</time>
      </trkpt>
      <trkpt lat="49.53399" lon="3.53903">
        <ele>187.9</ele>
        <time>2016-01-25T13:24:34.367Z</time>
      </trkpt>
      <trkpt lat="49.53406" lon="3.53896">
        <ele>189</ele>
        <time>2016-01-25T13:24:42.350Z</time>
      </trkpt>
      <trkpt lat="49.53407" lon="3.53896">
        <ele>189.2</ele>
        <time>2016-01-25T13:24:43.335Z</time>
      </trkpt>
      <trkpt lat="49.53413" lon="3.53892">
        <ele>190</ele>
        <time>2016-01-25T13:24:52.328Z</time>
      </trkpt>
      <trkpt lat="49.53413" lon="3.53892">
        <ele>190.1</ele>
        <time>2016-01-25T13:24:53.317Z</time>
      </trkpt>
      <trkpt lat="49.53413" lon="3.53892">
        <ele>190.1</ele>
        <time>2016-01-25T13:26:29.417Z</time>
      </trkpt>
      <trkpt lat="49.53413" lon="3.53894">
        <ele>198.2</ele>
        <time>2016-01-25T13:26:30.309Z</time>
      </trkpt>
      <trkpt lat="49.53413" lon="3.53894">
        <ele>198.2</ele>
        <time>2016-01-25T13:26:30.321Z</time>
      </trkpt>
      <trkpt lat="49.53413" lon="3.53894">
        <ele>198.2</ele>
        <time>2016-01-25T13:26:31.422Z</time>
      </trkpt>
      <trkpt lat="49.53413" lon="3.53894">
        <ele>198.2</ele>
        <time>2016-01-25T13:26:31.441Z</time>
      </trkpt>
      <trkpt lat="49.53412" lon="3.53894">
        <ele>198.3</ele>
        <time>2016-01-25T13:26:32.299Z</time>
      </trkpt>
      <trkpt lat="49.53412" lon="3.53894">
        <ele>198.3</ele>
        <time>2016-01-25T13:26:33.327Z</time>
      </trkpt>
      <trkpt lat="49.53412" lon="3.53894">
        <ele>198.5</ele>
        <time>2016-01-25T13:26:34.308Z</time>
      </trkpt>
      <trkpt lat="49.53411" lon="3.53894">
        <ele>198.5</ele>
        <time>2016-01-25T13:26:49.346Z</time>
      </trkpt>
      <trkpt lat="49.53409" lon="3.53895">
        <ele>198.8</ele>
        <time>2016-01-25T13:26:50.339Z</time>
      </trkpt>
      <trkpt lat="49.53408" lon="3.53896">
        <ele>198.8</ele>
        <time>2016-01-25T13:26:52.371Z</time>
      </trkpt>
      <trkpt lat="49.53408" lon="3.53896">
        <ele>198.7</ele>
        <time>2016-01-25T13:26:53.364Z</time>
      </trkpt>
      <trkpt lat="49.53408" lon="3.53896">
        <ele>198.9</ele>
        <time>2016-01-25T13:28:13.394Z</time>
      </trkpt>
      <trkpt lat="49.53415" lon="3.53893">
        <ele>199.7</ele>
        <time>2016-01-25T13:28:14.388Z</time>
      </trkpt>
      <trkpt lat="49.53422" lon="3.53886">
        <ele>199.9</ele>
        <time>2016-01-25T13:28:24.374Z</time>
      </trkpt>
      <trkpt lat="49.53423" lon="3.53885">
        <ele>200</ele>
        <time>2016-01-25T13:28:25.375Z</time>
      </trkpt>
      <trkpt lat="49.5343" lon="3.53881">
        <ele>200.1</ele>
        <time>2016-01-25T13:28:31.336Z</time>
      </trkpt>
      <trkpt lat="49.53432" lon="3.5388">
        <ele>200</ele>
        <time>2016-01-25T13:28:32.334Z</time>
      </trkpt>
      <trkpt lat="49.53439" lon="3.53877">
        <ele>200.7</ele>
        <time>2016-01-25T13:28:39.301Z</time>
      </trkpt>
      <trkpt lat="49.5344" lon="3.53876">
        <ele>200.8</ele>
        <time>2016-01-25T13:28:40.294Z</time>
      </trkpt>
      <trkpt lat="49.53448" lon="3.5387">
        <ele>200.9</ele>
        <time>2016-01-25T13:28:48.374Z</time>
      </trkpt>
      <trkpt lat="49.53449" lon="3.53869">
        <ele>201</ele>
        <time>2016-01-25T13:28:49.363Z</time>
      </trkpt>
      <trkpt lat="49.53456" lon="3.53862">
        <ele>201.6</ele>
        <time>2016-01-25T13:29:00.369Z</time>
      </trkpt>
      <trkpt lat="49.53457" lon="3.53861">
        <ele>201.6</ele>
        <time>2016-01-25T13:29:01.363Z</time>
      </trkpt>
      <trkpt lat="49.53453" lon="3.5385">
        <ele>201.3</ele>
        <time>2016-01-25T13:29:17.321Z</time>
      </trkpt>
      <trkpt lat="49.53452" lon="3.53849">
        <ele>201.6</ele>
        <time>2016-01-25T13:29:18.315Z</time>
      </trkpt>
      <trkpt lat="49.53444" lon="3.53845">
        <ele>201.7</ele>
        <time>2016-01-25T13:29:27.296Z</time>
      </trkpt>
      <trkpt lat="49.53443" lon="3.53845">
        <ele>201.7</ele>
        <time>2016-01-25T13:29:28.290Z</time>
      </trkpt>
      <trkpt lat="49.53435" lon="3.53846">
        <ele>202</ele>
        <time>2016-01-25T13:29:37.395Z</time>
      </trkpt>
      <trkpt lat="49.53434" lon="3.53846">
        <ele>202</ele>
        <time>2016-01-25T13:29:38.279Z</time>
      </trkpt>
      <trkpt lat="49.53425" lon="3.53847">
        <ele>202.7</ele>
        <time>2016-01-25T13:29:46.359Z</time>
      </trkpt>
      <trkpt lat="49.53424" lon="3.53848">
        <ele>202.7</ele>
        <time>2016-01-25T13:29:47.347Z</time>
      </trkpt>
      <trkpt lat="49.53417" lon="3.5385">
        <ele>202.8</ele>
        <time>2016-01-25T13:29:53.315Z</time>
      </trkpt>
      <trkpt lat="49.53415" lon="3.5385">
        <ele>202.8</ele>
        <time>2016-01-25T13:29:54.314Z</time>
      </trkpt>
      <trkpt lat="49.53407" lon="3.53855">
        <ele>202.3</ele>
        <time>2016-01-25T13:30:00.391Z</time>
      </trkpt>
      <trkpt lat="49.53406" lon="3.53855">
        <ele>202.4</ele>
        <time>2016-01-25T13:30:01.385Z</time>
      </trkpt>
      <trkpt lat="49.53399" lon="3.53859">
        <ele>203.5</ele>
        <time>2016-01-25T13:30:09.377Z</time>
      </trkpt>
      <trkpt lat="49.53397" lon="3.5386">
        <ele>203.6</ele>
        <time>2016-01-25T13:30:10.369Z</time>
      </trkpt>
      <trkpt lat="49.53389" lon="3.53864">
        <ele>203.4</ele>
        <time>2016-01-25T13:30:16.370Z</time>
      </trkpt>
      <trkpt lat="49.53388" lon="3.53864">
        <ele>203.7</ele>
        <time>2016-01-25T13:30:17.361Z</time>
      </trkpt>
      <trkpt lat="49.53379" lon="3.53865">
        <ele>205</ele>
        <time>2016-01-25T13:30:28.369Z</time>
      </trkpt>
      <trkpt lat="49.53378" lon="3.53865">
        <ele>205.3</ele>
        <time>2016-01-25T13:30:29.361Z</time>
      </trkpt>
      <trkpt lat="49.5337" lon="3.53866">
        <ele>206</ele>
        <time>2016-01-25T13:30:38.354Z</time>
      </trkpt>
      <trkpt lat="49.53369" lon="3.53866">
        <ele>206.2</ele>
        <time>2016-01-25T13:30:39.348Z</time>
      </trkpt>
      <trkpt lat="49.5336" lon="3.53862">
        <ele>206.4</ele>
        <time>2016-01-25T13:30:46.336Z</time>
      </trkpt>
      <trkpt lat="49.53359" lon="3.53861">
        <ele>206.4</ele>
        <time>2016-01-25T13:30:47.322Z</time>
      </trkpt>
      <trkpt lat="49.53354" lon="3.53851">
        <ele>206.1</ele>
        <time>2016-01-25T13:30:54.320Z</time>
      </trkpt>
      <trkpt lat="49.53353" lon="3.53849">
        <ele>206.2</ele>
        <time>2016-01-25T13:30:55.326Z</time>
      </trkpt>
      <trkpt lat="49.53351" lon="3.53838">
        <ele>207.1</ele>
        <time>2016-01-25T13:31:03.313Z</time>
      </trkpt>
      <trkpt lat="49.53351" lon="3.53836">
        <ele>207.2</ele>
        <time>2016-01-25T13:31:04.307Z</time>
      </trkpt>
      <trkpt lat="49.53352" lon="3.53823">
        <ele>208</ele>
        <time>2016-01-25T13:31:11.385Z</time>
      </trkpt>
      <trkpt lat="49.53352" lon="3.53821">
        <ele>208.1</ele>
        <time>2016-01-25T13:31:12.379Z</time>
      </trkpt>
      <trkpt lat="49.53353" lon="3.53809">
        <ele>207</ele>
        <time>2016-01-25T13:31:20.352Z</time>
      </trkpt>
      <trkpt lat="49.53354" lon="3.53808">
        <ele>207</ele>
        <time>2016-01-25T13:31:21.357Z</time>
      </trkpt>
      <trkpt lat="49.53355" lon="3.53794">
        <ele>207.2</ele>
        <time>2016-01-25T13:31:29.339Z</time>
      </trkpt>
      <trkpt lat="49.53355" lon="3.53793">
        <ele>207.2</ele>
        <time>2016-01-25T13:31:30.334Z</time>
      </trkpt>
      <trkpt lat="49.53357" lon="3.5378">
        <ele>207.8</ele>
        <time>2016-01-25T13:31:39.364Z</time>
      </trkpt>
      <trkpt lat="49.53358" lon="3.53779">
        <ele>207.7</ele>
        <time>2016-01-25T13:31:40.355Z</time>
      </trkpt>
      <trkpt lat="49.53361" lon="3.53766">
        <ele>207.4</ele>
        <time>2016-01-25T13:31:49.350Z</time>
      </trkpt>
      <trkpt lat="49.53362" lon="3.53764">
        <ele>207.5</ele>
        <time>2016-01-25T13:31:50.342Z</time>
      </trkpt>
      <trkpt lat="49.53365" lon="3.53753">
        <ele>208.2</ele>
        <time>2016-01-25T13:31:57.339Z</time>
      </trkpt>
      <trkpt lat="49.53366" lon="3.53751">
        <ele>208.3</ele>
        <time>2016-01-25T13:31:58.314Z</time>
      </trkpt>
      <trkpt lat="49.5337" lon="3.53739">
        <ele>208.8</ele>
        <time>2016-01-25T13:32:06.319Z</time>
      </trkpt>
      <trkpt lat="49.5337" lon="3.53738">
        <ele>208.9</ele>
        <time>2016-01-25T13:32:07.342Z</time>
      </trkpt>
      <trkpt lat="49.53374" lon="3.53726">
        <ele>210.5</ele>
        <time>2016-01-25T13:32:14.319Z</time>
      </trkpt>
      <trkpt lat="49.53375" lon="3.53725">
        <ele>210.2</ele>
        <time>2016-01-25T13:32:15.300Z</time>
      </trkpt>
      <trkpt lat="49.53379" lon="3.53714">
        <ele>210.9</ele>
        <time>2016-01-25T13:32:23.408Z</time>
      </trkpt>
      <trkpt lat="49.5338" lon="3.53713">
        <ele>210.8</ele>
        <time>2016-01-25T13:32:24.297Z</time>
      </trkpt>
      <trkpt lat="49.53386" lon="3.53704">
        <ele>211.1</ele>
        <time>2016-01-25T13:32:32.304Z</time>
      </trkpt>
      <trkpt lat="49.53387" lon="3.53703">
        <ele>211</ele>
        <time>2016-01-25T13:32:33.298Z</time>
      </trkpt>
      <trkpt lat="49.53394" lon="3.53694">
        <ele>210.9</ele>
        <time>2016-01-25T13:32:43.425Z</time>
      </trkpt>
      <trkpt lat="49.53395" lon="3.53693">
        <ele>210.7</ele>
        <time>2016-01-25T13:32:44.300Z</time>
      </trkpt>
      <trkpt lat="49.53402" lon="3.53687">
        <ele>210.7</ele>
        <time>2016-01-25T13:32:52.384Z</time>
      </trkpt>
      <trkpt lat="49.53403" lon="3.53686">
        <ele>210.6</ele>
        <time>2016-01-25T13:32:53.379Z</time>
      </trkpt>
      <trkpt lat="49.5341" lon="3.53677">
        <ele>210.8</ele>
        <time>2016-01-25T13:33:01.377Z</time>
      </trkpt>
      <trkpt lat="49.5341" lon="3.53676">
        <ele>210.8</ele>
        <time>2016-01-25T13:33:02.365Z</time>
      </trkpt>
      <trkpt lat="49.53417" lon="3.53668">
        <ele>211.6</ele>
        <time>2016-01-25T13:33:10.332Z</time>
      </trkpt>
      <trkpt lat="49.53417" lon="3.53667">
        <ele>211.5</ele>
        <time>2016-01-25T13:33:11.322Z</time>
      </trkpt>
      <trkpt lat="49.53425" lon="3.53661">
        <ele>211.8</ele>
        <time>2016-01-25T13:33:17.398Z</time>
      </trkpt>
      <trkpt lat="49.53426" lon="3.5366">
        <ele>211.9</ele>
        <time>2016-01-25T13:33:18.382Z</time>
      </trkpt>
      <trkpt lat="49.53433" lon="3.53653">
        <ele>212.5</ele>
        <time>2016-01-25T13:33:26.368Z</time>
      </trkpt>
      <trkpt lat="49.53434" lon="3.53652">
        <ele>212.5</ele>
        <time>2016-01-25T13:33:27.358Z</time>
      </trkpt>
      <trkpt lat="49.53441" lon="3.53645">
        <ele>212.1</ele>
        <time>2016-01-25T13:33:34.507Z</time>
      </trkpt>
      <trkpt lat="49.53442" lon="3.53644">
        <ele>212.1</ele>
        <time>2016-01-25T13:33:35.321Z</time>
      </trkpt>
      <trkpt lat="49.53448" lon="3.53638">
        <ele>211.9</ele>
        <time>2016-01-25T13:33:42.407Z</time>
      </trkpt>
      <trkpt lat="49.5345" lon="3.53637">
        <ele>211.8</ele>
        <time>2016-01-25T13:33:43.396Z</time>
      </trkpt>
      <trkpt lat="49.53458" lon="3.5363">
        <ele>211.8</ele>
        <time>2016-01-25T13:33:51.397Z</time>
      </trkpt>
      <trkpt lat="49.53459" lon="3.53629">
        <ele>211.9</ele>
        <time>2016-01-25T13:33:52.388Z</time>
      </trkpt>
      <trkpt lat="49.53466" lon="3.53623">
        <ele>212.9</ele>
        <time>2016-01-25T13:34:00.414Z</time>
      </trkpt>
      <trkpt lat="49.53467" lon="3.53622">
        <ele>213.1</ele>
        <time>2016-01-25T13:34:01.394Z</time>
      </trkpt>
      <trkpt lat="49.53474" lon="3.53617">
        <ele>214.5</ele>
        <time>2016-01-25T13:34:08.376Z</time>
      </trkpt>
      <trkpt lat="49.53475" lon="3.53616">
        <ele>214.8</ele>
        <time>2016-01-25T13:34:09.365Z</time>
      </trkpt>
      <trkpt lat="49.53483" lon="3.53611">
        <ele>215.5</ele>
        <time>2016-01-25T13:34:17.366Z</time>
      </trkpt>
      <trkpt lat="49.53484" lon="3.5361">
        <ele>215.5</ele>
        <time>2016-01-25T13:34:18.373Z</time>
      </trkpt>
      <trkpt lat="49.53492" lon="3.53604">
        <ele>215.9</ele>
        <time>2016-01-25T13:34:26.358Z</time>
      </trkpt>
      <trkpt lat="49.53493" lon="3.53603">
        <ele>216.1</ele>
        <time>2016-01-25T13:34:27.349Z</time>
      </trkpt>
      <trkpt lat="49.53501" lon="3.53599">
        <ele>216.5</ele>
        <time>2016-01-25T13:34:35.383Z</time>
      </trkpt>
      <trkpt lat="49.53502" lon="3.53598">
        <ele>216.7</ele>
        <time>2016-01-25T13:34:36.375Z</time>
      </trkpt>
      <trkpt lat="49.5351" lon="3.53593">
        <ele>216.4</ele>
        <time>2016-01-25T13:34:44.406Z</time>
      </trkpt>
      <trkpt lat="49.53511" lon="3.53593">
        <ele>216.5</ele>
        <time>2016-01-25T13:34:45.362Z</time>
      </trkpt>
      <trkpt lat="49.53519" lon="3.53588">
        <ele>216.7</ele>
        <time>2016-01-25T13:34:54.586Z</time>
      </trkpt>
      <trkpt lat="49.53521" lon="3.53587">
        <ele>216.7</ele>
        <time>2016-01-25T13:34:55.386Z</time>
      </trkpt>
      <trkpt lat="49.53529" lon="3.53582">
        <ele>216.5</ele>
        <time>2016-01-25T13:35:03.383Z</time>
      </trkpt>
      <trkpt lat="49.5353" lon="3.53581">
        <ele>216.4</ele>
        <time>2016-01-25T13:35:04.327Z</time>
      </trkpt>
      <trkpt lat="49.53538" lon="3.53577">
        <ele>216.3</ele>
        <time>2016-01-25T13:35:12.319Z</time>
      </trkpt>
      <trkpt lat="49.53539" lon="3.53576">
        <ele>216.3</ele>
        <time>2016-01-25T13:35:13.407Z</time>
      </trkpt>
      <trkpt lat="49.53547" lon="3.53572">
        <ele>217</ele>
        <time>2016-01-25T13:35:21.391Z</time>
      </trkpt>
      <trkpt lat="49.53548" lon="3.53571">
        <ele>217.2</ele>
        <time>2016-01-25T13:35:22.381Z</time>
      </trkpt>
      <trkpt lat="49.53556" lon="3.53566">
        <ele>217.7</ele>
        <time>2016-01-25T13:35:30.416Z</time>
      </trkpt>
      <trkpt lat="49.53557" lon="3.53565">
        <ele>217.8</ele>
        <time>2016-01-25T13:35:31.402Z</time>
      </trkpt>
      <trkpt lat="49.53564" lon="3.5356">
        <ele>218.5</ele>
        <time>2016-01-25T13:35:39.372Z</time>
      </trkpt>
      <trkpt lat="49.53565" lon="3.5356">
        <ele>218.7</ele>
        <time>2016-01-25T13:35:40.360Z</time>
      </trkpt>
      <trkpt lat="49.53573" lon="3.53554">
        <ele>219.9</ele>
        <time>2016-01-25T13:35:48.560Z</time>
      </trkpt>
      <trkpt lat="49.53574" lon="3.53553">
        <ele>220.1</ele>
        <time>2016-01-25T13:35:49.342Z</time>
      </trkpt>
      <trkpt lat="49.53582" lon="3.53548">
        <ele>221</ele>
        <time>2016-01-25T13:35:57.381Z</time>
      </trkpt>
      <trkpt lat="49.53584" lon="3.53547">
        <ele>221.2</ele>
        <time>2016-01-25T13:35:58.362Z</time>
      </trkpt>
      <trkpt lat="49.53591" lon="3.53541">
        <ele>221.7</ele>
        <time>2016-01-25T13:36:05.343Z</time>
      </trkpt>
      <trkpt lat="49.53592" lon="3.5354">
        <ele>221.9</ele>
        <time>2016-01-25T13:36:06.320Z</time>
      </trkpt>
      <trkpt lat="49.536" lon="3.53533">
        <ele>222.3</ele>
        <time>2016-01-25T13:36:14.313Z</time>
      </trkpt>
      <trkpt lat="49.53601" lon="3.53532">
        <ele>222.4</ele>
        <time>2016-01-25T13:36:15.309Z</time>
      </trkpt>
      <trkpt lat="49.53609" lon="3.53526">
        <ele>222.8</ele>
        <time>2016-01-25T13:36:23.403Z</time>
      </trkpt>
      <trkpt lat="49.5361" lon="3.53525">
        <ele>222.8</ele>
        <time>2016-01-25T13:36:24.386Z</time>
      </trkpt>
      <trkpt lat="49.53617" lon="3.53518">
        <ele>223.2</ele>
        <time>2016-01-25T13:36:32.391Z</time>
      </trkpt>
      <trkpt lat="49.53618" lon="3.53518">
        <ele>223.2</ele>
        <time>2016-01-25T13:36:33.292Z</time>
      </trkpt>
      <trkpt lat="49.53624" lon="3.53511">
        <ele>223.8</ele>
        <time>2016-01-25T13:36:41.387Z</time>
      </trkpt>
      <trkpt lat="49.53625" lon="3.5351">
        <ele>223.9</ele>
        <time>2016-01-25T13:36:42.375Z</time>
      </trkpt>
      <trkpt lat="49.53632" lon="3.53503">
        <ele>224.6</ele>
        <time>2016-01-25T13:36:50.360Z</time>
      </trkpt>
      <trkpt lat="49.53633" lon="3.53502">
        <ele>224.7</ele>
        <time>2016-01-25T13:36:51.344Z</time>
      </trkpt>
      <trkpt lat="49.5364" lon="3.53495">
        <ele>225.4</ele>
        <time>2016-01-25T13:36:58.327Z</time>
      </trkpt>
      <trkpt lat="49.53641" lon="3.53494">
        <ele>225.3</ele>
        <time>2016-01-25T13:36:59.318Z</time>
      </trkpt>
      <trkpt lat="49.53648" lon="3.53488">
        <ele>225.5</ele>
        <time>2016-01-25T13:37:06.426Z</time>
      </trkpt>
      <trkpt lat="49.53649" lon="3.53487">
        <ele>225.3</ele>
        <time>2016-01-25T13:37:07.399Z</time>
      </trkpt>
      <trkpt lat="49.53656" lon="3.53481">
        <ele>225.1</ele>
        <time>2016-01-25T13:37:14.366Z</time>
      </trkpt>
      <trkpt lat="49.53657" lon="3.53479">
        <ele>225.1</ele>
        <time>2016-01-25T13:37:15.356Z</time>
      </trkpt>
      <trkpt lat="49.53664" lon="3.53472">
        <ele>225</ele>
        <time>2016-01-25T13:37:22.340Z</time>
      </trkpt>
      <trkpt lat="49.53665" lon="3.53471">
        <ele>224.9</ele>
        <time>2016-01-25T13:37:23.323Z</time>
      </trkpt>
      <trkpt lat="49.53671" lon="3.53465">
        <ele>224.7</ele>
        <time>2016-01-25T13:37:30.317Z</time>
      </trkpt>
      <trkpt lat="49.53672" lon="3.53464">
        <ele>224.6</ele>
        <time>2016-01-25T13:37:31.343Z</time>
      </trkpt>
      <trkpt lat="49.53679" lon="3.53457">
        <ele>225</ele>
        <time>2016-01-25T13:37:38.320Z</time>
      </trkpt>
      <trkpt lat="49.5368" lon="3.53455">
        <ele>225.2</ele>
        <time>2016-01-25T13:37:39.300Z</time>
      </trkpt>
      <trkpt lat="49.53687" lon="3.53449">
        <ele>225</ele>
        <time>2016-01-25T13:37:46.371Z</time>
      </trkpt>
      <trkpt lat="49.53688" lon="3.53448">
        <ele>224.9</ele>
        <time>2016-01-25T13:37:47.373Z</time>
      </trkpt>
      <trkpt lat="49.53695" lon="3.53441">
        <ele>225</ele>
        <time>2016-01-25T13:37:54.337Z</time>
      </trkpt>
      <trkpt lat="49.53696" lon="3.5344">
        <ele>225</ele>
        <time>2016-01-25T13:37:55.338Z</time>
      </trkpt>
      <trkpt lat="49.53703" lon="3.53433">
        <ele>224.6</ele>
        <time>2016-01-25T13:38:02.312Z</time>
      </trkpt>
      <trkpt lat="49.53704" lon="3.53432">
        <ele>224.6</ele>
        <time>2016-01-25T13:38:03.303Z</time>
      </trkpt>
      <trkpt lat="49.53711" lon="3.53425">
        <ele>224.7</ele>
        <time>2016-01-25T13:38:10.378Z</time>
      </trkpt>
      <trkpt lat="49.53712" lon="3.53424">
        <ele>224.8</ele>
        <time>2016-01-25T13:38:11.365Z</time>
      </trkpt>
      <trkpt lat="49.5372" lon="3.53417">
        <ele>225.1</ele>
        <time>2016-01-25T13:38:18.343Z</time>
      </trkpt>
      <trkpt lat="49.53721" lon="3.53416">
        <ele>225.1</ele>
        <time>2016-01-25T13:38:19.338Z</time>
      </trkpt>
      <trkpt lat="49.53728" lon="3.53409">
        <ele>224.8</ele>
        <time>2016-01-25T13:38:26.378Z</time>
      </trkpt>
      <trkpt lat="49.53728" lon="3.53409">
        <ele>224.8</ele>
        <time>2016-01-25T13:38:27.375Z</time>
      </trkpt>
      <trkpt lat="49.53735" lon="3.53402">
        <ele>224.8</ele>
        <time>2016-01-25T13:38:35.377Z</time>
      </trkpt>
      <trkpt lat="49.53736" lon="3.53401">
        <ele>224.8</ele>
        <time>2016-01-25T13:38:36.372Z</time>
      </trkpt>
      <trkpt lat="49.53744" lon="3.53394">
        <ele>224.8</ele>
        <time>2016-01-25T13:38:44.361Z</time>
      </trkpt>
      <trkpt lat="49.53745" lon="3.53393">
        <ele>224.8</ele>
        <time>2016-01-25T13:38:45.355Z</time>
      </trkpt>
      <trkpt lat="49.53752" lon="3.53387">
        <ele>225</ele>
        <time>2016-01-25T13:38:52.330Z</time>
      </trkpt>
      <trkpt lat="49.53753" lon="3.53386">
        <ele>225</ele>
        <time>2016-01-25T13:38:53.316Z</time>
      </trkpt>
      <trkpt lat="49.53761" lon="3.53379">
        <ele>225</ele>
        <time>2016-01-25T13:39:00.316Z</time>
      </trkpt>
      <trkpt lat="49.53762" lon="3.53379">
        <ele>225</ele>
        <time>2016-01-25T13:39:01.412Z</time>
      </trkpt>
      <trkpt lat="49.53769" lon="3.53375">
        <ele>223.8</ele>
        <time>2016-01-25T13:39:08.356Z</time>
      </trkpt>
      <trkpt lat="49.5377" lon="3.53374">
        <ele>223.7</ele>
        <time>2016-01-25T13:39:09.360Z</time>
      </trkpt>
      <trkpt lat="49.53778" lon="3.53369">
        <ele>223.6</ele>
        <time>2016-01-25T13:39:16.345Z</time>
      </trkpt>
      <trkpt lat="49.53779" lon="3.53369">
        <ele>223.5</ele>
        <time>2016-01-25T13:39:17.328Z</time>
      </trkpt>
      <trkpt lat="49.53787" lon="3.53366">
        <ele>223.2</ele>
        <time>2016-01-25T13:39:28.382Z</time>
      </trkpt>
      <trkpt lat="49.53788" lon="3.53365">
        <ele>223.2</ele>
        <time>2016-01-25T13:39:29.368Z</time>
      </trkpt>
      <trkpt lat="49.5379" lon="3.53363">
        <ele>223.2</ele>
        <time>2016-01-25T13:39:34.321Z</time>
      </trkpt>
      <trkpt lat="49.53791" lon="3.53363">
        <ele>223.4</ele>
        <time>2016-01-25T13:39:35.313Z</time>
      </trkpt>
      <trkpt lat="49.53791" lon="3.53363">
        <ele>223.4</ele>
        <time>2016-01-25T13:39:35.332Z</time>
      </trkpt>
      <trkpt lat="49.53791" lon="3.53362">
        <ele>223.4</ele>
        <time>2016-01-25T13:39:36.324Z</time>
      </trkpt>
      <trkpt lat="49.53794" lon="3.5336">
        <ele>223.6</ele>
        <time>2016-01-25T13:39:40.392Z</time>
      </trkpt>
      <trkpt lat="49.53795" lon="3.5336">
        <ele>223.6</ele>
        <time>2016-01-25T13:39:41.371Z</time>
      </trkpt>
      <trkpt lat="49.53796" lon="3.53359">
        <ele>223.6</ele>
        <time>2016-01-25T13:39:47.332Z</time>
      </trkpt>
      <trkpt lat="49.53799" lon="3.53358">
        <ele>223.8</ele>
        <time>2016-01-25T13:39:48.327Z</time>
      </trkpt>
      <trkpt lat="49.538" lon="3.53356">
        <ele>223.9</ele>
        <time>2016-01-25T13:39:50.366Z</time>
      </trkpt>
      <trkpt lat="49.53801" lon="3.53356">
        <ele>223.9</ele>
        <time>2016-01-25T13:39:51.355Z</time>
      </trkpt>
      <trkpt lat="49.53802" lon="3.53355">
        <ele>223.9</ele>
        <time>2016-01-25T13:39:52.385Z</time>
      </trkpt>
      <trkpt lat="49.53802" lon="3.53355">
        <ele>224</ele>
        <time>2016-01-25T13:39:53.377Z</time>
      </trkpt>
      <trkpt lat="49.53803" lon="3.53353">
        <ele>223.8</ele>
        <time>2016-01-25T13:39:55.345Z</time>
      </trkpt>
      <trkpt lat="49.53804" lon="3.53352">
        <ele>224</ele>
        <time>2016-01-25T13:39:56.344Z</time>
      </trkpt>
      <trkpt lat="49.53805" lon="3.53352">
        <ele>224.1</ele>
        <time>2016-01-25T13:39:57.377Z</time>
      </trkpt>
      <trkpt lat="49.53806" lon="3.53351">
        <ele>224</ele>
        <time>2016-01-25T13:39:58.363Z</time>
      </trkpt>
      <trkpt lat="49.53813" lon="3.53347">
        <ele>224.5</ele>
        <time>2016-01-25T13:40:04.365Z</time>
      </trkpt>
      <trkpt lat="49.53815" lon="3.53347">
        <ele>224.4</ele>
        <time>2016-01-25T13:40:05.353Z</time>
      </trkpt>
      <trkpt lat="49.53819" lon="3.53346">
        <ele>224.7</ele>
        <time>2016-01-25T13:40:12.336Z</time>
      </trkpt>
      <trkpt lat="49.53824" lon="3.53345">
        <ele>224.6</ele>
        <time>2016-01-25T13:40:13.326Z</time>
      </trkpt>
      <trkpt lat="49.5383" lon="3.53339">
        <ele>224.1</ele>
        <time>2016-01-25T13:40:19.408Z</time>
      </trkpt>
      <trkpt lat="49.5383" lon="3.53338">
        <ele>224</ele>
        <time>2016-01-25T13:40:20.288Z</time>
      </trkpt>
      <trkpt lat="49.5383" lon="3.53338">
        <ele>224</ele>
        <time>2016-01-25T13:40:20.305Z</time>
      </trkpt>
      <trkpt lat="49.53831" lon="3.53338">
        <ele>224</ele>
        <time>2016-01-25T13:40:21.302Z</time>
      </trkpt>
      <trkpt lat="49.53832" lon="3.53337">
        <ele>224</ele>
        <time>2016-01-25T13:40:22.327Z</time>
      </trkpt>
      <trkpt lat="49.53832" lon="3.53336">
        <ele>224.1</ele>
        <time>2016-01-25T13:40:23.316Z</time>
      </trkpt>
      <trkpt lat="49.53832" lon="3.53336">
        <ele>224.1</ele>
        <time>2016-01-25T13:40:23.331Z</time>
      </trkpt>
      <trkpt lat="49.53833" lon="3.53335">
        <ele>224.1</ele>
        <time>2016-01-25T13:40:24.329Z</time>
      </trkpt>
      <trkpt lat="49.53836" lon="3.53324">
        <ele>224.4</ele>
        <time>2016-01-25T13:40:33.359Z</time>
      </trkpt>
      <trkpt lat="49.53837" lon="3.53323">
        <ele>224.4</ele>
        <time>2016-01-25T13:40:34.363Z</time>
      </trkpt>
      <trkpt lat="49.53837" lon="3.53323">
        <ele>224.4</ele>
        <time>2016-01-25T13:40:34.402Z</time>
      </trkpt>
      <trkpt lat="49.53838" lon="3.53323">
        <ele>224.3</ele>
        <time>2016-01-25T13:40:35.375Z</time>
      </trkpt>
      <trkpt lat="49.53846" lon="3.53321">
        <ele>224.4</ele>
        <time>2016-01-25T13:40:40.348Z</time>
      </trkpt>
      <trkpt lat="49.53848" lon="3.53321">
        <ele>224.5</ele>
        <time>2016-01-25T13:40:41.312Z</time>
      </trkpt>
      <trkpt lat="49.53856" lon="3.53318">
        <ele>224.8</ele>
        <time>2016-01-25T13:40:45.367Z</time>
      </trkpt>
      <trkpt lat="49.53857" lon="3.53317">
        <ele>224.9</ele>
        <time>2016-01-25T13:40:46.351Z</time>
      </trkpt>
      <trkpt lat="49.53857" lon="3.53317">
        <ele>224.9</ele>
        <time>2016-01-25T13:40:46.370Z</time>
      </trkpt>
      <trkpt lat="49.53859" lon="3.53317">
        <ele>224.8</ele>
        <time>2016-01-25T13:40:47.363Z</time>
      </trkpt>
      <trkpt lat="49.53859" lon="3.53317">
        <ele>224.8</ele>
        <time>2016-01-25T13:40:49.403Z</time>
      </trkpt>
      <trkpt lat="49.53862" lon="3.53316">
        <ele>224.7</ele>
        <time>2016-01-25T13:40:50.291Z</time>
      </trkpt>
      <trkpt lat="49.5387" lon="3.53313">
        <ele>224.7</ele>
        <time>2016-01-25T13:40:59.387Z</time>
      </trkpt>
      <trkpt lat="49.53872" lon="3.53313">
        <ele>224.7</ele>
        <time>2016-01-25T13:41:00.383Z</time>
      </trkpt>
      <trkpt lat="49.53877" lon="3.53309">
        <ele>224.1</ele>
        <time>2016-01-25T13:41:06.328Z</time>
      </trkpt>
      <trkpt lat="49.53877" lon="3.53309">
        <ele>224</ele>
        <time>2016-01-25T13:41:07.325Z</time>
      </trkpt>
      <trkpt lat="49.53877" lon="3.53309">
        <ele>224</ele>
        <time>2016-01-25T13:41:07.345Z</time>
      </trkpt>
      <trkpt lat="49.53878" lon="3.5331">
        <ele>223.9</ele>
        <time>2016-01-25T13:41:08.332Z</time>
      </trkpt>
      <trkpt lat="49.53878" lon="3.5331">
        <ele>223.9</ele>
        <time>2016-01-25T13:41:08.347Z</time>
      </trkpt>
      <trkpt lat="49.53878" lon="3.5331">
        <ele>223.8</ele>
        <time>2016-01-25T13:41:09.341Z</time>
      </trkpt>
      <trkpt lat="49.53878" lon="3.5331">
        <ele>223.8</ele>
        <time>2016-01-25T13:41:09.361Z</time>
      </trkpt>
      <trkpt lat="49.5388" lon="3.5331">
        <ele>223.9</ele>
        <time>2016-01-25T13:41:10.355Z</time>
      </trkpt>
      <trkpt lat="49.53888" lon="3.53312">
        <ele>224.2</ele>
        <time>2016-01-25T13:41:17.330Z</time>
      </trkpt>
      <trkpt lat="49.53889" lon="3.53312">
        <ele>224.3</ele>
        <time>2016-01-25T13:41:18.321Z</time>
      </trkpt>
      <trkpt lat="49.53896" lon="3.53316">
        <ele>224.2</ele>
        <time>2016-01-25T13:41:23.384Z</time>
      </trkpt>
      <trkpt lat="49.53897" lon="3.53317">
        <ele>224.2</ele>
        <time>2016-01-25T13:41:24.378Z</time>
      </trkpt>
      <trkpt lat="49.53904" lon="3.53322">
        <ele>223.1</ele>
        <time>2016-01-25T13:41:29.356Z</time>
      </trkpt>
      <trkpt lat="49.53905" lon="3.53322">
        <ele>223.2</ele>
        <time>2016-01-25T13:41:30.331Z</time>
      </trkpt>
      <trkpt lat="49.53907" lon="3.53324">
        <ele>223.1</ele>
        <time>2016-01-25T13:41:32.367Z</time>
      </trkpt>
      <trkpt lat="49.53908" lon="3.53324">
        <ele>223.1</ele>
        <time>2016-01-25T13:41:33.363Z</time>
      </trkpt>
      <trkpt lat="49.53908" lon="3.53324">
        <ele>223.1</ele>
        <time>2016-01-25T13:41:33.382Z</time>
      </trkpt>
      <trkpt lat="49.53909" lon="3.53324">
        <ele>223.2</ele>
        <time>2016-01-25T13:41:34.381Z</time>
      </trkpt>
      <trkpt lat="49.53916" lon="3.53328">
        <ele>222.7</ele>
        <time>2016-01-25T13:41:41.368Z</time>
      </trkpt>
      <trkpt lat="49.53917" lon="3.53329">
        <ele>222.6</ele>
        <time>2016-01-25T13:41:42.358Z</time>
      </trkpt>
      <trkpt lat="49.53917" lon="3.53329">
        <ele>222.6</ele>
        <time>2016-01-25T13:41:42.376Z</time>
      </trkpt>
      <trkpt lat="49.53918" lon="3.53329">
        <ele>222.7</ele>
        <time>2016-01-25T13:41:43.371Z</time>
      </trkpt>
      <trkpt lat="49.53927" lon="3.53329">
        <ele>222.2</ele>
        <time>2016-01-25T13:41:53.315Z</time>
      </trkpt>
      <trkpt lat="49.53927" lon="3.53329">
        <ele>222.4</ele>
        <time>2016-01-25T13:41:54.304Z</time>
      </trkpt>
      <trkpt lat="49.53927" lon="3.53329">
        <ele>222.4</ele>
        <time>2016-01-25T13:41:54.327Z</time>
      </trkpt>
      <trkpt lat="49.53928" lon="3.53328">
        <ele>222.7</ele>
        <time>2016-01-25T13:41:55.342Z</time>
      </trkpt>
      <trkpt lat="49.53929" lon="3.53327">
        <ele>222.7</ele>
        <time>2016-01-25T13:41:56.332Z</time>
      </trkpt>
      <trkpt lat="49.53938" lon="3.53326">
        <ele>222</ele>
        <time>2016-01-25T13:42:02.307Z</time>
      </trkpt>
      <trkpt lat="49.53939" lon="3.53325">
        <ele>222</ele>
        <time>2016-01-25T13:42:03.291Z</time>
      </trkpt>
      <trkpt lat="49.53945" lon="3.53323">
        <ele>221.8</ele>
        <time>2016-01-25T13:42:09.370Z</time>
      </trkpt>
      <trkpt lat="49.53947" lon="3.53322">
        <ele>221.5</ele>
        <time>2016-01-25T13:42:10.352Z</time>
      </trkpt>
      <trkpt lat="49.53947" lon="3.53322">
        <ele>221.5</ele>
        <time>2016-01-25T13:42:10.361Z</time>
      </trkpt>
      <trkpt lat="49.53948" lon="3.53322">
        <ele>221.5</ele>
        <time>2016-01-25T13:42:11.363Z</time>
      </trkpt>
      <trkpt lat="49.53954" lon="3.53316">
        <ele>221.9</ele>
        <time>2016-01-25T13:42:18.339Z</time>
      </trkpt>
      <trkpt lat="49.53956" lon="3.53315">
        <ele>221.5</ele>
        <time>2016-01-25T13:42:19.328Z</time>
      </trkpt>
      <trkpt lat="49.53957" lon="3.53314">
        <ele>221.3</ele>
        <time>2016-01-25T13:42:20.358Z</time>
      </trkpt>
      <trkpt lat="49.53957" lon="3.53314">
        <ele>221.4</ele>
        <time>2016-01-25T13:42:21.339Z</time>
      </trkpt>
      <trkpt lat="49.53958" lon="3.53313">
        <ele>221.7</ele>
        <time>2016-01-25T13:42:27.320Z</time>
      </trkpt>
      <trkpt lat="49.53958" lon="3.53311">
        <ele>222.2</ele>
        <time>2016-01-25T13:42:28.301Z</time>
      </trkpt>
      <trkpt lat="49.53965" lon="3.53307">
        <ele>221.8</ele>
        <time>2016-01-25T13:42:37.408Z</time>
      </trkpt>
      <trkpt lat="49.53965" lon="3.53307">
        <ele>222.1</ele>
        <time>2016-01-25T13:42:38.289Z</time>
      </trkpt>
      <trkpt lat="49.53965" lon="3.53306">
        <ele>222.3</ele>
        <time>2016-01-25T13:42:41.370Z</time>
      </trkpt>
      <trkpt lat="49.53964" lon="3.53307">
        <ele>222.8</ele>
        <time>2016-01-25T13:42:42.334Z</time>
      </trkpt>
      <trkpt lat="49.53966" lon="3.53312">
        <ele>224.4</ele>
        <time>2016-01-25T13:43:11.346Z</time>
      </trkpt>
      <trkpt lat="49.53966" lon="3.53312">
        <ele>224.5</ele>
        <time>2016-01-25T13:43:12.335Z</time>
      </trkpt>
      <trkpt lat="49.53966" lon="3.53312">
        <ele>224.6</ele>
        <time>2016-01-25T13:43:19.342Z</time>
      </trkpt>
      <trkpt lat="49.53967" lon="3.53313">
        <ele>224.8</ele>
        <time>2016-01-25T13:43:20.326Z</time>
      </trkpt>
      <trkpt lat="49.53973" lon="3.53303">
        <ele>223.2</ele>
        <time>2016-01-25T13:43:33.376Z</time>
      </trkpt>
      <trkpt lat="49.53975" lon="3.53302">
        <ele>222.8</ele>
        <time>2016-01-25T13:43:34.355Z</time>
      </trkpt>
      <trkpt lat="49.5398" lon="3.5329">
        <ele>222.1</ele>
        <time>2016-01-25T13:43:44.359Z</time>
      </trkpt>
      <trkpt lat="49.5398" lon="3.53289">
        <ele>222.2</ele>
        <time>2016-01-25T13:43:45.343Z</time>
      </trkpt>
      <trkpt lat="49.53981" lon="3.53276">
        <ele>222.7</ele>
        <time>2016-01-25T13:43:55.402Z</time>
      </trkpt>
      <trkpt lat="49.53981" lon="3.53275">
        <ele>222.8</ele>
        <time>2016-01-25T13:43:56.287Z</time>
      </trkpt>
      <trkpt lat="49.53983" lon="3.53263">
        <ele>222.3</ele>
        <time>2016-01-25T13:44:02.368Z</time>
      </trkpt>
      <trkpt lat="49.53983" lon="3.53261">
        <ele>222.4</ele>
        <time>2016-01-25T13:44:03.367Z</time>
      </trkpt>
      <trkpt lat="49.53986" lon="3.53248">
        <ele>223.1</ele>
        <time>2016-01-25T13:44:11.368Z</time>
      </trkpt>
      <trkpt lat="49.53987" lon="3.53247">
        <ele>223.1</ele>
        <time>2016-01-25T13:44:12.355Z</time>
      </trkpt>
      <trkpt lat="49.53989" lon="3.53234">
        <ele>224</ele>
        <time>2016-01-25T13:44:23.383Z</time>
      </trkpt>
      <trkpt lat="49.53989" lon="3.53233">
        <ele>224</ele>
        <time>2016-01-25T13:44:24.379Z</time>
      </trkpt>
      <trkpt lat="49.53992" lon="3.53222">
        <ele>223.8</ele>
        <time>2016-01-25T13:44:40.326Z</time>
      </trkpt>
      <trkpt lat="49.53994" lon="3.53218">
        <ele>224.3</ele>
        <time>2016-01-25T13:44:41.316Z</time>
      </trkpt>
      <trkpt lat="49.53998" lon="3.53209">
        <ele>223.8</ele>
        <time>2016-01-25T13:44:46.371Z</time>
      </trkpt>
      <trkpt lat="49.54" lon="3.53207">
        <ele>224.3</ele>
        <time>2016-01-25T13:44:47.364Z</time>
      </trkpt>
      <trkpt lat="49.54004" lon="3.53196">
        <ele>224.8</ele>
        <time>2016-01-25T13:44:53.322Z</time>
      </trkpt>
      <trkpt lat="49.54004" lon="3.53195">
        <ele>224.8</ele>
        <time>2016-01-25T13:44:54.315Z</time>
      </trkpt>
      <trkpt lat="49.54004" lon="3.53195">
        <ele>224.8</ele>
        <time>2016-01-25T13:44:54.334Z</time>
      </trkpt>
      <trkpt lat="49.54004" lon="3.53194">
        <ele>224.9</ele>
        <time>2016-01-25T13:44:55.327Z</time>
      </trkpt>
      <trkpt lat="49.54006" lon="3.53181">
        <ele>224.4</ele>
        <time>2016-01-25T13:45:03.335Z</time>
      </trkpt>
      <trkpt lat="49.54005" lon="3.53179">
        <ele>224.2</ele>
        <time>2016-01-25T13:45:04.301Z</time>
      </trkpt>
      <trkpt lat="49.54009" lon="3.53168">
        <ele>224</ele>
        <time>2016-01-25T13:45:09.379Z</time>
      </trkpt>
      <trkpt lat="49.54009" lon="3.53166">
        <ele>224.2</ele>
        <time>2016-01-25T13:45:10.367Z</time>
      </trkpt>
      <trkpt lat="49.54011" lon="3.53153">
        <ele>223.6</ele>
        <time>2016-01-25T13:45:16.386Z</time>
      </trkpt>
      <trkpt lat="49.5401" lon="3.53151">
        <ele>223.8</ele>
        <time>2016-01-25T13:45:17.364Z</time>
      </trkpt>
      <trkpt lat="49.5401" lon="3.53147">
        <ele>223.8</ele>
        <time>2016-01-25T13:45:19.400Z</time>
      </trkpt>
      <trkpt lat="49.5401" lon="3.53145">
        <ele>223.8</ele>
        <time>2016-01-25T13:45:20.284Z</time>
      </trkpt>
      <trkpt lat="49.54011" lon="3.53143">
        <ele>223.7</ele>
        <time>2016-01-25T13:45:22.325Z</time>
      </trkpt>
      <trkpt lat="49.54011" lon="3.53142">
        <ele>223.8</ele>
        <time>2016-01-25T13:45:23.310Z</time>
      </trkpt>
      <trkpt lat="49.54008" lon="3.53129">
        <ele>224.2</ele>
        <time>2016-01-25T13:45:32.306Z</time>
      </trkpt>
      <trkpt lat="49.54006" lon="3.53128">
        <ele>224.3</ele>
        <time>2016-01-25T13:45:33.297Z</time>
      </trkpt>
      <trkpt lat="49.54002" lon="3.53117">
        <ele>225.9</ele>
        <time>2016-01-25T13:45:40.372Z</time>
      </trkpt>
      <trkpt lat="49.54002" lon="3.53115">
        <ele>225.8</ele>
        <time>2016-01-25T13:45:41.365Z</time>
      </trkpt>
      <trkpt lat="49.53995" lon="3.53106">
        <ele>225.1</ele>
        <time>2016-01-25T13:45:49.360Z</time>
      </trkpt>
      <trkpt lat="49.53995" lon="3.53104">
        <ele>225</ele>
        <time>2016-01-25T13:45:50.348Z</time>
      </trkpt>
      <trkpt lat="49.53989" lon="3.53096">
        <ele>226.1</ele>
        <time>2016-01-25T13:45:58.371Z</time>
      </trkpt>
      <trkpt lat="49.53988" lon="3.53094">
        <ele>226</ele>
        <time>2016-01-25T13:45:59.359Z</time>
      </trkpt>
      <trkpt lat="49.53983" lon="3.53087">
        <ele>225.5</ele>
        <time>2016-01-25T13:46:03.308Z</time>
      </trkpt>
      <trkpt lat="49.53981" lon="3.53085">
        <ele>225.4</ele>
        <time>2016-01-25T13:46:04.298Z</time>
      </trkpt>
      <trkpt lat="49.53979" lon="3.5308">
        <ele>225.7</ele>
        <time>2016-01-25T13:46:06.329Z</time>
      </trkpt>
      <trkpt lat="49.53979" lon="3.53079">
        <ele>225.8</ele>
        <time>2016-01-25T13:46:07.327Z</time>
      </trkpt>
      <trkpt lat="49.53979" lon="3.53077">
        <ele>226</ele>
        <time>2016-01-25T13:46:11.370Z</time>
      </trkpt>
      <trkpt lat="49.53976" lon="3.53074">
        <ele>225.7</ele>
        <time>2016-01-25T13:46:12.361Z</time>
      </trkpt>
      <trkpt lat="49.53975" lon="3.53072">
        <ele>225.7</ele>
        <time>2016-01-25T13:46:14.399Z</time>
      </trkpt>
      <trkpt lat="49.53975" lon="3.5307">
        <ele>225.6</ele>
        <time>2016-01-25T13:46:15.288Z</time>
      </trkpt>
      <trkpt lat="49.53975" lon="3.5307">
        <ele>225.6</ele>
        <time>2016-01-25T13:46:15.304Z</time>
      </trkpt>
      <trkpt lat="49.53975" lon="3.53069">
        <ele>225.6</ele>
        <time>2016-01-25T13:46:16.289Z</time>
      </trkpt>
      <trkpt lat="49.53975" lon="3.53068">
        <ele>225.7</ele>
        <time>2016-01-25T13:46:17.324Z</time>
      </trkpt>
      <trkpt lat="49.53976" lon="3.53068">
        <ele>225.8</ele>
        <time>2016-01-25T13:46:18.320Z</time>
      </trkpt>
      <trkpt lat="49.53975" lon="3.53067">
        <ele>225.9</ele>
        <time>2016-01-25T13:46:21.368Z</time>
      </trkpt>
      <trkpt lat="49.53973" lon="3.53065">
        <ele>226.4</ele>
        <time>2016-01-25T13:46:22.355Z</time>
      </trkpt>
      <trkpt lat="49.53967" lon="3.53055">
        <ele>227.1</ele>
        <time>2016-01-25T13:46:30.340Z</time>
      </trkpt>
      <trkpt lat="49.53966" lon="3.53053">
        <ele>227.2</ele>
        <time>2016-01-25T13:46:31.329Z</time>
      </trkpt>
      <trkpt lat="49.5396" lon="3.53048">
        <ele>227</ele>
        <time>2016-01-25T13:46:34.366Z</time>
      </trkpt>
      <trkpt lat="49.5396" lon="3.53047">
        <ele>227.1</ele>
        <time>2016-01-25T13:46:35.363Z</time>
      </trkpt>
      <trkpt lat="49.5396" lon="3.53045">
        <ele>227.1</ele>
        <time>2016-01-25T13:46:38.303Z</time>
      </trkpt>
      <trkpt lat="49.53959" lon="3.53042">
        <ele>227.1</ele>
        <time>2016-01-25T13:46:39.297Z</time>
      </trkpt>
      <trkpt lat="49.53956" lon="3.53032">
        <ele>227.7</ele>
        <time>2016-01-25T13:46:46.375Z</time>
      </trkpt>
      <trkpt lat="49.53953" lon="3.53031">
        <ele>227.4</ele>
        <time>2016-01-25T13:46:47.365Z</time>
      </trkpt>
      <trkpt lat="49.53945" lon="3.53024">
        <ele>226.6</ele>
        <time>2016-01-25T13:46:52.361Z</time>
      </trkpt>
      <trkpt lat="49.53945" lon="3.53023">
        <ele>226.6</ele>
        <time>2016-01-25T13:46:53.355Z</time>
      </trkpt>
      <trkpt lat="49.53945" lon="3.53011">
        <ele>226.6</ele>
        <time>2016-01-25T13:46:59.311Z</time>
      </trkpt>
      <trkpt lat="49.53946" lon="3.53009">
        <ele>226.5</ele>
        <time>2016-01-25T13:47:00.309Z</time>
      </trkpt>
      <trkpt lat="49.53945" lon="3.52995">
        <ele>228.4</ele>
        <time>2016-01-25T13:47:08.297Z</time>
      </trkpt>
      <trkpt lat="49.53945" lon="3.52993">
        <ele>228.4</ele>
        <time>2016-01-25T13:47:09.288Z</time>
      </trkpt>
      <trkpt lat="49.53942" lon="3.5298">
        <ele>229.4</ele>
        <time>2016-01-25T13:47:18.387Z</time>
      </trkpt>
      <trkpt lat="49.53942" lon="3.52978">
        <ele>229.4</ele>
        <time>2016-01-25T13:47:19.379Z</time>
      </trkpt>
      <trkpt lat="49.53938" lon="3.52967">
        <ele>230.5</ele>
        <time>2016-01-25T13:47:28.379Z</time>
      </trkpt>
      <trkpt lat="49.53937" lon="3.52965">
        <ele>230.1</ele>
        <time>2016-01-25T13:47:29.367Z</time>
      </trkpt>
      <trkpt lat="49.53929" lon="3.5296">
        <ele>228.9</ele>
        <time>2016-01-25T13:47:32.344Z</time>
      </trkpt>
      <trkpt lat="49.53927" lon="3.52958">
        <ele>228.6</ele>
        <time>2016-01-25T13:47:33.344Z</time>
      </trkpt>
      <trkpt lat="49.53919" lon="3.52951">
        <ele>228</ele>
        <time>2016-01-25T13:47:39.310Z</time>
      </trkpt>
      <trkpt lat="49.53919" lon="3.5295">
        <ele>228.3</ele>
        <time>2016-01-25T13:47:40.298Z</time>
      </trkpt>
      <trkpt lat="49.53911" lon="3.52944">
        <ele>228.5</ele>
        <time>2016-01-25T13:47:46.371Z</time>
      </trkpt>
      <trkpt lat="49.53911" lon="3.52942">
        <ele>228.7</ele>
        <time>2016-01-25T13:47:47.361Z</time>
      </trkpt>
      <trkpt lat="49.53909" lon="3.52938">
        <ele>229.3</ele>
        <time>2016-01-25T13:47:51.304Z</time>
      </trkpt>
      <trkpt lat="49.53909" lon="3.52937">
        <ele>229.4</ele>
        <time>2016-01-25T13:47:52.293Z</time>
      </trkpt>
      <trkpt lat="49.53909" lon="3.52937">
        <ele>229.4</ele>
        <time>2016-01-25T13:47:52.308Z</time>
      </trkpt>
      <trkpt lat="49.53909" lon="3.52936">
        <ele>229.6</ele>
        <time>2016-01-25T13:47:53.302Z</time>
      </trkpt>
      <trkpt lat="49.53905" lon="3.52925">
        <ele>229.9</ele>
        <time>2016-01-25T13:48:02.305Z</time>
      </trkpt>
      <trkpt lat="49.53904" lon="3.52924">
        <ele>229.9</ele>
        <time>2016-01-25T13:48:03.295Z</time>
      </trkpt>
      <trkpt lat="49.53904" lon="3.52924">
        <ele>229.9</ele>
        <time>2016-01-25T13:48:03.314Z</time>
      </trkpt>
      <trkpt lat="49.53904" lon="3.52923">
        <ele>229.7</ele>
        <time>2016-01-25T13:48:04.302Z</time>
      </trkpt>
      <trkpt lat="49.53904" lon="3.52923">
        <ele>229.7</ele>
        <time>2016-01-25T13:48:04.343Z</time>
      </trkpt>
      <trkpt lat="49.53904" lon="3.52922">
        <ele>229.8</ele>
        <time>2016-01-25T13:48:05.308Z</time>
      </trkpt>
      <trkpt lat="49.53904" lon="3.52922">
        <ele>229.8</ele>
        <time>2016-01-25T13:48:05.329Z</time>
      </trkpt>
      <trkpt lat="49.53904" lon="3.52921">
        <ele>229.8</ele>
        <time>2016-01-25T13:48:06.316Z</time>
      </trkpt>
      <trkpt lat="49.53899" lon="3.52909">
        <ele>230.9</ele>
        <time>2016-01-25T13:48:15.310Z</time>
      </trkpt>
      <trkpt lat="49.53899" lon="3.52908">
        <ele>231</ele>
        <time>2016-01-25T13:48:16.310Z</time>
      </trkpt>
      <trkpt lat="49.53899" lon="3.52906">
        <ele>231.1</ele>
        <time>2016-01-25T13:48:17.336Z</time>
      </trkpt>
      <trkpt lat="49.53898" lon="3.52905">
        <ele>231.2</ele>
        <time>2016-01-25T13:48:18.326Z</time>
      </trkpt>
      <trkpt lat="49.53898" lon="3.52902">
        <ele>231.1</ele>
        <time>2016-01-25T13:48:20.361Z</time>
      </trkpt>
      <trkpt lat="49.53895" lon="3.52901">
        <ele>230.5</ele>
        <time>2016-01-25T13:48:21.357Z</time>
      </trkpt>
      <trkpt lat="49.53887" lon="3.52894">
        <ele>229.4</ele>
        <time>2016-01-25T13:48:26.345Z</time>
      </trkpt>
      <trkpt lat="49.53886" lon="3.52892">
        <ele>229.6</ele>
        <time>2016-01-25T13:48:27.337Z</time>
      </trkpt>
      <trkpt lat="49.53882" lon="3.52883">
        <ele>230.3</ele>
        <time>2016-01-25T13:48:33.318Z</time>
      </trkpt>
      <trkpt lat="49.5388" lon="3.52882">
        <ele>230.2</ele>
        <time>2016-01-25T13:48:34.307Z</time>
      </trkpt>
      <trkpt lat="49.53873" lon="3.52876">
        <ele>229.9</ele>
        <time>2016-01-25T13:48:38.352Z</time>
      </trkpt>
      <trkpt lat="49.53872" lon="3.52875">
        <ele>229.8</ele>
        <time>2016-01-25T13:48:39.349Z</time>
      </trkpt>
      <trkpt lat="49.53867" lon="3.52863">
        <ele>229.9</ele>
        <time>2016-01-25T13:48:48.336Z</time>
      </trkpt>
      <trkpt lat="49.53867" lon="3.52862">
        <ele>229.7</ele>
        <time>2016-01-25T13:48:49.331Z</time>
      </trkpt>
      <trkpt lat="49.53862" lon="3.52851">
        <ele>229.2</ele>
        <time>2016-01-25T13:48:56.345Z</time>
      </trkpt>
      <trkpt lat="49.53862" lon="3.52849">
        <ele>229</ele>
        <time>2016-01-25T13:48:57.340Z</time>
      </trkpt>
      <trkpt lat="49.53861" lon="3.5284">
        <ele>230.5</ele>
        <time>2016-01-25T13:49:05.329Z</time>
      </trkpt>
      <trkpt lat="49.53861" lon="3.52839">
        <ele>230.5</ele>
        <time>2016-01-25T13:49:06.324Z</time>
      </trkpt>
      <trkpt lat="49.53861" lon="3.52839">
        <ele>230.5</ele>
        <time>2016-01-25T13:49:06.347Z</time>
      </trkpt>
      <trkpt lat="49.5386" lon="3.52838">
        <ele>230.6</ele>
        <time>2016-01-25T13:49:07.332Z</time>
      </trkpt>
      <trkpt lat="49.53856" lon="3.52834">
        <ele>230.9</ele>
        <time>2016-01-25T13:49:12.386Z</time>
      </trkpt>
      <trkpt lat="49.53856" lon="3.52832">
        <ele>231.1</ele>
        <time>2016-01-25T13:49:13.382Z</time>
      </trkpt>
      <trkpt lat="49.53856" lon="3.52831">
        <ele>231.3</ele>
        <time>2016-01-25T13:49:14.298Z</time>
      </trkpt>
      <trkpt lat="49.53855" lon="3.5283">
        <ele>231.7</ele>
        <time>2016-01-25T13:49:15.292Z</time>
      </trkpt>
      <trkpt lat="49.53854" lon="3.52825">
        <ele>232.2</ele>
        <time>2016-01-25T13:49:18.339Z</time>
      </trkpt>
      <trkpt lat="49.53853" lon="3.52823">
        <ele>232.2</ele>
        <time>2016-01-25T13:49:19.331Z</time>
      </trkpt>
      <trkpt lat="49.53852" lon="3.52821">
        <ele>232.5</ele>
        <time>2016-01-25T13:49:24.304Z</time>
      </trkpt>
      <trkpt lat="49.53849" lon="3.52816">
        <ele>232.6</ele>
        <time>2016-01-25T13:49:25.323Z</time>
      </trkpt>
      <trkpt lat="49.53844" lon="3.52808">
        <ele>232</ele>
        <time>2016-01-25T13:49:31.394Z</time>
      </trkpt>
      <trkpt lat="49.53843" lon="3.52805">
        <ele>231.8</ele>
        <time>2016-01-25T13:49:32.286Z</time>
      </trkpt>
      <trkpt lat="49.5384" lon="3.52793">
        <ele>230.9</ele>
        <time>2016-01-25T13:49:38.366Z</time>
      </trkpt>
      <trkpt lat="49.53839" lon="3.52791">
        <ele>230.9</ele>
        <time>2016-01-25T13:49:39.357Z</time>
      </trkpt>
      <trkpt lat="49.53839" lon="3.52789">
        <ele>230.9</ele>
        <time>2016-01-25T13:49:40.385Z</time>
      </trkpt>
      <trkpt lat="49.53838" lon="3.52788">
        <ele>230.9</ele>
        <time>2016-01-25T13:49:41.380Z</time>
      </trkpt>
      <trkpt lat="49.53838" lon="3.52787">
        <ele>231.1</ele>
        <time>2016-01-25T13:49:43.375Z</time>
      </trkpt>
      <trkpt lat="49.53837" lon="3.52784">
        <ele>231.1</ele>
        <time>2016-01-25T13:49:44.325Z</time>
      </trkpt>
      <trkpt lat="49.53836" lon="3.52783">
        <ele>231.2</ele>
        <time>2016-01-25T13:49:45.343Z</time>
      </trkpt>
      <trkpt lat="49.53836" lon="3.52782">
        <ele>231.2</ele>
        <time>2016-01-25T13:49:46.347Z</time>
      </trkpt>
      <trkpt lat="49.53835" lon="3.52782">
        <ele>231.2</ele>
        <time>2016-01-25T13:49:50.297Z</time>
      </trkpt>
      <trkpt lat="49.53834" lon="3.5278">
        <ele>231.6</ele>
        <time>2016-01-25T13:49:51.290Z</time>
      </trkpt>
      <trkpt lat="49.53835" lon="3.52775">
        <ele>231.9</ele>
        <time>2016-01-25T13:50:02.407Z</time>
      </trkpt>
      <trkpt lat="49.53835" lon="3.52775">
        <ele>232</ele>
        <time>2016-01-25T13:50:03.289Z</time>
      </trkpt>
      <trkpt lat="49.53836" lon="3.52773">
        <ele>232</ele>
        <time>2016-01-25T13:50:09.401Z</time>
      </trkpt>
      <trkpt lat="49.53837" lon="3.52772">
        <ele>231.7</ele>
        <time>2016-01-25T13:50:10.291Z</time>
      </trkpt>
      <trkpt lat="49.53837" lon="3.52772">
        <ele>231.7</ele>
        <time>2016-01-25T13:50:10.308Z</time>
      </trkpt>
      <trkpt lat="49.53837" lon="3.52771">
        <ele>231.8</ele>
        <time>2016-01-25T13:50:11.294Z</time>
      </trkpt>
      <trkpt lat="49.53837" lon="3.52771">
        <ele>231.8</ele>
        <time>2016-01-25T13:50:11.312Z</time>
      </trkpt>
      <trkpt lat="49.53836" lon="3.5277">
        <ele>231.8</ele>
        <time>2016-01-25T13:50:12.300Z</time>
      </trkpt>
      <trkpt lat="49.53832" lon="3.52763">
        <ele>231.7</ele>
        <time>2016-01-25T13:50:20.307Z</time>
      </trkpt>
      <trkpt lat="49.53831" lon="3.52761">
        <ele>231.8</ele>
        <time>2016-01-25T13:50:21.290Z</time>
      </trkpt>
      <trkpt lat="49.53831" lon="3.52761">
        <ele>231.8</ele>
        <time>2016-01-25T13:50:21.306Z</time>
      </trkpt>
      <trkpt lat="49.5383" lon="3.52761">
        <ele>231.9</ele>
        <time>2016-01-25T13:50:22.302Z</time>
      </trkpt>
      <trkpt lat="49.5383" lon="3.52761">
        <ele>231.9</ele>
        <time>2016-01-25T13:50:22.316Z</time>
      </trkpt>
      <trkpt lat="49.5383" lon="3.5276">
        <ele>232</ele>
        <time>2016-01-25T13:50:23.306Z</time>
      </trkpt>
      <trkpt lat="49.5383" lon="3.5276">
        <ele>232</ele>
        <time>2016-01-25T13:50:23.317Z</time>
      </trkpt>
      <trkpt lat="49.53829" lon="3.52759">
        <ele>232</ele>
        <time>2016-01-25T13:50:24.317Z</time>
      </trkpt>
      <trkpt lat="49.53828" lon="3.52758">
        <ele>231.9</ele>
        <time>2016-01-25T13:50:25.335Z</time>
      </trkpt>
      <trkpt lat="49.53828" lon="3.52758">
        <ele>231.9</ele>
        <time>2016-01-25T13:50:26.335Z</time>
      </trkpt>
      <trkpt lat="49.53827" lon="3.52756">
        <ele>231.4</ele>
        <time>2016-01-25T13:50:30.377Z</time>
      </trkpt>
      <trkpt lat="49.53824" lon="3.52754">
        <ele>231.4</ele>
        <time>2016-01-25T13:50:31.370Z</time>
      </trkpt>
      <trkpt lat="49.53817" lon="3.52747">
        <ele>231</ele>
        <time>2016-01-25T13:50:37.336Z</time>
      </trkpt>
      <trkpt lat="49.53815" lon="3.52746">
        <ele>231</ele>
        <time>2016-01-25T13:50:38.327Z</time>
      </trkpt>
      <trkpt lat="49.53807" lon="3.52742">
        <ele>230.1</ele>
        <time>2016-01-25T13:50:42.383Z</time>
      </trkpt>
      <trkpt lat="49.53805" lon="3.52741">
        <ele>229.7</ele>
        <time>2016-01-25T13:50:43.376Z</time>
      </trkpt>
      <trkpt lat="49.53798" lon="3.52737">
        <ele>228.7</ele>
        <time>2016-01-25T13:50:48.328Z</time>
      </trkpt>
      <trkpt lat="49.53796" lon="3.52736">
        <ele>228.6</ele>
        <time>2016-01-25T13:50:49.324Z</time>
      </trkpt>
      <trkpt lat="49.53789" lon="3.5273">
        <ele>228.6</ele>
        <time>2016-01-25T13:50:57.312Z</time>
      </trkpt>
      <trkpt lat="49.53788" lon="3.5273">
        <ele>228.6</ele>
        <time>2016-01-25T13:50:58.302Z</time>
      </trkpt>
      <trkpt lat="49.53786" lon="3.52727">
        <ele>228.5</ele>
        <time>2016-01-25T13:51:02.352Z</time>
      </trkpt>
      <trkpt lat="49.53785" lon="3.52727">
        <ele>228.7</ele>
        <time>2016-01-25T13:51:03.356Z</time>
      </trkpt>
      <trkpt lat="49.53785" lon="3.52726">
        <ele>228.8</ele>
        <time>2016-01-25T13:51:04.390Z</time>
      </trkpt>
      <trkpt lat="49.53784" lon="3.52725">
        <ele>228.9</ele>
        <time>2016-01-25T13:51:05.286Z</time>
      </trkpt>
      <trkpt lat="49.53777" lon="3.52719">
        <ele>229.7</ele>
        <time>2016-01-25T13:51:12.383Z</time>
      </trkpt>
      <trkpt lat="49.53776" lon="3.52719">
        <ele>229.9</ele>
        <time>2016-01-25T13:51:13.381Z</time>
      </trkpt>
      <trkpt lat="49.53776" lon="3.52719">
        <ele>229.9</ele>
        <time>2016-01-25T13:51:13.403Z</time>
      </trkpt>
      <trkpt lat="49.53775" lon="3.52718">
        <ele>229.9</ele>
        <time>2016-01-25T13:51:14.289Z</time>
      </trkpt>
      <trkpt lat="49.53775" lon="3.52718">
        <ele>229.9</ele>
        <time>2016-01-25T13:51:14.306Z</time>
      </trkpt>
      <trkpt lat="49.53775" lon="3.52717">
        <ele>230</ele>
        <time>2016-01-25T13:51:15.301Z</time>
      </trkpt>
      <trkpt lat="49.53768" lon="3.52708">
        <ele>229.9</ele>
        <time>2016-01-25T13:51:25.404Z</time>
      </trkpt>
      <trkpt lat="49.53767" lon="3.52707">
        <ele>230.2</ele>
        <time>2016-01-25T13:51:26.289Z</time>
      </trkpt>
      <trkpt lat="49.53762" lon="3.52702">
        <ele>230.1</ele>
        <time>2016-01-25T13:51:31.361Z</time>
      </trkpt>
      <trkpt lat="49.53759" lon="3.52701">
        <ele>229.5</ele>
        <time>2016-01-25T13:51:32.351Z</time>
      </trkpt>
      <trkpt lat="49.53752" lon="3.52696">
        <ele>229.6</ele>
        <time>2016-01-25T13:51:38.351Z</time>
      </trkpt>
      <trkpt lat="49.5375" lon="3.52694">
        <ele>229.6</ele>
        <time>2016-01-25T13:51:39.340Z</time>
      </trkpt>
      <trkpt lat="49.53743" lon="3.52687">
        <ele>228.2</ele>
        <time>2016-01-25T13:51:46.306Z</time>
      </trkpt>
      <trkpt lat="49.53742" lon="3.52686">
        <ele>227.8</ele>
        <time>2016-01-25T13:51:47.296Z</time>
      </trkpt>
      <trkpt lat="49.53736" lon="3.52676">
        <ele>229.3</ele>
        <time>2016-01-25T13:51:58.320Z</time>
      </trkpt>
      <trkpt lat="49.53735" lon="3.52675">
        <ele>229.4</ele>
        <time>2016-01-25T13:51:59.323Z</time>
      </trkpt>
      <trkpt lat="49.53731" lon="3.52672">
        <ele>229.7</ele>
        <time>2016-01-25T13:52:03.382Z</time>
      </trkpt>
      <trkpt lat="49.53731" lon="3.52671">
        <ele>229.7</ele>
        <time>2016-01-25T13:52:04.376Z</time>
      </trkpt>
      <trkpt lat="49.53731" lon="3.52671">
        <ele>229.7</ele>
        <time>2016-01-25T13:52:04.398Z</time>
      </trkpt>
      <trkpt lat="49.5373" lon="3.5267">
        <ele>230</ele>
        <time>2016-01-25T13:52:05.289Z</time>
      </trkpt>
      <trkpt lat="49.53725" lon="3.52666">
        <ele>231</ele>
        <time>2016-01-25T13:52:11.377Z</time>
      </trkpt>
      <trkpt lat="49.53724" lon="3.52664">
        <ele>230.9</ele>
        <time>2016-01-25T13:52:12.370Z</time>
      </trkpt>
      <trkpt lat="49.53723" lon="3.52664">
        <ele>231.1</ele>
        <time>2016-01-25T13:52:13.408Z</time>
      </trkpt>
      <trkpt lat="49.53722" lon="3.52662">
        <ele>231</ele>
        <time>2016-01-25T13:52:14.289Z</time>
      </trkpt>
      <trkpt lat="49.53714" lon="3.52655">
        <ele>231</ele>
        <time>2016-01-25T13:52:21.376Z</time>
      </trkpt>
      <trkpt lat="49.53713" lon="3.52653">
        <ele>231.3</ele>
        <time>2016-01-25T13:52:22.367Z</time>
      </trkpt>
      <trkpt lat="49.53706" lon="3.52646">
        <ele>231.4</ele>
        <time>2016-01-25T13:52:29.382Z</time>
      </trkpt>
      <trkpt lat="49.53706" lon="3.52646">
        <ele>231.5</ele>
        <time>2016-01-25T13:52:30.370Z</time>
      </trkpt>
      <trkpt lat="49.53706" lon="3.52646">
        <ele>231.5</ele>
        <time>2016-01-25T13:52:30.383Z</time>
      </trkpt>
      <trkpt lat="49.53705" lon="3.52645">
        <ele>231.5</ele>
        <time>2016-01-25T13:52:31.387Z</time>
      </trkpt>
      <trkpt lat="49.53697" lon="3.5264">
        <ele>230.4</ele>
        <time>2016-01-25T13:52:35.330Z</time>
      </trkpt>
      <trkpt lat="49.53697" lon="3.52639">
        <ele>230.5</ele>
        <time>2016-01-25T13:52:36.321Z</time>
      </trkpt>
      <trkpt lat="49.53692" lon="3.52628">
        <ele>230.7</ele>
        <time>2016-01-25T13:52:43.393Z</time>
      </trkpt>
      <trkpt lat="49.5369" lon="3.52626">
        <ele>230.8</ele>
        <time>2016-01-25T13:52:44.285Z</time>
      </trkpt>
      <trkpt lat="49.53686" lon="3.52614">
        <ele>231.8</ele>
        <time>2016-01-25T13:52:51.364Z</time>
      </trkpt>
      <trkpt lat="49.53686" lon="3.52612">
        <ele>231.9</ele>
        <time>2016-01-25T13:52:52.344Z</time>
      </trkpt>
      <trkpt lat="49.53683" lon="3.526">
        <ele>232.1</ele>
        <time>2016-01-25T13:53:00.335Z</time>
      </trkpt>
      <trkpt lat="49.53682" lon="3.52599">
        <ele>232.1</ele>
        <time>2016-01-25T13:53:01.329Z</time>
      </trkpt>
      <trkpt lat="49.53682" lon="3.52585">
        <ele>231.7</ele>
        <time>2016-01-25T13:53:08.305Z</time>
      </trkpt>
      <trkpt lat="49.53682" lon="3.52584">
        <ele>231.8</ele>
        <time>2016-01-25T13:53:09.483Z</time>
      </trkpt>
      <trkpt lat="49.53682" lon="3.52584">
        <ele>231.8</ele>
        <time>2016-01-25T13:53:09.524Z</time>
      </trkpt>
      <trkpt lat="49.53681" lon="3.52583">
        <ele>232</ele>
        <time>2016-01-25T13:53:10.314Z</time>
      </trkpt>
      <trkpt lat="49.53682" lon="3.52582">
        <ele>232</ele>
        <time>2016-01-25T13:53:11.338Z</time>
      </trkpt>
      <trkpt lat="49.53682" lon="3.52579">
        <ele>231.4</ele>
        <time>2016-01-25T13:53:12.329Z</time>
      </trkpt>
      <trkpt lat="49.53682" lon="3.52566">
        <ele>231.5</ele>
        <time>2016-01-25T13:53:19.335Z</time>
      </trkpt>
      <trkpt lat="49.53682" lon="3.52564">
        <ele>231.7</ele>
        <time>2016-01-25T13:53:20.336Z</time>
      </trkpt>
      <trkpt lat="49.53679" lon="3.52552">
        <ele>232.5</ele>
        <time>2016-01-25T13:53:28.320Z</time>
      </trkpt>
      <trkpt lat="49.53678" lon="3.52551">
        <ele>232.7</ele>
        <time>2016-01-25T13:53:29.313Z</time>
      </trkpt>
      <trkpt lat="49.53674" lon="3.52539">
        <ele>233.4</ele>
        <time>2016-01-25T13:53:37.423Z</time>
      </trkpt>
      <trkpt lat="49.53673" lon="3.52538">
        <ele>233.6</ele>
        <time>2016-01-25T13:53:38.297Z</time>
      </trkpt>
      <trkpt lat="49.53668" lon="3.5253">
        <ele>233.1</ele>
        <time>2016-01-25T13:53:44.429Z</time>
      </trkpt>
      <trkpt lat="49.53667" lon="3.52528">
        <ele>233</ele>
        <time>2016-01-25T13:53:45.376Z</time>
      </trkpt>
      <trkpt lat="49.53664" lon="3.52523">
        <ele>233.1</ele>
        <time>2016-01-25T13:53:48.313Z</time>
      </trkpt>
      <trkpt lat="49.53664" lon="3.52522">
        <ele>233.3</ele>
        <time>2016-01-25T13:53:49.341Z</time>
      </trkpt>
      <trkpt lat="49.53663" lon="3.5252">
        <ele>233.6</ele>
        <time>2016-01-25T13:53:53.405Z</time>
      </trkpt>
      <trkpt lat="49.53662" lon="3.52515">
        <ele>233.3</ele>
        <time>2016-01-25T13:53:54.384Z</time>
      </trkpt>
      <trkpt lat="49.53658" lon="3.52505">
        <ele>233.4</ele>
        <time>2016-01-25T13:54:00.343Z</time>
      </trkpt>
      <trkpt lat="49.53657" lon="3.52503">
        <ele>233.5</ele>
        <time>2016-01-25T13:54:01.359Z</time>
      </trkpt>
      <trkpt lat="49.53654" lon="3.52492">
        <ele>234.1</ele>
        <time>2016-01-25T13:54:09.394Z</time>
      </trkpt>
      <trkpt lat="49.53653" lon="3.5249">
        <ele>234</ele>
        <time>2016-01-25T13:54:10.370Z</time>
      </trkpt>
      <trkpt lat="49.5365" lon="3.52478">
        <ele>234.1</ele>
        <time>2016-01-25T13:54:17.339Z</time>
      </trkpt>
      <trkpt lat="49.5365" lon="3.52475">
        <ele>233.8</ele>
        <time>2016-01-25T13:54:18.334Z</time>
      </trkpt>
      <trkpt lat="49.53647" lon="3.52462">
        <ele>233.1</ele>
        <time>2016-01-25T13:54:25.421Z</time>
      </trkpt>
      <trkpt lat="49.53646" lon="3.52461">
        <ele>233.2</ele>
        <time>2016-01-25T13:54:26.298Z</time>
      </trkpt>
      <trkpt lat="49.53642" lon="3.5245">
        <ele>233.7</ele>
        <time>2016-01-25T13:54:34.385Z</time>
      </trkpt>
      <trkpt lat="49.53641" lon="3.52448">
        <ele>233.7</ele>
        <time>2016-01-25T13:54:35.371Z</time>
      </trkpt>
      <trkpt lat="49.53637" lon="3.52436">
        <ele>234.5</ele>
        <time>2016-01-25T13:54:42.362Z</time>
      </trkpt>
      <trkpt lat="49.53637" lon="3.52435">
        <ele>234.5</ele>
        <time>2016-01-25T13:54:43.355Z</time>
      </trkpt>
      <trkpt lat="49.53636" lon="3.52433">
        <ele>234.6</ele>
        <time>2016-01-25T13:54:45.390Z</time>
      </trkpt>
      <trkpt lat="49.53636" lon="3.52432">
        <ele>234.7</ele>
        <time>2016-01-25T13:54:46.403Z</time>
      </trkpt>
      <trkpt lat="49.53636" lon="3.52432">
        <ele>234.7</ele>
        <time>2016-01-25T13:54:46.425Z</time>
      </trkpt>
      <trkpt lat="49.53636" lon="3.5243">
        <ele>234.8</ele>
        <time>2016-01-25T13:54:47.308Z</time>
      </trkpt>
      <trkpt lat="49.53632" lon="3.52418">
        <ele>236</ele>
        <time>2016-01-25T13:54:54.321Z</time>
      </trkpt>
      <trkpt lat="49.53632" lon="3.52417">
        <ele>236.2</ele>
        <time>2016-01-25T13:54:55.355Z</time>
      </trkpt>
      <trkpt lat="49.53628" lon="3.52406">
        <ele>236.9</ele>
        <time>2016-01-25T13:55:02.383Z</time>
      </trkpt>
      <trkpt lat="49.53627" lon="3.52405">
        <ele>236.8</ele>
        <time>2016-01-25T13:55:03.391Z</time>
      </trkpt>
      <trkpt lat="49.53621" lon="3.52403">
        <ele>235.1</ele>
        <time>2016-01-25T13:55:07.351Z</time>
      </trkpt>
      <trkpt lat="49.53621" lon="3.52403">
        <ele>235.1</ele>
        <time>2016-01-25T13:55:08.351Z</time>
      </trkpt>
      <trkpt lat="49.53621" lon="3.52403">
        <ele>235.1</ele>
        <time>2016-01-25T13:55:08.369Z</time>
      </trkpt>
      <trkpt lat="49.53621" lon="3.52402">
        <ele>235.1</ele>
        <time>2016-01-25T13:55:09.359Z</time>
      </trkpt>
      <trkpt lat="49.5362" lon="3.52401">
        <ele>235.1</ele>
        <time>2016-01-25T13:55:10.406Z</time>
      </trkpt>
      <trkpt lat="49.5362" lon="3.52401">
        <ele>235.3</ele>
        <time>2016-01-25T13:55:11.389Z</time>
      </trkpt>
      <trkpt lat="49.5362" lon="3.52401">
        <ele>235.3</ele>
        <time>2016-01-25T13:55:11.408Z</time>
      </trkpt>
      <trkpt lat="49.5362" lon="3.524">
        <ele>235.3</ele>
        <time>2016-01-25T13:55:12.397Z</time>
      </trkpt>
      <trkpt lat="49.53615" lon="3.52391">
        <ele>236</ele>
        <time>2016-01-25T13:55:19.370Z</time>
      </trkpt>
      <trkpt lat="49.53613" lon="3.5239">
        <ele>235</ele>
        <time>2016-01-25T13:55:20.362Z</time>
      </trkpt>
      <trkpt lat="49.53606" lon="3.52384">
        <ele>233.6</ele>
        <time>2016-01-25T13:55:25.363Z</time>
      </trkpt>
      <trkpt lat="49.53605" lon="3.52384">
        <ele>233.5</ele>
        <time>2016-01-25T13:55:26.354Z</time>
      </trkpt>
      <trkpt lat="49.53598" lon="3.52376">
        <ele>234.1</ele>
        <time>2016-01-25T13:55:33.402Z</time>
      </trkpt>
      <trkpt lat="49.53597" lon="3.52375">
        <ele>234.2</ele>
        <time>2016-01-25T13:55:34.389Z</time>
      </trkpt>
      <trkpt lat="49.53597" lon="3.52375">
        <ele>234.2</ele>
        <time>2016-01-25T13:55:34.407Z</time>
      </trkpt>
      <trkpt lat="49.53597" lon="3.52375">
        <ele>234.3</ele>
        <time>2016-01-25T13:55:35.395Z</time>
      </trkpt>
      <trkpt lat="49.53597" lon="3.52375">
        <ele>234.3</ele>
        <time>2016-01-25T13:55:35.415Z</time>
      </trkpt>
      <trkpt lat="49.53597" lon="3.52374">
        <ele>234.5</ele>
        <time>2016-01-25T13:55:36.308Z</time>
      </trkpt>
      <trkpt lat="49.53593" lon="3.5237">
        <ele>235.4</ele>
        <time>2016-01-25T13:55:42.403Z</time>
      </trkpt>
      <trkpt lat="49.53593" lon="3.52369">
        <ele>235.6</ele>
        <time>2016-01-25T13:55:43.400Z</time>
      </trkpt>
      <trkpt lat="49.53593" lon="3.52369">
        <ele>235.6</ele>
        <time>2016-01-25T13:55:43.443Z</time>
      </trkpt>
      <trkpt lat="49.53593" lon="3.52369">
        <ele>235.7</ele>
        <time>2016-01-25T13:55:44.309Z</time>
      </trkpt>
      <trkpt lat="49.53584" lon="3.52364">
        <ele>236.2</ele>
        <time>2016-01-25T13:55:53.400Z</time>
      </trkpt>
      <trkpt lat="49.53583" lon="3.52363">
        <ele>236.3</ele>
        <time>2016-01-25T13:55:54.397Z</time>
      </trkpt>
      <trkpt lat="49.53578" lon="3.52354">
        <ele>237.1</ele>
        <time>2016-01-25T13:56:00.376Z</time>
      </trkpt>
      <trkpt lat="49.53576" lon="3.52353">
        <ele>237.2</ele>
        <time>2016-01-25T13:56:01.366Z</time>
      </trkpt>
      <trkpt lat="49.53573" lon="3.52348">
        <ele>237.4</ele>
        <time>2016-01-25T13:56:05.410Z</time>
      </trkpt>
      <trkpt lat="49.53573" lon="3.52347">
        <ele>237.4</ele>
        <time>2016-01-25T13:56:06.295Z</time>
      </trkpt>
      <trkpt lat="49.53573" lon="3.52347">
        <ele>237.4</ele>
        <time>2016-01-25T13:56:06.306Z</time>
      </trkpt>
      <trkpt lat="49.53572" lon="3.52346">
        <ele>237.4</ele>
        <time>2016-01-25T13:56:07.357Z</time>
      </trkpt>
      <trkpt lat="49.53568" lon="3.52335">
        <ele>238.7</ele>
        <time>2016-01-25T13:56:17.345Z</time>
      </trkpt>
      <trkpt lat="49.53567" lon="3.52333">
        <ele>238.6</ele>
        <time>2016-01-25T13:56:18.335Z</time>
      </trkpt>
      <trkpt lat="49.53563" lon="3.52323">
        <ele>238.5</ele>
        <time>2016-01-25T13:56:24.406Z</time>
      </trkpt>
      <trkpt lat="49.53562" lon="3.52321">
        <ele>238.5</ele>
        <time>2016-01-25T13:56:25.396Z</time>
      </trkpt>
      <trkpt lat="49.53554" lon="3.52316">
        <ele>239</ele>
        <time>2016-01-25T13:56:35.410Z</time>
      </trkpt>
      <trkpt lat="49.53553" lon="3.52315">
        <ele>239.1</ele>
        <time>2016-01-25T13:56:36.296Z</time>
      </trkpt>
      <trkpt lat="49.53552" lon="3.52304">
        <ele>239.8</ele>
        <time>2016-01-25T13:56:44.310Z</time>
      </trkpt>
      <trkpt lat="49.53551" lon="3.52302">
        <ele>239.6</ele>
        <time>2016-01-25T13:56:45.302Z</time>
      </trkpt>
      <trkpt lat="49.53546" lon="3.52291">
        <ele>239.1</ele>
        <time>2016-01-25T13:56:51.385Z</time>
      </trkpt>
      <trkpt lat="49.53546" lon="3.52289">
        <ele>239.1</ele>
        <time>2016-01-25T13:56:52.379Z</time>
      </trkpt>
      <trkpt lat="49.53541" lon="3.52279">
        <ele>239.3</ele>
        <time>2016-01-25T13:57:00.392Z</time>
      </trkpt>
      <trkpt lat="49.5354" lon="3.52278">
        <ele>239.3</ele>
        <time>2016-01-25T13:57:01.399Z</time>
      </trkpt>
      <trkpt lat="49.5354" lon="3.52277">
        <ele>239.4</ele>
        <time>2016-01-25T13:57:02.317Z</time>
      </trkpt>
      <trkpt lat="49.5354" lon="3.52276">
        <ele>239.5</ele>
        <time>2016-01-25T13:57:03.299Z</time>
      </trkpt>
      <trkpt lat="49.53539" lon="3.52274">
        <ele>239.8</ele>
        <time>2016-01-25T13:57:07.364Z</time>
      </trkpt>
      <trkpt lat="49.53537" lon="3.52271">
        <ele>239.9</ele>
        <time>2016-01-25T13:57:08.354Z</time>
      </trkpt>
      <trkpt lat="49.53534" lon="3.52266">
        <ele>239.9</ele>
        <time>2016-01-25T13:57:11.406Z</time>
      </trkpt>
      <trkpt lat="49.53534" lon="3.52266">
        <ele>239.9</ele>
        <time>2016-01-25T13:57:12.388Z</time>
      </trkpt>
      <trkpt lat="49.53534" lon="3.52266">
        <ele>239.9</ele>
        <time>2016-01-25T13:57:12.405Z</time>
      </trkpt>
      <trkpt lat="49.53533" lon="3.52265">
        <ele>240</ele>
        <time>2016-01-25T13:57:13.401Z</time>
      </trkpt>
      <trkpt lat="49.5353" lon="3.52262">
        <ele>240.1</ele>
        <time>2016-01-25T13:57:17.336Z</time>
      </trkpt>
      <trkpt lat="49.5353" lon="3.52261">
        <ele>240</ele>
        <time>2016-01-25T13:57:18.331Z</time>
      </trkpt>
      <trkpt lat="49.53529" lon="3.5226">
        <ele>240</ele>
        <time>2016-01-25T13:57:28.328Z</time>
      </trkpt>
      <trkpt lat="49.53524" lon="3.52249">
        <ele>238.6</ele>
        <time>2016-01-25T13:57:29.319Z</time>
      </trkpt>
      <trkpt lat="49.53525" lon="3.52235">
        <ele>239.2</ele>
        <time>2016-01-25T13:57:39.375Z</time>
      </trkpt>
      <trkpt lat="49.53524" lon="3.52234">
        <ele>239.1</ele>
        <time>2016-01-25T13:57:40.362Z</time>
      </trkpt>
      <trkpt lat="49.53518" lon="3.52226">
        <ele>239.1</ele>
        <time>2016-01-25T13:57:49.351Z</time>
      </trkpt>
      <trkpt lat="49.53517" lon="3.52225">
        <ele>238.7</ele>
        <time>2016-01-25T13:57:50.345Z</time>
      </trkpt>
      <trkpt lat="49.53512" lon="3.52219">
        <ele>237</ele>
        <time>2016-01-25T13:57:55.631Z</time>
      </trkpt>
      <trkpt lat="49.53509" lon="3.52218">
        <ele>236.1</ele>
        <time>2016-01-25T13:57:56.297Z</time>
      </trkpt>
      <trkpt lat="49.53505" lon="3.52208">
        <ele>236.5</ele>
        <time>2016-01-25T13:58:03.376Z</time>
      </trkpt>
      <trkpt lat="49.53503" lon="3.52207">
        <ele>236.1</ele>
        <time>2016-01-25T13:58:04.367Z</time>
      </trkpt>
      <trkpt lat="49.53497" lon="3.52197">
        <ele>234.5</ele>
        <time>2016-01-25T13:58:11.335Z</time>
      </trkpt>
      <trkpt lat="49.53497" lon="3.52196">
        <ele>234.2</ele>
        <time>2016-01-25T13:58:12.333Z</time>
      </trkpt>
      <trkpt lat="49.53497" lon="3.52196">
        <ele>234.2</ele>
        <time>2016-01-25T13:58:12.351Z</time>
      </trkpt>
      <trkpt lat="49.53496" lon="3.52195">
        <ele>233.7</ele>
        <time>2016-01-25T13:58:13.348Z</time>
      </trkpt>
      <trkpt lat="49.53491" lon="3.52184">
        <ele>233</ele>
        <time>2016-01-25T13:58:21.326Z</time>
      </trkpt>
      <trkpt lat="49.5349" lon="3.52183">
        <ele>232.8</ele>
        <time>2016-01-25T13:58:22.320Z</time>
      </trkpt>
      <trkpt lat="49.53486" lon="3.52172">
        <ele>233.1</ele>
        <time>2016-01-25T13:58:32.319Z</time>
      </trkpt>
      <trkpt lat="49.53485" lon="3.5217">
        <ele>233.3</ele>
        <time>2016-01-25T13:58:33.299Z</time>
      </trkpt>
      <trkpt lat="49.53478" lon="3.52162">
        <ele>233.5</ele>
        <time>2016-01-25T13:58:40.385Z</time>
      </trkpt>
      <trkpt lat="49.53477" lon="3.5216">
        <ele>233.6</ele>
        <time>2016-01-25T13:58:41.376Z</time>
      </trkpt>
      <trkpt lat="49.53473" lon="3.5215">
        <ele>234.5</ele>
        <time>2016-01-25T13:58:47.340Z</time>
      </trkpt>
      <trkpt lat="49.53472" lon="3.52148">
        <ele>234.6</ele>
        <time>2016-01-25T13:58:48.332Z</time>
      </trkpt>
      <trkpt lat="49.53469" lon="3.52136">
        <ele>234.6</ele>
        <time>2016-01-25T13:58:55.417Z</time>
      </trkpt>
      <trkpt lat="49.53469" lon="3.52134">
        <ele>234.6</ele>
        <time>2016-01-25T13:58:56.298Z</time>
      </trkpt>
      <trkpt lat="49.53466" lon="3.52121">
        <ele>233.9</ele>
        <time>2016-01-25T13:59:04.389Z</time>
      </trkpt>
      <trkpt lat="49.53466" lon="3.5212">
        <ele>233.8</ele>
        <time>2016-01-25T13:59:05.381Z</time>
      </trkpt>
      <trkpt lat="49.53464" lon="3.52107">
        <ele>233.4</ele>
        <time>2016-01-25T13:59:14.375Z</time>
      </trkpt>
      <trkpt lat="49.53464" lon="3.52106">
        <ele>233.6</ele>
        <time>2016-01-25T13:59:15.366Z</time>
      </trkpt>
      <trkpt lat="49.5346" lon="3.52093">
        <ele>234.2</ele>
        <time>2016-01-25T13:59:23.394Z</time>
      </trkpt>
      <trkpt lat="49.53459" lon="3.52092">
        <ele>234.3</ele>
        <time>2016-01-25T13:59:24.286Z</time>
      </trkpt>
      <trkpt lat="49.53455" lon="3.5208">
        <ele>234.7</ele>
        <time>2016-01-25T13:59:32.295Z</time>
      </trkpt>
      <trkpt lat="49.53455" lon="3.52078">
        <ele>234.5</ele>
        <time>2016-01-25T13:59:33.290Z</time>
      </trkpt>
      <trkpt lat="49.53454" lon="3.52065">
        <ele>232.9</ele>
        <time>2016-01-25T13:59:41.379Z</time>
      </trkpt>
      <trkpt lat="49.53453" lon="3.52063">
        <ele>232.8</ele>
        <time>2016-01-25T13:59:42.369Z</time>
      </trkpt>
      <trkpt lat="49.53449" lon="3.52053">
        <ele>232.9</ele>
        <time>2016-01-25T13:59:50.387Z</time>
      </trkpt>
      <trkpt lat="49.53448" lon="3.52052">
        <ele>232.8</ele>
        <time>2016-01-25T13:59:51.356Z</time>
      </trkpt>
      <trkpt lat="49.53441" lon="3.52044">
        <ele>232.2</ele>
        <time>2016-01-25T13:59:59.360Z</time>
      </trkpt>
      <trkpt lat="49.53441" lon="3.52043">
        <ele>232.1</ele>
        <time>2016-01-25T14:00:00.365Z</time>
      </trkpt>
      <trkpt lat="49.53436" lon="3.52032">
        <ele>231.8</ele>
        <time>2016-01-25T14:00:09.361Z</time>
      </trkpt>
      <trkpt lat="49.53435" lon="3.52031">
        <ele>231.7</ele>
        <time>2016-01-25T14:00:10.348Z</time>
      </trkpt>
      <trkpt lat="49.5343" lon="3.52021">
        <ele>230.9</ele>
        <time>2016-01-25T14:00:18.335Z</time>
      </trkpt>
      <trkpt lat="49.53429" lon="3.5202">
        <ele>230.9</ele>
        <time>2016-01-25T14:00:19.326Z</time>
      </trkpt>
      <trkpt lat="49.53423" lon="3.5201">
        <ele>230.7</ele>
        <time>2016-01-25T14:00:26.299Z</time>
      </trkpt>
      <trkpt lat="49.53423" lon="3.52008">
        <ele>230.7</ele>
        <time>2016-01-25T14:00:27.297Z</time>
      </trkpt>
      <trkpt lat="49.53418" lon="3.51997">
        <ele>230.1</ele>
        <time>2016-01-25T14:00:35.303Z</time>
      </trkpt>
      <trkpt lat="49.53418" lon="3.51996">
        <ele>230</ele>
        <time>2016-01-25T14:00:36.296Z</time>
      </trkpt>
      <trkpt lat="49.53413" lon="3.51984">
        <ele>230</ele>
        <time>2016-01-25T14:00:44.306Z</time>
      </trkpt>
      <trkpt lat="49.53412" lon="3.51983">
        <ele>230</ele>
        <time>2016-01-25T14:00:45.297Z</time>
      </trkpt>
      <trkpt lat="49.53409" lon="3.51971">
        <ele>229.7</ele>
        <time>2016-01-25T14:00:53.393Z</time>
      </trkpt>
      <trkpt lat="49.53408" lon="3.5197">
        <ele>229.7</ele>
        <time>2016-01-25T14:00:54.285Z</time>
      </trkpt>
      <trkpt lat="49.53403" lon="3.51961">
        <ele>229.3</ele>
        <time>2016-01-25T14:01:03.342Z</time>
      </trkpt>
      <trkpt lat="49.53402" lon="3.5196">
        <ele>229.3</ele>
        <time>2016-01-25T14:01:04.302Z</time>
      </trkpt>
      <trkpt lat="49.53397" lon="3.51949">
        <ele>227.8</ele>
        <time>2016-01-25T14:01:12.385Z</time>
      </trkpt>
      <trkpt lat="49.53396" lon="3.51948">
        <ele>227.4</ele>
        <time>2016-01-25T14:01:13.380Z</time>
      </trkpt>
      <trkpt lat="49.53391" lon="3.51938">
        <ele>227.1</ele>
        <time>2016-01-25T14:01:20.366Z</time>
      </trkpt>
      <trkpt lat="49.5339" lon="3.51937">
        <ele>227.2</ele>
        <time>2016-01-25T14:01:21.345Z</time>
      </trkpt>
      <trkpt lat="49.53385" lon="3.51927">
        <ele>227.2</ele>
        <time>2016-01-25T14:01:28.322Z</time>
      </trkpt>
      <trkpt lat="49.53385" lon="3.51926">
        <ele>227.1</ele>
        <time>2016-01-25T14:01:29.312Z</time>
      </trkpt>
      <trkpt lat="49.53379" lon="3.51915">
        <ele>227.6</ele>
        <time>2016-01-25T14:01:37.353Z</time>
      </trkpt>
      <trkpt lat="49.53379" lon="3.51914">
        <ele>227.8</ele>
        <time>2016-01-25T14:01:38.349Z</time>
      </trkpt>
      <trkpt lat="49.53374" lon="3.51903">
        <ele>228.5</ele>
        <time>2016-01-25T14:01:46.549Z</time>
      </trkpt>
      <trkpt lat="49.53374" lon="3.51902">
        <ele>228.5</ele>
        <time>2016-01-25T14:01:47.317Z</time>
      </trkpt>
      <trkpt lat="49.53368" lon="3.51891">
        <ele>228.7</ele>
        <time>2016-01-25T14:01:56.306Z</time>
      </trkpt>
      <trkpt lat="49.53367" lon="3.51889">
        <ele>228.7</ele>
        <time>2016-01-25T14:01:57.304Z</time>
      </trkpt>
      <trkpt lat="49.53366" lon="3.51877">
        <ele>228.2</ele>
        <time>2016-01-25T14:02:05.400Z</time>
      </trkpt>
      <trkpt lat="49.53366" lon="3.51875">
        <ele>228</ele>
        <time>2016-01-25T14:02:06.298Z</time>
      </trkpt>
      <trkpt lat="49.53364" lon="3.51862">
        <ele>227.8</ele>
        <time>2016-01-25T14:02:14.422Z</time>
      </trkpt>
      <trkpt lat="49.53364" lon="3.51861">
        <ele>227.7</ele>
        <time>2016-01-25T14:02:15.395Z</time>
      </trkpt>
      <trkpt lat="49.53363" lon="3.51848">
        <ele>226.8</ele>
        <time>2016-01-25T14:02:24.381Z</time>
      </trkpt>
      <trkpt lat="49.53363" lon="3.51846">
        <ele>226.8</ele>
        <time>2016-01-25T14:02:25.340Z</time>
      </trkpt>
      <trkpt lat="49.53362" lon="3.51833">
        <ele>226.1</ele>
        <time>2016-01-25T14:02:32.426Z</time>
      </trkpt>
      <trkpt lat="49.53362" lon="3.51831">
        <ele>226.2</ele>
        <time>2016-01-25T14:02:33.305Z</time>
      </trkpt>
      <trkpt lat="49.53359" lon="3.51819">
        <ele>226</ele>
        <time>2016-01-25T14:02:39.406Z</time>
      </trkpt>
      <trkpt lat="49.53358" lon="3.51817">
        <ele>225.9</ele>
        <time>2016-01-25T14:02:40.378Z</time>
      </trkpt>
      <trkpt lat="49.53355" lon="3.51805">
        <ele>225.8</ele>
        <time>2016-01-25T14:02:47.349Z</time>
      </trkpt>
      <trkpt lat="49.53354" lon="3.51803">
        <ele>225.7</ele>
        <time>2016-01-25T14:02:48.337Z</time>
      </trkpt>
      <trkpt lat="49.5335" lon="3.51791">
        <ele>225.6</ele>
        <time>2016-01-25T14:02:54.438Z</time>
      </trkpt>
      <trkpt lat="49.5335" lon="3.5179">
        <ele>225.6</ele>
        <time>2016-01-25T14:02:55.408Z</time>
      </trkpt>
      <trkpt lat="49.53346" lon="3.51778">
        <ele>226.1</ele>
        <time>2016-01-25T14:03:03.393Z</time>
      </trkpt>
      <trkpt lat="49.53345" lon="3.51776">
        <ele>226.2</ele>
        <time>2016-01-25T14:03:04.380Z</time>
      </trkpt>
      <trkpt lat="49.53342" lon="3.51764">
        <ele>226.3</ele>
        <time>2016-01-25T14:03:11.352Z</time>
      </trkpt>
      <trkpt lat="49.53341" lon="3.51762">
        <ele>226.3</ele>
        <time>2016-01-25T14:03:12.336Z</time>
      </trkpt>
      <trkpt lat="49.53338" lon="3.51751">
        <ele>226.4</ele>
        <time>2016-01-25T14:03:19.353Z</time>
      </trkpt>
      <trkpt lat="49.53337" lon="3.51749">
        <ele>226.4</ele>
        <time>2016-01-25T14:03:20.341Z</time>
      </trkpt>
      <trkpt lat="49.53334" lon="3.51738">
        <ele>226.6</ele>
        <time>2016-01-25T14:03:26.315Z</time>
      </trkpt>
      <trkpt lat="49.53334" lon="3.51736">
        <ele>226.8</ele>
        <time>2016-01-25T14:03:27.295Z</time>
      </trkpt>
      <trkpt lat="49.53331" lon="3.51724">
        <ele>227</ele>
        <time>2016-01-25T14:03:34.383Z</time>
      </trkpt>
      <trkpt lat="49.53331" lon="3.51722">
        <ele>227</ele>
        <time>2016-01-25T14:03:35.376Z</time>
      </trkpt>
      <trkpt lat="49.53327" lon="3.5171">
        <ele>227.6</ele>
        <time>2016-01-25T14:03:43.363Z</time>
      </trkpt>
      <trkpt lat="49.53327" lon="3.51708">
        <ele>227.5</ele>
        <time>2016-01-25T14:03:44.367Z</time>
      </trkpt>
      <trkpt lat="49.53323" lon="3.51697">
        <ele>226.8</ele>
        <time>2016-01-25T14:03:52.339Z</time>
      </trkpt>
      <trkpt lat="49.53322" lon="3.51695">
        <ele>226.8</ele>
        <time>2016-01-25T14:03:53.333Z</time>
      </trkpt>
      <trkpt lat="49.53319" lon="3.51682">
        <ele>226</ele>
        <time>2016-01-25T14:04:01.422Z</time>
      </trkpt>
      <trkpt lat="49.53318" lon="3.51681">
        <ele>226</ele>
        <time>2016-01-25T14:04:02.304Z</time>
      </trkpt>
      <trkpt lat="49.53316" lon="3.5167">
        <ele>226.4</ele>
        <time>2016-01-25T14:04:08.380Z</time>
      </trkpt>
      <trkpt lat="49.53315" lon="3.51667">
        <ele>226.5</ele>
        <time>2016-01-25T14:04:09.374Z</time>
      </trkpt>
      <trkpt lat="49.53313" lon="3.51655">
        <ele>227</ele>
        <time>2016-01-25T14:04:16.392Z</time>
      </trkpt>
      <trkpt lat="49.53313" lon="3.51653">
        <ele>227.1</ele>
        <time>2016-01-25T14:04:17.383Z</time>
      </trkpt>
      <trkpt lat="49.5331" lon="3.5164">
        <ele>227.7</ele>
        <time>2016-01-25T14:04:24.355Z</time>
      </trkpt>
      <trkpt lat="49.53309" lon="3.51639">
        <ele>227.9</ele>
        <time>2016-01-25T14:04:25.555Z</time>
      </trkpt>
      <trkpt lat="49.53306" lon="3.51628">
        <ele>228.3</ele>
        <time>2016-01-25T14:04:32.382Z</time>
      </trkpt>
      <trkpt lat="49.53306" lon="3.51626">
        <ele>228.4</ele>
        <time>2016-01-25T14:04:33.370Z</time>
      </trkpt>
      <trkpt lat="49.53302" lon="3.51614">
        <ele>228.6</ele>
        <time>2016-01-25T14:04:39.315Z</time>
      </trkpt>
      <trkpt lat="49.53302" lon="3.51612">
        <ele>228.6</ele>
        <time>2016-01-25T14:04:40.345Z</time>
      </trkpt>
      <trkpt lat="49.53297" lon="3.51602">
        <ele>228.7</ele>
        <time>2016-01-25T14:04:49.352Z</time>
      </trkpt>
      <trkpt lat="49.53296" lon="3.516">
        <ele>228.7</ele>
        <time>2016-01-25T14:04:50.347Z</time>
      </trkpt>
      <trkpt lat="49.53292" lon="3.51588">
        <ele>228.1</ele>
        <time>2016-01-25T14:04:57.322Z</time>
      </trkpt>
      <trkpt lat="49.53291" lon="3.51586">
        <ele>228.1</ele>
        <time>2016-01-25T14:04:58.313Z</time>
      </trkpt>
      <trkpt lat="49.53287" lon="3.51574">
        <ele>228.1</ele>
        <time>2016-01-25T14:05:05.392Z</time>
      </trkpt>
      <trkpt lat="49.53287" lon="3.51572">
        <ele>228.1</ele>
        <time>2016-01-25T14:05:06.384Z</time>
      </trkpt>
      <trkpt lat="49.53283" lon="3.51561">
        <ele>228.2</ele>
        <time>2016-01-25T14:05:12.343Z</time>
      </trkpt>
      <trkpt lat="49.53283" lon="3.51559">
        <ele>228.2</ele>
        <time>2016-01-25T14:05:13.343Z</time>
      </trkpt>
      <trkpt lat="49.53279" lon="3.51547">
        <ele>228.8</ele>
        <time>2016-01-25T14:05:19.415Z</time>
      </trkpt>
      <trkpt lat="49.53279" lon="3.51545">
        <ele>228.8</ele>
        <time>2016-01-25T14:05:20.489Z</time>
      </trkpt>
      <trkpt lat="49.53275" lon="3.51533">
        <ele>229</ele>
        <time>2016-01-25T14:05:27.402Z</time>
      </trkpt>
      <trkpt lat="49.53275" lon="3.51531">
        <ele>229.1</ele>
        <time>2016-01-25T14:05:28.380Z</time>
      </trkpt>
      <trkpt lat="49.53272" lon="3.5152">
        <ele>229.4</ele>
        <time>2016-01-25T14:05:34.408Z</time>
      </trkpt>
      <trkpt lat="49.53272" lon="3.51518">
        <ele>229.3</ele>
        <time>2016-01-25T14:05:35.388Z</time>
      </trkpt>
      <trkpt lat="49.53269" lon="3.51506">
        <ele>229.7</ele>
        <time>2016-01-25T14:05:41.360Z</time>
      </trkpt>
      <trkpt lat="49.53268" lon="3.51504">
        <ele>229.7</ele>
        <time>2016-01-25T14:05:42.353Z</time>
      </trkpt>
      <trkpt lat="49.53264" lon="3.51492">
        <ele>230</ele>
        <time>2016-01-25T14:05:49.468Z</time>
      </trkpt>
      <trkpt lat="49.53264" lon="3.5149">
        <ele>230.1</ele>
        <time>2016-01-25T14:05:50.320Z</time>
      </trkpt>
      <trkpt lat="49.5326" lon="3.51478">
        <ele>230.2</ele>
        <time>2016-01-25T14:05:57.393Z</time>
      </trkpt>
      <trkpt lat="49.53259" lon="3.51476">
        <ele>230.2</ele>
        <time>2016-01-25T14:05:58.389Z</time>
      </trkpt>
      <trkpt lat="49.53256" lon="3.51464">
        <ele>230.4</ele>
        <time>2016-01-25T14:06:04.356Z</time>
      </trkpt>
      <trkpt lat="49.53255" lon="3.51463">
        <ele>230.4</ele>
        <time>2016-01-25T14:06:05.346Z</time>
      </trkpt>
      <trkpt lat="49.53251" lon="3.51451">
        <ele>230.3</ele>
        <time>2016-01-25T14:06:12.332Z</time>
      </trkpt>
      <trkpt lat="49.53251" lon="3.51449">
        <ele>230.2</ele>
        <time>2016-01-25T14:06:13.355Z</time>
      </trkpt>
      <trkpt lat="49.53247" lon="3.51439">
        <ele>230.1</ele>
        <time>2016-01-25T14:06:19.376Z</time>
      </trkpt>
      <trkpt lat="49.53246" lon="3.51437">
        <ele>230.1</ele>
        <time>2016-01-25T14:06:20.363Z</time>
      </trkpt>
      <trkpt lat="49.53243" lon="3.51426">
        <ele>230.4</ele>
        <time>2016-01-25T14:06:26.332Z</time>
      </trkpt>
      <trkpt lat="49.53242" lon="3.51424">
        <ele>230.5</ele>
        <time>2016-01-25T14:06:27.316Z</time>
      </trkpt>
      <trkpt lat="49.53238" lon="3.51412">
        <ele>230.1</ele>
        <time>2016-01-25T14:06:34.424Z</time>
      </trkpt>
      <trkpt lat="49.53237" lon="3.51411">
        <ele>230</ele>
        <time>2016-01-25T14:06:35.305Z</time>
      </trkpt>
      <trkpt lat="49.53234" lon="3.51399">
        <ele>229.4</ele>
        <time>2016-01-25T14:06:42.408Z</time>
      </trkpt>
      <trkpt lat="49.53233" lon="3.51397">
        <ele>229.5</ele>
        <time>2016-01-25T14:06:43.400Z</time>
      </trkpt>
      <trkpt lat="49.53229" lon="3.51387">
        <ele>229.9</ele>
        <time>2016-01-25T14:06:49.372Z</time>
      </trkpt>
      <trkpt lat="49.53229" lon="3.51385">
        <ele>229.9</ele>
        <time>2016-01-25T14:06:50.365Z</time>
      </trkpt>
      <trkpt lat="49.53225" lon="3.51374">
        <ele>230.1</ele>
        <time>2016-01-25T14:06:56.327Z</time>
      </trkpt>
      <trkpt lat="49.53224" lon="3.51372">
        <ele>230.2</ele>
        <time>2016-01-25T14:06:57.309Z</time>
      </trkpt>
      <trkpt lat="49.5322" lon="3.51362">
        <ele>230.4</ele>
        <time>2016-01-25T14:07:03.395Z</time>
      </trkpt>
      <trkpt lat="49.5322" lon="3.5136">
        <ele>230.4</ele>
        <time>2016-01-25T14:07:04.384Z</time>
      </trkpt>
      <trkpt lat="49.53217" lon="3.51358">
        <ele>229.1</ele>
        <time>2016-01-25T14:07:12.319Z</time>
      </trkpt>
      <trkpt lat="49.53216" lon="3.51358">
        <ele>229</ele>
        <time>2016-01-25T14:07:13.411Z</time>
      </trkpt>
      <trkpt lat="49.53216" lon="3.51358">
        <ele>229</ele>
        <time>2016-01-25T14:07:13.433Z</time>
      </trkpt>
      <trkpt lat="49.53216" lon="3.51358">
        <ele>229</ele>
        <time>2016-01-25T14:07:14.320Z</time>
      </trkpt>
      <trkpt lat="49.53215" lon="3.51357">
        <ele>228.2</ele>
        <time>2016-01-25T14:07:24.328Z</time>
      </trkpt>
      <trkpt lat="49.53215" lon="3.51357">
        <ele>228.3</ele>
        <time>2016-01-25T14:07:25.416Z</time>
      </trkpt>
      <trkpt lat="49.53215" lon="3.51357">
        <ele>228.2</ele>
        <time>2016-01-25T14:09:11.417Z</time>
      </trkpt>
      <trkpt lat="49.53217" lon="3.51359">
        <ele>227.9</ele>
        <time>2016-01-25T14:09:12.406Z</time>
      </trkpt>
      <trkpt lat="49.5322" lon="3.51362">
        <ele>228</ele>
        <time>2016-01-25T14:09:18.371Z</time>
      </trkpt>
      <trkpt lat="49.5322" lon="3.51363">
        <ele>228</ele>
        <time>2016-01-25T14:09:19.368Z</time>
      </trkpt>
      <trkpt lat="49.5322" lon="3.51363">
        <ele>228.1</ele>
        <time>2016-01-25T14:10:05.347Z</time>
      </trkpt>
      <trkpt lat="49.53218" lon="3.51363">
        <ele>228.1</ele>
        <time>2016-01-25T14:10:06.332Z</time>
      </trkpt>
      <trkpt lat="49.5321" lon="3.51368">
        <ele>227.7</ele>
        <time>2016-01-25T14:10:16.344Z</time>
      </trkpt>
      <trkpt lat="49.53209" lon="3.51369">
        <ele>227.6</ele>
        <time>2016-01-25T14:10:17.339Z</time>
      </trkpt>
      <trkpt lat="49.53203" lon="3.51377">
        <ele>226.9</ele>
        <time>2016-01-25T14:10:24.319Z</time>
      </trkpt>
      <trkpt lat="49.53202" lon="3.51378">
        <ele>226.9</ele>
        <time>2016-01-25T14:10:25.354Z</time>
      </trkpt>
      <trkpt lat="49.53196" lon="3.51387">
        <ele>227.1</ele>
        <time>2016-01-25T14:10:33.399Z</time>
      </trkpt>
      <trkpt lat="49.53195" lon="3.51388">
        <ele>227.1</ele>
        <time>2016-01-25T14:10:34.389Z</time>
      </trkpt>
      <trkpt lat="49.53189" lon="3.51397">
        <ele>226.9</ele>
        <time>2016-01-25T14:10:41.345Z</time>
      </trkpt>
      <trkpt lat="49.53188" lon="3.51398">
        <ele>226.9</ele>
        <time>2016-01-25T14:10:42.339Z</time>
      </trkpt>
      <trkpt lat="49.53181" lon="3.51406">
        <ele>225.8</ele>
        <time>2016-01-25T14:10:50.344Z</time>
      </trkpt>
      <trkpt lat="49.53181" lon="3.51407">
        <ele>225.7</ele>
        <time>2016-01-25T14:10:51.312Z</time>
      </trkpt>
      <trkpt lat="49.53174" lon="3.51415">
        <ele>225</ele>
        <time>2016-01-25T14:10:58.612Z</time>
      </trkpt>
      <trkpt lat="49.53173" lon="3.51416">
        <ele>225.1</ele>
        <time>2016-01-25T14:10:59.308Z</time>
      </trkpt>
      <trkpt lat="49.53167" lon="3.51425">
        <ele>224.9</ele>
        <time>2016-01-25T14:11:06.418Z</time>
      </trkpt>
      <trkpt lat="49.53166" lon="3.51426">
        <ele>224.9</ele>
        <time>2016-01-25T14:11:07.412Z</time>
      </trkpt>
      <trkpt lat="49.5316" lon="3.51435">
        <ele>224.9</ele>
        <time>2016-01-25T14:11:14.379Z</time>
      </trkpt>
      <trkpt lat="49.53159" lon="3.51436">
        <ele>224.9</ele>
        <time>2016-01-25T14:11:15.363Z</time>
      </trkpt>
      <trkpt lat="49.53153" lon="3.51445">
        <ele>224.8</ele>
        <time>2016-01-25T14:11:22.337Z</time>
      </trkpt>
      <trkpt lat="49.53152" lon="3.51446">
        <ele>224.7</ele>
        <time>2016-01-25T14:11:23.327Z</time>
      </trkpt>
      <trkpt lat="49.53145" lon="3.51454">
        <ele>224.1</ele>
        <time>2016-01-25T14:11:30.416Z</time>
      </trkpt>
      <trkpt lat="49.53144" lon="3.51455">
        <ele>224.1</ele>
        <time>2016-01-25T14:11:31.408Z</time>
      </trkpt>
      <trkpt lat="49.53138" lon="3.51463">
        <ele>223.3</ele>
        <time>2016-01-25T14:11:38.367Z</time>
      </trkpt>
      <trkpt lat="49.53137" lon="3.51465">
        <ele>223.2</ele>
        <time>2016-01-25T14:11:39.370Z</time>
      </trkpt>
      <trkpt lat="49.53131" lon="3.51473">
        <ele>222.5</ele>
        <time>2016-01-25T14:11:46.346Z</time>
      </trkpt>
      <trkpt lat="49.5313" lon="3.51474">
        <ele>222.4</ele>
        <time>2016-01-25T14:11:47.336Z</time>
      </trkpt>
      <trkpt lat="49.53124" lon="3.51482">
        <ele>221.2</ele>
        <time>2016-01-25T14:11:54.318Z</time>
      </trkpt>
      <trkpt lat="49.53123" lon="3.51483">
        <ele>221</ele>
        <time>2016-01-25T14:11:55.414Z</time>
      </trkpt>
      <trkpt lat="49.53116" lon="3.51491">
        <ele>220.2</ele>
        <time>2016-01-25T14:12:03.397Z</time>
      </trkpt>
      <trkpt lat="49.53116" lon="3.51492">
        <ele>220</ele>
        <time>2016-01-25T14:12:04.389Z</time>
      </trkpt>
      <trkpt lat="49.53109" lon="3.51501">
        <ele>219.2</ele>
        <time>2016-01-25T14:12:12.360Z</time>
      </trkpt>
      <trkpt lat="49.53108" lon="3.51502">
        <ele>219</ele>
        <time>2016-01-25T14:12:13.358Z</time>
      </trkpt>
      <trkpt lat="49.53101" lon="3.51509">
        <ele>218.1</ele>
        <time>2016-01-25T14:12:21.327Z</time>
      </trkpt>
      <trkpt lat="49.531" lon="3.5151">
        <ele>217.9</ele>
        <time>2016-01-25T14:12:22.321Z</time>
      </trkpt>
      <trkpt lat="49.53092" lon="3.51517">
        <ele>216.3</ele>
        <time>2016-01-25T14:12:30.421Z</time>
      </trkpt>
      <trkpt lat="49.53091" lon="3.51518">
        <ele>216.2</ele>
        <time>2016-01-25T14:12:31.570Z</time>
      </trkpt>
      <trkpt lat="49.53084" lon="3.51524">
        <ele>216.3</ele>
        <time>2016-01-25T14:12:38.393Z</time>
      </trkpt>
      <trkpt lat="49.53083" lon="3.51525">
        <ele>216.2</ele>
        <time>2016-01-25T14:12:39.386Z</time>
      </trkpt>
      <trkpt lat="49.53078" lon="3.51532">
        <ele>216.5</ele>
        <time>2016-01-25T14:12:46.386Z</time>
      </trkpt>
      <trkpt lat="49.53078" lon="3.51532">
        <ele>216.5</ele>
        <time>2016-01-25T14:12:47.380Z</time>
      </trkpt>
      <trkpt lat="49.53078" lon="3.51532">
        <ele>216.6</ele>
        <time>2016-01-25T14:13:00.428Z</time>
      </trkpt>
      <trkpt lat="49.53079" lon="3.51535">
        <ele>217</ele>
        <time>2016-01-25T14:13:01.416Z</time>
      </trkpt>
      <trkpt lat="49.5308" lon="3.51534">
        <ele>216.8</ele>
        <time>2016-01-25T14:13:03.331Z</time>
      </trkpt>
      <trkpt lat="49.5308" lon="3.51533">
        <ele>216.6</ele>
        <time>2016-01-25T14:13:04.323Z</time>
      </trkpt>
      <trkpt lat="49.5308" lon="3.51533">
        <ele>216.6</ele>
        <time>2016-01-25T14:13:53.430Z</time>
      </trkpt>
      <trkpt lat="49.53079" lon="3.51536">
        <ele>216.2</ele>
        <time>2016-01-25T14:13:54.311Z</time>
      </trkpt>
      <trkpt lat="49.53078" lon="3.51549">
        <ele>215.1</ele>
        <time>2016-01-25T14:14:02.409Z</time>
      </trkpt>
      <trkpt lat="49.53078" lon="3.51551">
        <ele>215</ele>
        <time>2016-01-25T14:14:03.397Z</time>
      </trkpt>
      <trkpt lat="49.53077" lon="3.51564">
        <ele>214.4</ele>
        <time>2016-01-25T14:14:09.450Z</time>
      </trkpt>
      <trkpt lat="49.53077" lon="3.51567">
        <ele>214.4</ele>
        <time>2016-01-25T14:14:10.375Z</time>
      </trkpt>
      <trkpt lat="49.53076" lon="3.51579">
        <ele>213.8</ele>
        <time>2016-01-25T14:14:16.334Z</time>
      </trkpt>
      <trkpt lat="49.53076" lon="3.51582">
        <ele>213.7</ele>
        <time>2016-01-25T14:14:17.320Z</time>
      </trkpt>
      <trkpt lat="49.53076" lon="3.51595">
        <ele>213</ele>
        <time>2016-01-25T14:14:23.401Z</time>
      </trkpt>
      <trkpt lat="49.53076" lon="3.51597">
        <ele>213</ele>
        <time>2016-01-25T14:14:24.397Z</time>
      </trkpt>
      <trkpt lat="49.53076" lon="3.51609">
        <ele>212.6</ele>
        <time>2016-01-25T14:14:30.360Z</time>
      </trkpt>
      <trkpt lat="49.53076" lon="3.51611">
        <ele>212.6</ele>
        <time>2016-01-25T14:14:31.358Z</time>
      </trkpt>
      <trkpt lat="49.53075" lon="3.51625">
        <ele>212.2</ele>
        <time>2016-01-25T14:14:37.434Z</time>
      </trkpt>
      <trkpt lat="49.53075" lon="3.51627">
        <ele>212.2</ele>
        <time>2016-01-25T14:14:38.299Z</time>
      </trkpt>
      <trkpt lat="49.53072" lon="3.51638">
        <ele>211.9</ele>
        <time>2016-01-25T14:14:43.369Z</time>
      </trkpt>
      <trkpt lat="49.53071" lon="3.5164">
        <ele>212</ele>
        <time>2016-01-25T14:14:44.362Z</time>
      </trkpt>
      <trkpt lat="49.53067" lon="3.5165">
        <ele>212.4</ele>
        <time>2016-01-25T14:14:49.418Z</time>
      </trkpt>
      <trkpt lat="49.53066" lon="3.51651">
        <ele>212.5</ele>
        <time>2016-01-25T14:14:50.418Z</time>
      </trkpt>
      <trkpt lat="49.53061" lon="3.51663">
        <ele>213.1</ele>
        <time>2016-01-25T14:14:56.381Z</time>
      </trkpt>
      <trkpt lat="49.5306" lon="3.51664">
        <ele>213.1</ele>
        <time>2016-01-25T14:14:57.369Z</time>
      </trkpt>
      <trkpt lat="49.53055" lon="3.51674">
        <ele>213.5</ele>
        <time>2016-01-25T14:15:03.323Z</time>
      </trkpt>
      <trkpt lat="49.53054" lon="3.51676">
        <ele>213.6</ele>
        <time>2016-01-25T14:15:04.317Z</time>
      </trkpt>
      <trkpt lat="49.53048" lon="3.51684">
        <ele>214.1</ele>
        <time>2016-01-25T14:15:10.407Z</time>
      </trkpt>
      <trkpt lat="49.53047" lon="3.51686">
        <ele>214.3</ele>
        <time>2016-01-25T14:15:11.398Z</time>
      </trkpt>
      <trkpt lat="49.53039" lon="3.51693">
        <ele>215</ele>
        <time>2016-01-25T14:15:18.351Z</time>
      </trkpt>
      <trkpt lat="49.53038" lon="3.51694">
        <ele>215</ele>
        <time>2016-01-25T14:15:19.358Z</time>
      </trkpt>
      <trkpt lat="49.5303" lon="3.517">
        <ele>215.9</ele>
        <time>2016-01-25T14:15:27.336Z</time>
      </trkpt>
      <trkpt lat="49.53029" lon="3.517">
        <ele>215.9</ele>
        <time>2016-01-25T14:15:28.329Z</time>
      </trkpt>
      <trkpt lat="49.53022" lon="3.51706">
        <ele>216.3</ele>
        <time>2016-01-25T14:15:36.415Z</time>
      </trkpt>
      <trkpt lat="49.53021" lon="3.51707">
        <ele>216.3</ele>
        <time>2016-01-25T14:15:37.401Z</time>
      </trkpt>
      <trkpt lat="49.53014" lon="3.51713">
        <ele>217</ele>
        <time>2016-01-25T14:15:43.369Z</time>
      </trkpt>
      <trkpt lat="49.53013" lon="3.51714">
        <ele>217.2</ele>
        <time>2016-01-25T14:15:44.374Z</time>
      </trkpt>
      <trkpt lat="49.53005" lon="3.51719">
        <ele>218.3</ele>
        <time>2016-01-25T14:15:50.367Z</time>
      </trkpt>
      <trkpt lat="49.53004" lon="3.5172">
        <ele>218.2</ele>
        <time>2016-01-25T14:15:51.357Z</time>
      </trkpt>
      <trkpt lat="49.52996" lon="3.51724">
        <ele>218.4</ele>
        <time>2016-01-25T14:15:57.317Z</time>
      </trkpt>
      <trkpt lat="49.52995" lon="3.51725">
        <ele>218.5</ele>
        <time>2016-01-25T14:15:58.313Z</time>
      </trkpt>
      <trkpt lat="49.52988" lon="3.51731">
        <ele>218.9</ele>
        <time>2016-01-25T14:16:03.392Z</time>
      </trkpt>
      <trkpt lat="49.52986" lon="3.51732">
        <ele>219.1</ele>
        <time>2016-01-25T14:16:04.396Z</time>
      </trkpt>
      <trkpt lat="49.52979" lon="3.51739">
        <ele>219.6</ele>
        <time>2016-01-25T14:16:10.400Z</time>
      </trkpt>
      <trkpt lat="49.52977" lon="3.51741">
        <ele>219.6</ele>
        <time>2016-01-25T14:16:11.392Z</time>
      </trkpt>
      <trkpt lat="49.52971" lon="3.51747">
        <ele>219.7</ele>
        <time>2016-01-25T14:16:16.340Z</time>
      </trkpt>
      <trkpt lat="49.5297" lon="3.51749">
        <ele>219.6</ele>
        <time>2016-01-25T14:16:17.330Z</time>
      </trkpt>
      <trkpt lat="49.52963" lon="3.51756">
        <ele>219.6</ele>
        <time>2016-01-25T14:16:22.399Z</time>
      </trkpt>
      <trkpt lat="49.52962" lon="3.51757">
        <ele>219.6</ele>
        <time>2016-01-25T14:16:23.384Z</time>
      </trkpt>
      <trkpt lat="49.52956" lon="3.51764">
        <ele>220.2</ele>
        <time>2016-01-25T14:16:28.331Z</time>
      </trkpt>
      <trkpt lat="49.52954" lon="3.51766">
        <ele>220.3</ele>
        <time>2016-01-25T14:16:29.318Z</time>
      </trkpt>
      <trkpt lat="49.52948" lon="3.51775">
        <ele>221.1</ele>
        <time>2016-01-25T14:16:35.405Z</time>
      </trkpt>
      <trkpt lat="49.52947" lon="3.51776">
        <ele>221.3</ele>
        <time>2016-01-25T14:16:36.398Z</time>
      </trkpt>
      <trkpt lat="49.52941" lon="3.51784">
        <ele>222.3</ele>
        <time>2016-01-25T14:16:41.352Z</time>
      </trkpt>
      <trkpt lat="49.5294" lon="3.51785">
        <ele>222.5</ele>
        <time>2016-01-25T14:16:42.345Z</time>
      </trkpt>
      <trkpt lat="49.52933" lon="3.51791">
        <ele>223.2</ele>
        <time>2016-01-25T14:16:47.418Z</time>
      </trkpt>
      <trkpt lat="49.52932" lon="3.51792">
        <ele>223.3</ele>
        <time>2016-01-25T14:16:48.309Z</time>
      </trkpt>
      <trkpt lat="49.52926" lon="3.518">
        <ele>223.5</ele>
        <time>2016-01-25T14:16:54.368Z</time>
      </trkpt>
      <trkpt lat="49.52924" lon="3.51802">
        <ele>223.6</ele>
        <time>2016-01-25T14:16:55.381Z</time>
      </trkpt>
      <trkpt lat="49.52918" lon="3.51809">
        <ele>223.9</ele>
        <time>2016-01-25T14:17:00.358Z</time>
      </trkpt>
      <trkpt lat="49.52917" lon="3.51811">
        <ele>224.1</ele>
        <time>2016-01-25T14:17:01.374Z</time>
      </trkpt>
      <trkpt lat="49.5291" lon="3.51817">
        <ele>224.9</ele>
        <time>2016-01-25T14:17:06.328Z</time>
      </trkpt>
      <trkpt lat="49.52909" lon="3.51819">
        <ele>225</ele>
        <time>2016-01-25T14:17:07.370Z</time>
      </trkpt>
      <trkpt lat="49.52903" lon="3.51825">
        <ele>225.4</ele>
        <time>2016-01-25T14:17:12.326Z</time>
      </trkpt>
      <trkpt lat="49.52901" lon="3.51827">
        <ele>225.5</ele>
        <time>2016-01-25T14:17:13.370Z</time>
      </trkpt>
      <trkpt lat="49.52894" lon="3.51834">
        <ele>225.5</ele>
        <time>2016-01-25T14:17:18.337Z</time>
      </trkpt>
      <trkpt lat="49.52893" lon="3.51835">
        <ele>225.5</ele>
        <time>2016-01-25T14:17:19.430Z</time>
      </trkpt>
      <trkpt lat="49.52886" lon="3.51842">
        <ele>225.6</ele>
        <time>2016-01-25T14:17:24.361Z</time>
      </trkpt>
      <trkpt lat="49.52885" lon="3.51844">
        <ele>225.6</ele>
        <time>2016-01-25T14:17:25.372Z</time>
      </trkpt>
      <trkpt lat="49.52878" lon="3.51851">
        <ele>225.6</ele>
        <time>2016-01-25T14:17:30.340Z</time>
      </trkpt>
      <trkpt lat="49.52877" lon="3.51853">
        <ele>225.6</ele>
        <time>2016-01-25T14:17:31.371Z</time>
      </trkpt>
      <trkpt lat="49.52871" lon="3.51861">
        <ele>225.8</ele>
        <time>2016-01-25T14:17:36.328Z</time>
      </trkpt>
      <trkpt lat="49.5287" lon="3.51862">
        <ele>225.7</ele>
        <time>2016-01-25T14:17:37.430Z</time>
      </trkpt>
      <trkpt lat="49.52864" lon="3.51871">
        <ele>226.4</ele>
        <time>2016-01-25T14:17:42.391Z</time>
      </trkpt>
      <trkpt lat="49.52863" lon="3.51872">
        <ele>226.4</ele>
        <time>2016-01-25T14:17:43.400Z</time>
      </trkpt>
      <trkpt lat="49.52857" lon="3.51882">
        <ele>226.7</ele>
        <time>2016-01-25T14:17:49.393Z</time>
      </trkpt>
      <trkpt lat="49.52856" lon="3.51884">
        <ele>226.7</ele>
        <time>2016-01-25T14:17:50.380Z</time>
      </trkpt>
      <trkpt lat="49.5285" lon="3.51894">
        <ele>227</ele>
        <time>2016-01-25T14:17:56.439Z</time>
      </trkpt>
      <trkpt lat="49.52849" lon="3.51896">
        <ele>227.1</ele>
        <time>2016-01-25T14:17:57.328Z</time>
      </trkpt>
      <trkpt lat="49.52843" lon="3.51905">
        <ele>227.9</ele>
        <time>2016-01-25T14:18:02.406Z</time>
      </trkpt>
      <trkpt lat="49.52842" lon="3.51907">
        <ele>227.9</ele>
        <time>2016-01-25T14:18:03.397Z</time>
      </trkpt>
      <trkpt lat="49.52837" lon="3.51916">
        <ele>228.2</ele>
        <time>2016-01-25T14:18:08.394Z</time>
      </trkpt>
      <trkpt lat="49.52836" lon="3.51918">
        <ele>228.2</ele>
        <time>2016-01-25T14:18:09.384Z</time>
      </trkpt>
      <trkpt lat="49.5283" lon="3.51928">
        <ele>228.4</ele>
        <time>2016-01-25T14:18:14.392Z</time>
      </trkpt>
      <trkpt lat="49.52828" lon="3.51931">
        <ele>228.5</ele>
        <time>2016-01-25T14:18:15.381Z</time>
      </trkpt>
      <trkpt lat="49.52824" lon="3.51938">
        <ele>228.6</ele>
        <time>2016-01-25T14:18:17.419Z</time>
      </trkpt>
      <trkpt lat="49.52822" lon="3.51941">
        <ele>228.6</ele>
        <time>2016-01-25T14:18:18.309Z</time>
      </trkpt>
      <trkpt lat="49.52819" lon="3.51943">
        <ele>228.9</ele>
        <time>2016-01-25T14:18:23.406Z</time>
      </trkpt>
      <trkpt lat="49.52818" lon="3.51943">
        <ele>229.2</ele>
        <time>2016-01-25T14:18:24.396Z</time>
      </trkpt>
      <trkpt lat="49.52818" lon="3.51943">
        <ele>229.4</ele>
        <time>2016-01-25T14:19:38.373Z</time>
      </trkpt>
      <trkpt lat="49.52818" lon="3.51944">
        <ele>229.4</ele>
        <time>2016-01-25T14:19:39.377Z</time>
      </trkpt>
      <trkpt lat="49.52816" lon="3.51956">
        <ele>229</ele>
        <time>2016-01-25T14:19:47.370Z</time>
      </trkpt>
      <trkpt lat="49.52815" lon="3.51958">
        <ele>229</ele>
        <time>2016-01-25T14:19:48.361Z</time>
      </trkpt>
      <trkpt lat="49.5281" lon="3.51968">
        <ele>229.8</ele>
        <time>2016-01-25T14:19:55.510Z</time>
      </trkpt>
      <trkpt lat="49.52809" lon="3.5197">
        <ele>229.8</ele>
        <time>2016-01-25T14:19:56.320Z</time>
      </trkpt>
      <trkpt lat="49.52803" lon="3.5198">
        <ele>229.7</ele>
        <time>2016-01-25T14:20:03.325Z</time>
      </trkpt>
      <trkpt lat="49.52803" lon="3.51981">
        <ele>229.9</ele>
        <time>2016-01-25T14:20:04.314Z</time>
      </trkpt>
      <trkpt lat="49.52797" lon="3.51991">
        <ele>229.2</ele>
        <time>2016-01-25T14:20:11.406Z</time>
      </trkpt>
      <trkpt lat="49.52797" lon="3.51992">
        <ele>229</ele>
        <time>2016-01-25T14:20:12.393Z</time>
      </trkpt>
      <trkpt lat="49.52791" lon="3.52002">
        <ele>228.6</ele>
        <time>2016-01-25T14:20:19.369Z</time>
      </trkpt>
      <trkpt lat="49.5279" lon="3.52003">
        <ele>228.6</ele>
        <time>2016-01-25T14:20:20.362Z</time>
      </trkpt>
      <trkpt lat="49.52784" lon="3.52013">
        <ele>228.1</ele>
        <time>2016-01-25T14:20:27.331Z</time>
      </trkpt>
      <trkpt lat="49.52783" lon="3.52014">
        <ele>228</ele>
        <time>2016-01-25T14:20:28.328Z</time>
      </trkpt>
      <trkpt lat="49.52778" lon="3.52025">
        <ele>227.7</ele>
        <time>2016-01-25T14:20:35.313Z</time>
      </trkpt>
      <trkpt lat="49.52777" lon="3.52026">
        <ele>227.5</ele>
        <time>2016-01-25T14:20:36.314Z</time>
      </trkpt>
      <trkpt lat="49.52772" lon="3.52036">
        <ele>227</ele>
        <time>2016-01-25T14:20:43.402Z</time>
      </trkpt>
      <trkpt lat="49.52771" lon="3.52037">
        <ele>226.9</ele>
        <time>2016-01-25T14:20:44.298Z</time>
      </trkpt>
      <trkpt lat="49.52766" lon="3.52048">
        <ele>226.2</ele>
        <time>2016-01-25T14:20:50.359Z</time>
      </trkpt>
      <trkpt lat="49.52765" lon="3.5205">
        <ele>226.2</ele>
        <time>2016-01-25T14:20:51.362Z</time>
      </trkpt>
      <trkpt lat="49.5276" lon="3.52059">
        <ele>225.9</ele>
        <time>2016-01-25T14:20:56.403Z</time>
      </trkpt>
      <trkpt lat="49.52759" lon="3.52061">
        <ele>225.9</ele>
        <time>2016-01-25T14:20:57.367Z</time>
      </trkpt>
      <trkpt lat="49.52755" lon="3.5207">
        <ele>225.6</ele>
        <time>2016-01-25T14:21:02.365Z</time>
      </trkpt>
      <trkpt lat="49.52754" lon="3.52072">
        <ele>225.5</ele>
        <time>2016-01-25T14:21:03.358Z</time>
      </trkpt>
      <trkpt lat="49.5275" lon="3.52083">
        <ele>225.1</ele>
        <time>2016-01-25T14:21:09.320Z</time>
      </trkpt>
      <trkpt lat="49.52749" lon="3.52085">
        <ele>225</ele>
        <time>2016-01-25T14:21:10.311Z</time>
      </trkpt>
      <trkpt lat="49.52745" lon="3.52098">
        <ele>224.6</ele>
        <time>2016-01-25T14:21:17.400Z</time>
      </trkpt>
      <trkpt lat="49.52745" lon="3.52099">
        <ele>224.5</ele>
        <time>2016-01-25T14:21:18.389Z</time>
      </trkpt>
      <trkpt lat="49.52741" lon="3.52111">
        <ele>224.2</ele>
        <time>2016-01-25T14:21:25.356Z</time>
      </trkpt>
      <trkpt lat="49.5274" lon="3.52112">
        <ele>224.1</ele>
        <time>2016-01-25T14:21:26.347Z</time>
      </trkpt>
      <trkpt lat="49.52736" lon="3.52124">
        <ele>223.9</ele>
        <time>2016-01-25T14:21:33.335Z</time>
      </trkpt>
      <trkpt lat="49.52735" lon="3.52125">
        <ele>223.9</ele>
        <time>2016-01-25T14:21:34.317Z</time>
      </trkpt>
      <trkpt lat="49.52731" lon="3.52135">
        <ele>223.5</ele>
        <time>2016-01-25T14:21:40.407Z</time>
      </trkpt>
      <trkpt lat="49.5273" lon="3.52137">
        <ele>223.4</ele>
        <time>2016-01-25T14:21:41.396Z</time>
      </trkpt>
      <trkpt lat="49.52725" lon="3.52146">
        <ele>222.8</ele>
        <time>2016-01-25T14:21:47.371Z</time>
      </trkpt>
      <trkpt lat="49.52724" lon="3.52147">
        <ele>222.7</ele>
        <time>2016-01-25T14:21:48.357Z</time>
      </trkpt>
      <trkpt lat="49.52718" lon="3.52157">
        <ele>222.2</ele>
        <time>2016-01-25T14:21:55.388Z</time>
      </trkpt>
      <trkpt lat="49.52717" lon="3.52158">
        <ele>222.1</ele>
        <time>2016-01-25T14:21:56.373Z</time>
      </trkpt>
      <trkpt lat="49.52711" lon="3.52167">
        <ele>221.7</ele>
        <time>2016-01-25T14:22:03.419Z</time>
      </trkpt>
      <trkpt lat="49.5271" lon="3.52168">
        <ele>221.6</ele>
        <time>2016-01-25T14:22:04.398Z</time>
      </trkpt>
      <trkpt lat="49.52704" lon="3.52176">
        <ele>221.1</ele>
        <time>2016-01-25T14:22:11.368Z</time>
      </trkpt>
      <trkpt lat="49.52703" lon="3.52178">
        <ele>221</ele>
        <time>2016-01-25T14:22:12.356Z</time>
      </trkpt>
      <trkpt lat="49.52696" lon="3.52185">
        <ele>220.5</ele>
        <time>2016-01-25T14:22:19.406Z</time>
      </trkpt>
      <trkpt lat="49.52695" lon="3.52186">
        <ele>220.4</ele>
        <time>2016-01-25T14:22:20.395Z</time>
      </trkpt>
      <trkpt lat="49.52688" lon="3.52193">
        <ele>220.1</ele>
        <time>2016-01-25T14:22:27.415Z</time>
      </trkpt>
      <trkpt lat="49.52687" lon="3.52194">
        <ele>220</ele>
        <time>2016-01-25T14:22:28.396Z</time>
      </trkpt>
      <trkpt lat="49.5268" lon="3.522">
        <ele>219.4</ele>
        <time>2016-01-25T14:22:34.359Z</time>
      </trkpt>
      <trkpt lat="49.52679" lon="3.522">
        <ele>219.3</ele>
        <time>2016-01-25T14:22:35.351Z</time>
      </trkpt>
      <trkpt lat="49.52671" lon="3.52207">
        <ele>218.7</ele>
        <time>2016-01-25T14:22:42.331Z</time>
      </trkpt>
      <trkpt lat="49.5267" lon="3.52208">
        <ele>218.6</ele>
        <time>2016-01-25T14:22:43.357Z</time>
      </trkpt>
      <trkpt lat="49.52662" lon="3.52214">
        <ele>217.5</ele>
        <time>2016-01-25T14:22:50.421Z</time>
      </trkpt>
      <trkpt lat="49.52661" lon="3.52215">
        <ele>217.4</ele>
        <time>2016-01-25T14:22:51.317Z</time>
      </trkpt>
      <trkpt lat="49.52654" lon="3.52221">
        <ele>216.7</ele>
        <time>2016-01-25T14:22:58.422Z</time>
      </trkpt>
      <trkpt lat="49.52653" lon="3.52222">
        <ele>216.6</ele>
        <time>2016-01-25T14:22:59.410Z</time>
      </trkpt>
      <trkpt lat="49.52646" lon="3.52228">
        <ele>215.9</ele>
        <time>2016-01-25T14:23:06.336Z</time>
      </trkpt>
      <trkpt lat="49.52645" lon="3.52229">
        <ele>215.8</ele>
        <time>2016-01-25T14:23:07.422Z</time>
      </trkpt>
      <trkpt lat="49.52638" lon="3.52236">
        <ele>215.1</ele>
        <time>2016-01-25T14:23:14.403Z</time>
      </trkpt>
      <trkpt lat="49.52637" lon="3.52237">
        <ele>215</ele>
        <time>2016-01-25T14:23:15.384Z</time>
      </trkpt>
      <trkpt lat="49.52629" lon="3.52243">
        <ele>213.8</ele>
        <time>2016-01-25T14:23:22.420Z</time>
      </trkpt>
      <trkpt lat="49.52628" lon="3.52244">
        <ele>213.6</ele>
        <time>2016-01-25T14:23:23.410Z</time>
      </trkpt>
      <trkpt lat="49.5262" lon="3.52251">
        <ele>213</ele>
        <time>2016-01-25T14:23:33.401Z</time>
      </trkpt>
      <trkpt lat="49.5262" lon="3.52252">
        <ele>212.9</ele>
        <time>2016-01-25T14:23:34.396Z</time>
      </trkpt>
      <trkpt lat="49.52612" lon="3.52258">
        <ele>212.3</ele>
        <time>2016-01-25T14:23:41.366Z</time>
      </trkpt>
      <trkpt lat="49.52611" lon="3.52259">
        <ele>212.2</ele>
        <time>2016-01-25T14:23:42.362Z</time>
      </trkpt>
      <trkpt lat="49.52604" lon="3.52266">
        <ele>211.4</ele>
        <time>2016-01-25T14:23:50.384Z</time>
      </trkpt>
      <trkpt lat="49.52603" lon="3.52267">
        <ele>211.3</ele>
        <time>2016-01-25T14:23:51.373Z</time>
      </trkpt>
      <trkpt lat="49.52596" lon="3.52274">
        <ele>210.9</ele>
        <time>2016-01-25T14:23:58.360Z</time>
      </trkpt>
      <trkpt lat="49.52595" lon="3.52275">
        <ele>210.9</ele>
        <time>2016-01-25T14:23:59.330Z</time>
      </trkpt>
      <trkpt lat="49.52589" lon="3.52283">
        <ele>210.7</ele>
        <time>2016-01-25T14:24:06.419Z</time>
      </trkpt>
      <trkpt lat="49.52588" lon="3.52284">
        <ele>210.6</ele>
        <time>2016-01-25T14:24:07.564Z</time>
      </trkpt>
      <trkpt lat="49.52582" lon="3.52291">
        <ele>210.3</ele>
        <time>2016-01-25T14:24:13.373Z</time>
      </trkpt>
      <trkpt lat="49.52581" lon="3.52293">
        <ele>210.3</ele>
        <time>2016-01-25T14:24:14.364Z</time>
      </trkpt>
      <trkpt lat="49.52574" lon="3.52302">
        <ele>210.1</ele>
        <time>2016-01-25T14:24:21.380Z</time>
      </trkpt>
      <trkpt lat="49.52573" lon="3.52303">
        <ele>210</ele>
        <time>2016-01-25T14:24:22.377Z</time>
      </trkpt>
      <trkpt lat="49.52567" lon="3.52313">
        <ele>209.3</ele>
        <time>2016-01-25T14:24:29.347Z</time>
      </trkpt>
      <trkpt lat="49.52567" lon="3.52315">
        <ele>209.2</ele>
        <time>2016-01-25T14:24:30.338Z</time>
      </trkpt>
      <trkpt lat="49.52562" lon="3.52325">
        <ele>208.9</ele>
        <time>2016-01-25T14:24:36.325Z</time>
      </trkpt>
      <trkpt lat="49.52561" lon="3.52327">
        <ele>208.8</ele>
        <time>2016-01-25T14:24:37.415Z</time>
      </trkpt>
      <trkpt lat="49.52557" lon="3.52338">
        <ele>208.7</ele>
        <time>2016-01-25T14:24:43.383Z</time>
      </trkpt>
      <trkpt lat="49.52556" lon="3.52339">
        <ele>208.6</ele>
        <time>2016-01-25T14:24:44.373Z</time>
      </trkpt>
      <trkpt lat="49.52552" lon="3.52351">
        <ele>208.2</ele>
        <time>2016-01-25T14:24:50.380Z</time>
      </trkpt>
      <trkpt lat="49.52551" lon="3.52352">
        <ele>208</ele>
        <time>2016-01-25T14:24:51.371Z</time>
      </trkpt>
      <trkpt lat="49.52547" lon="3.52363">
        <ele>207.7</ele>
        <time>2016-01-25T14:24:57.377Z</time>
      </trkpt>
      <trkpt lat="49.52546" lon="3.52365">
        <ele>207.7</ele>
        <time>2016-01-25T14:24:58.338Z</time>
      </trkpt>
      <trkpt lat="49.52542" lon="3.52375">
        <ele>207.4</ele>
        <time>2016-01-25T14:25:04.416Z</time>
      </trkpt>
      <trkpt lat="49.52541" lon="3.52377">
        <ele>207.4</ele>
        <time>2016-01-25T14:25:05.400Z</time>
      </trkpt>
      <trkpt lat="49.52537" lon="3.52388">
        <ele>207.7</ele>
        <time>2016-01-25T14:25:11.397Z</time>
      </trkpt>
      <trkpt lat="49.52536" lon="3.5239">
        <ele>207.8</ele>
        <time>2016-01-25T14:25:12.386Z</time>
      </trkpt>
      <trkpt lat="49.52533" lon="3.524">
        <ele>208.5</ele>
        <time>2016-01-25T14:25:17.578Z</time>
      </trkpt>
      <trkpt lat="49.52532" lon="3.52402">
        <ele>208.7</ele>
        <time>2016-01-25T14:25:18.347Z</time>
      </trkpt>
      <trkpt lat="49.52529" lon="3.52414">
        <ele>209.1</ele>
        <time>2016-01-25T14:25:24.322Z</time>
      </trkpt>
      <trkpt lat="49.52528" lon="3.52416">
        <ele>209.1</ele>
        <time>2016-01-25T14:25:25.407Z</time>
      </trkpt>
      <trkpt lat="49.52524" lon="3.52427">
        <ele>208.7</ele>
        <time>2016-01-25T14:25:32.384Z</time>
      </trkpt>
      <trkpt lat="49.52523" lon="3.52429">
        <ele>208.7</ele>
        <time>2016-01-25T14:25:33.377Z</time>
      </trkpt>
      <trkpt lat="49.52521" lon="3.52442">
        <ele>208.7</ele>
        <time>2016-01-25T14:25:40.358Z</time>
      </trkpt>
      <trkpt lat="49.5252" lon="3.52444">
        <ele>208.7</ele>
        <time>2016-01-25T14:25:41.347Z</time>
      </trkpt>
      <trkpt lat="49.52519" lon="3.52455">
        <ele>208.5</ele>
        <time>2016-01-25T14:25:47.439Z</time>
      </trkpt>
      <trkpt lat="49.52518" lon="3.52457">
        <ele>208.6</ele>
        <time>2016-01-25T14:25:48.327Z</time>
      </trkpt>
      <trkpt lat="49.52517" lon="3.5247">
        <ele>209.2</ele>
        <time>2016-01-25T14:25:54.383Z</time>
      </trkpt>
      <trkpt lat="49.52517" lon="3.52472">
        <ele>209.3</ele>
        <time>2016-01-25T14:25:55.370Z</time>
      </trkpt>
      <trkpt lat="49.52517" lon="3.52485">
        <ele>209.7</ele>
        <time>2016-01-25T14:26:01.445Z</time>
      </trkpt>
      <trkpt lat="49.52517" lon="3.52487">
        <ele>209.6</ele>
        <time>2016-01-25T14:26:02.327Z</time>
      </trkpt>
      <trkpt lat="49.52516" lon="3.52499">
        <ele>209.8</ele>
        <time>2016-01-25T14:26:08.421Z</time>
      </trkpt>
      <trkpt lat="49.52516" lon="3.52501">
        <ele>209.9</ele>
        <time>2016-01-25T14:26:09.407Z</time>
      </trkpt>
      <trkpt lat="49.52514" lon="3.52513">
        <ele>211</ele>
        <time>2016-01-25T14:26:16.352Z</time>
      </trkpt>
      <trkpt lat="49.52514" lon="3.52515">
        <ele>211.2</ele>
        <time>2016-01-25T14:26:17.340Z</time>
      </trkpt>
      <trkpt lat="49.5251" lon="3.52527">
        <ele>212.4</ele>
        <time>2016-01-25T14:26:24.432Z</time>
      </trkpt>
      <trkpt lat="49.52509" lon="3.52529">
        <ele>212.4</ele>
        <time>2016-01-25T14:26:25.415Z</time>
      </trkpt>
      <trkpt lat="49.52504" lon="3.5254">
        <ele>213</ele>
        <time>2016-01-25T14:26:33.334Z</time>
      </trkpt>
      <trkpt lat="49.52503" lon="3.52541">
        <ele>213.4</ele>
        <time>2016-01-25T14:26:34.318Z</time>
      </trkpt>
      <trkpt lat="49.52504" lon="3.52541">
        <ele>212.8</ele>
        <time>2016-01-25T14:26:58.392Z</time>
      </trkpt>
      <trkpt lat="49.52503" lon="3.5254">
        <ele>213</ele>
        <time>2016-01-25T14:26:59.350Z</time>
      </trkpt>
      <trkpt lat="49.52503" lon="3.5254">
        <ele>212.9</ele>
        <time>2016-01-25T14:27:05.431Z</time>
      </trkpt>
      <trkpt lat="49.52502" lon="3.52541">
        <ele>212.6</ele>
        <time>2016-01-25T14:27:06.411Z</time>
      </trkpt>
      <trkpt lat="49.52499" lon="3.52544">
        <ele>212.5</ele>
        <time>2016-01-25T14:27:12.370Z</time>
      </trkpt>
      <trkpt lat="49.52499" lon="3.52544">
        <ele>212.8</ele>
        <time>2016-01-25T14:27:13.374Z</time>
      </trkpt>
      <trkpt lat="49.52499" lon="3.52544">
        <ele>213</ele>
        <time>2016-01-25T14:27:57.342Z</time>
      </trkpt>
      <trkpt lat="49.52499" lon="3.52548">
        <ele>212.8</ele>
        <time>2016-01-25T14:27:58.332Z</time>
      </trkpt>
      <trkpt lat="49.52505" lon="3.52557">
        <ele>213.2</ele>
        <time>2016-01-25T14:28:12.329Z</time>
      </trkpt>
      <trkpt lat="49.52506" lon="3.52558">
        <ele>213.2</ele>
        <time>2016-01-25T14:28:13.355Z</time>
      </trkpt>
      <trkpt lat="49.52513" lon="3.52565">
        <ele>213.8</ele>
        <time>2016-01-25T14:28:21.321Z</time>
      </trkpt>
      <trkpt lat="49.52514" lon="3.52567">
        <ele>213.8</ele>
        <time>2016-01-25T14:28:22.326Z</time>
      </trkpt>
      <trkpt lat="49.5252" lon="3.52574">
        <ele>214.1</ele>
        <time>2016-01-25T14:28:29.404Z</time>
      </trkpt>
      <trkpt lat="49.52521" lon="3.52575">
        <ele>214.2</ele>
        <time>2016-01-25T14:28:30.394Z</time>
      </trkpt>
      <trkpt lat="49.52528" lon="3.52582">
        <ele>214.1</ele>
        <time>2016-01-25T14:28:40.413Z</time>
      </trkpt>
      <trkpt lat="49.52529" lon="3.52583">
        <ele>214.2</ele>
        <time>2016-01-25T14:28:41.400Z</time>
      </trkpt>
      <trkpt lat="49.52536" lon="3.5259">
        <ele>214.5</ele>
        <time>2016-01-25T14:28:48.364Z</time>
      </trkpt>
      <trkpt lat="49.52537" lon="3.52591">
        <ele>214.6</ele>
        <time>2016-01-25T14:28:49.373Z</time>
      </trkpt>
      <trkpt lat="49.52544" lon="3.52599">
        <ele>214.5</ele>
        <time>2016-01-25T14:28:56.330Z</time>
      </trkpt>
      <trkpt lat="49.52545" lon="3.526">
        <ele>214.6</ele>
        <time>2016-01-25T14:28:57.331Z</time>
      </trkpt>
      <trkpt lat="49.52552" lon="3.52608">
        <ele>214.9</ele>
        <time>2016-01-25T14:29:05.338Z</time>
      </trkpt>
      <trkpt lat="49.52553" lon="3.52609">
        <ele>215.1</ele>
        <time>2016-01-25T14:29:06.333Z</time>
      </trkpt>
      <trkpt lat="49.52559" lon="3.52616">
        <ele>215</ele>
        <time>2016-01-25T14:29:13.437Z</time>
      </trkpt>
      <trkpt lat="49.5256" lon="3.52617">
        <ele>215</ele>
        <time>2016-01-25T14:29:14.331Z</time>
      </trkpt>
      <trkpt lat="49.52567" lon="3.52624">
        <ele>215.3</ele>
        <time>2016-01-25T14:29:21.418Z</time>
      </trkpt>
      <trkpt lat="49.52568" lon="3.52625">
        <ele>215.3</ele>
        <time>2016-01-25T14:29:22.411Z</time>
      </trkpt>
      <trkpt lat="49.52576" lon="3.52633">
        <ele>215.4</ele>
        <time>2016-01-25T14:29:29.439Z</time>
      </trkpt>
      <trkpt lat="49.52577" lon="3.52634">
        <ele>215.4</ele>
        <time>2016-01-25T14:29:30.328Z</time>
      </trkpt>
      <trkpt lat="49.52583" lon="3.5264">
        <ele>215.9</ele>
        <time>2016-01-25T14:29:37.460Z</time>
      </trkpt>
      <trkpt lat="49.52584" lon="3.52642">
        <ele>215.9</ele>
        <time>2016-01-25T14:29:38.330Z</time>
      </trkpt>
      <trkpt lat="49.52591" lon="3.5265">
        <ele>216.7</ele>
        <time>2016-01-25T14:29:46.428Z</time>
      </trkpt>
      <trkpt lat="49.52592" lon="3.52652">
        <ele>216.7</ele>
        <time>2016-01-25T14:29:47.418Z</time>
      </trkpt>
      <trkpt lat="49.52597" lon="3.52661">
        <ele>217.4</ele>
        <time>2016-01-25T14:29:54.338Z</time>
      </trkpt>
      <trkpt lat="49.52598" lon="3.52662">
        <ele>217.4</ele>
        <time>2016-01-25T14:29:55.374Z</time>
      </trkpt>
      <trkpt lat="49.52602" lon="3.52673">
        <ele>216.8</ele>
        <time>2016-01-25T14:30:03.403Z</time>
      </trkpt>
      <trkpt lat="49.52603" lon="3.52675">
        <ele>216.7</ele>
        <time>2016-01-25T14:30:04.391Z</time>
      </trkpt>
      <trkpt lat="49.52607" lon="3.52686">
        <ele>216.6</ele>
        <time>2016-01-25T14:30:12.391Z</time>
      </trkpt>
      <trkpt lat="49.52607" lon="3.52687">
        <ele>216.5</ele>
        <time>2016-01-25T14:30:13.375Z</time>
      </trkpt>
      <trkpt lat="49.5261" lon="3.527">
        <ele>216.7</ele>
        <time>2016-01-25T14:30:20.391Z</time>
      </trkpt>
      <trkpt lat="49.52611" lon="3.52702">
        <ele>216.7</ele>
        <time>2016-01-25T14:30:21.383Z</time>
      </trkpt>
      <trkpt lat="49.52613" lon="3.52715">
        <ele>217.6</ele>
        <time>2016-01-25T14:30:28.409Z</time>
      </trkpt>
      <trkpt lat="49.52613" lon="3.52716">
        <ele>217.8</ele>
        <time>2016-01-25T14:30:29.308Z</time>
      </trkpt>
      <trkpt lat="49.52613" lon="3.52729">
        <ele>217.6</ele>
        <time>2016-01-25T14:30:38.391Z</time>
      </trkpt>
      <trkpt lat="49.52613" lon="3.5273">
        <ele>217.7</ele>
        <time>2016-01-25T14:30:39.384Z</time>
      </trkpt>
      <trkpt lat="49.52614" lon="3.52743">
        <ele>219.3</ele>
        <time>2016-01-25T14:30:56.331Z</time>
      </trkpt>
      <trkpt lat="49.52612" lon="3.52746">
        <ele>220.8</ele>
        <time>2016-01-25T14:30:57.320Z</time>
      </trkpt>
      <trkpt lat="49.52605" lon="3.52755">
        <ele>220.5</ele>
        <time>2016-01-25T14:31:05.319Z</time>
      </trkpt>
      <trkpt lat="49.52604" lon="3.52756">
        <ele>220.6</ele>
        <time>2016-01-25T14:31:06.318Z</time>
      </trkpt>
      <trkpt lat="49.52607" lon="3.52746">
        <ele>213.5</ele>
        <time>2016-01-25T14:32:00.587Z</time>
      </trkpt>
      <trkpt lat="49.52607" lon="3.52746">
        <ele>213.6</ele>
        <time>2016-01-25T14:32:01.386Z</time>
      </trkpt>
      <trkpt lat="49.52608" lon="3.52746">
        <ele>213.4</ele>
        <time>2016-01-25T14:32:03.421Z</time>
      </trkpt>
      <trkpt lat="49.52608" lon="3.52746">
        <ele>213.5</ele>
        <time>2016-01-25T14:32:04.414Z</time>
      </trkpt>
      <trkpt lat="49.52608" lon="3.52745">
        <ele>213.6</ele>
        <time>2016-01-25T14:32:05.343Z</time>
      </trkpt>
      <trkpt lat="49.52609" lon="3.52744">
        <ele>213.5</ele>
        <time>2016-01-25T14:32:06.328Z</time>
      </trkpt>
      <trkpt lat="49.52609" lon="3.52744">
        <ele>213.5</ele>
        <time>2016-01-25T14:32:06.348Z</time>
      </trkpt>
      <trkpt lat="49.52609" lon="3.52744">
        <ele>213.3</ele>
        <time>2016-01-25T14:32:07.373Z</time>
      </trkpt>
      <trkpt lat="49.52609" lon="3.52745">
        <ele>213.2</ele>
        <time>2016-01-25T14:32:08.405Z</time>
      </trkpt>
      <trkpt lat="49.52609" lon="3.52747">
        <ele>212.9</ele>
        <time>2016-01-25T14:32:09.391Z</time>
      </trkpt>
      <trkpt lat="49.52609" lon="3.52747">
        <ele>212.8</ele>
        <time>2016-01-25T14:32:13.376Z</time>
      </trkpt>
      <trkpt lat="49.5261" lon="3.52749">
        <ele>212.9</ele>
        <time>2016-01-25T14:32:14.375Z</time>
      </trkpt>
      <trkpt lat="49.5261" lon="3.5275">
        <ele>212.9</ele>
        <time>2016-01-25T14:32:15.420Z</time>
      </trkpt>
      <trkpt lat="49.5261" lon="3.5275">
        <ele>212.9</ele>
        <time>2016-01-25T14:32:16.397Z</time>
      </trkpt>
      <trkpt lat="49.5261" lon="3.52751">
        <ele>213</ele>
        <time>2016-01-25T14:32:17.431Z</time>
      </trkpt>
      <trkpt lat="49.5261" lon="3.52751">
        <ele>213.3</ele>
        <time>2016-01-25T14:32:18.323Z</time>
      </trkpt>
      <trkpt lat="49.52605" lon="3.52756">
        <ele>217.3</ele>
        <time>2016-01-25T14:34:43.384Z</time>
      </trkpt>
      <trkpt lat="49.52605" lon="3.52756">
        <ele>217.1</ele>
        <time>2016-01-25T14:34:44.380Z</time>
      </trkpt>
      <trkpt lat="49.52606" lon="3.52757">
        <ele>217.2</ele>
        <time>2016-01-25T14:35:18.331Z</time>
      </trkpt>
      <trkpt lat="49.52606" lon="3.52758">
        <ele>221.6</ele>
        <time>2016-01-25T14:35:19.357Z</time>
      </trkpt>
      <trkpt lat="49.52604" lon="3.5276">
        <ele>221.2</ele>
        <time>2016-01-25T14:35:23.398Z</time>
      </trkpt>
      <trkpt lat="49.52603" lon="3.5276">
        <ele>221.2</ele>
        <time>2016-01-25T14:35:24.301Z</time>
      </trkpt>
      <trkpt lat="49.52603" lon="3.5276">
        <ele>221.2</ele>
        <time>2016-01-25T14:35:30.366Z</time>
      </trkpt>
      <trkpt lat="49.52603" lon="3.52762">
        <ele>221.3</ele>
        <time>2016-01-25T14:35:31.374Z</time>
      </trkpt>
      <trkpt lat="49.52602" lon="3.52771">
        <ele>222.2</ele>
        <time>2016-01-25T14:35:47.428Z</time>
      </trkpt>
      <trkpt lat="49.52602" lon="3.52772">
        <ele>222.3</ele>
        <time>2016-01-25T14:35:48.413Z</time>
      </trkpt>
      <trkpt lat="49.52602" lon="3.52773">
        <ele>222.6</ele>
        <time>2016-01-25T14:35:53.386Z</time>
      </trkpt>
      <trkpt lat="49.52602" lon="3.52774">
        <ele>222.9</ele>
        <time>2016-01-25T14:35:54.371Z</time>
      </trkpt>
      <trkpt lat="49.52605" lon="3.52768">
        <ele>222.1</ele>
        <time>2016-01-25T14:35:59.432Z</time>
      </trkpt>
      <trkpt lat="49.52605" lon="3.52767">
        <ele>222</ele>
        <time>2016-01-25T14:36:00.416Z</time>
      </trkpt>
      <trkpt lat="49.52605" lon="3.52768">
        <ele>222</ele>
        <time>2016-01-25T14:36:28.424Z</time>
      </trkpt>
      <trkpt lat="49.52603" lon="3.52763">
        <ele>221.1</ele>
        <time>2016-01-25T14:36:29.298Z</time>
      </trkpt>
      <trkpt lat="49.52603" lon="3.52761">
        <ele>221</ele>
        <time>2016-01-25T14:36:32.386Z</time>
      </trkpt>
      <trkpt lat="49.52603" lon="3.52761">
        <ele>221</ele>
        <time>2016-01-25T14:36:33.374Z</time>
      </trkpt>
      <trkpt lat="49.52603" lon="3.52761">
        <ele>220.9</ele>
        <time>2016-01-25T14:36:59.438Z</time>
      </trkpt>
      <trkpt lat="49.5261" lon="3.52765">
        <ele>219.7</ele>
        <time>2016-01-25T14:37:00.325Z</time>
      </trkpt>
      <trkpt lat="49.52609" lon="3.52763">
        <ele>218.8</ele>
        <time>2016-01-25T14:38:35.362Z</time>
      </trkpt>
      <trkpt lat="49.52609" lon="3.52763">
        <ele>218.9</ele>
        <time>2016-01-25T14:38:36.354Z</time>
      </trkpt>
      <trkpt lat="49.52609" lon="3.52763">
        <ele>218.9</ele>
        <time>2016-01-25T14:38:36.368Z</time>
      </trkpt>
      <trkpt lat="49.52608" lon="3.52763">
        <ele>218.8</ele>
        <time>2016-01-25T14:38:37.372Z</time>
      </trkpt>
      <trkpt lat="49.52604" lon="3.52763">
        <ele>218.1</ele>
        <time>2016-01-25T14:39:04.488Z</time>
      </trkpt>
      <trkpt lat="49.52603" lon="3.52762">
        <ele>218</ele>
        <time>2016-01-25T14:39:05.396Z</time>
      </trkpt>
      <trkpt lat="49.52603" lon="3.52762">
        <ele>217.9</ele>
        <time>2016-01-25T14:39:06.519Z</time>
      </trkpt>
      <trkpt lat="49.52603" lon="3.52761">
        <ele>217.8</ele>
        <time>2016-01-25T14:39:07.311Z</time>
      </trkpt>
      <trkpt lat="49.52596" lon="3.52769">
        <ele>216.6</ele>
        <time>2016-01-25T14:39:19.361Z</time>
      </trkpt>
      <trkpt lat="49.52595" lon="3.52769">
        <ele>216.4</ele>
        <time>2016-01-25T14:39:20.353Z</time>
      </trkpt>
      <trkpt lat="49.52586" lon="3.52774">
        <ele>215.9</ele>
        <time>2016-01-25T14:39:27.370Z</time>
      </trkpt>
      <trkpt lat="49.52585" lon="3.52774">
        <ele>216</ele>
        <time>2016-01-25T14:39:28.364Z</time>
      </trkpt>
      <trkpt lat="49.52577" lon="3.52778">
        <ele>216.2</ele>
        <time>2016-01-25T14:39:36.359Z</time>
      </trkpt>
      <trkpt lat="49.52576" lon="3.52778">
        <ele>216.4</ele>
        <time>2016-01-25T14:39:37.358Z</time>
      </trkpt>
      <trkpt lat="49.52574" lon="3.52778">
        <ele>216.6</ele>
        <time>2016-01-25T14:39:39.398Z</time>
      </trkpt>
      <trkpt lat="49.52574" lon="3.52778">
        <ele>216.7</ele>
        <time>2016-01-25T14:39:40.390Z</time>
      </trkpt>
      <trkpt lat="49.52574" lon="3.52778">
        <ele>216.7</ele>
        <time>2016-01-25T14:39:40.624Z</time>
      </trkpt>
      <trkpt lat="49.52573" lon="3.52778">
        <ele>216.8</ele>
        <time>2016-01-25T14:39:41.405Z</time>
      </trkpt>
      <trkpt lat="49.52566" lon="3.52778">
        <ele>217</ele>
        <time>2016-01-25T14:39:47.376Z</time>
      </trkpt>
      <trkpt lat="49.52565" lon="3.52779">
        <ele>217</ele>
        <time>2016-01-25T14:39:48.373Z</time>
      </trkpt>
      <trkpt lat="49.52565" lon="3.52779">
        <ele>217</ele>
        <time>2016-01-25T14:39:48.390Z</time>
      </trkpt>
      <trkpt lat="49.52564" lon="3.5278">
        <ele>216.8</ele>
        <time>2016-01-25T14:39:49.383Z</time>
      </trkpt>
      <trkpt lat="49.52556" lon="3.52784">
        <ele>216.6</ele>
        <time>2016-01-25T14:39:57.444Z</time>
      </trkpt>
      <trkpt lat="49.52555" lon="3.52784">
        <ele>216.6</ele>
        <time>2016-01-25T14:39:58.316Z</time>
      </trkpt>
      <trkpt lat="49.52548" lon="3.52786">
        <ele>216.1</ele>
        <time>2016-01-25T14:40:05.401Z</time>
      </trkpt>
      <trkpt lat="49.52546" lon="3.52787">
        <ele>216.1</ele>
        <time>2016-01-25T14:40:06.387Z</time>
      </trkpt>
      <trkpt lat="49.52538" lon="3.52791">
        <ele>215.2</ele>
        <time>2016-01-25T14:40:12.549Z</time>
      </trkpt>
      <trkpt lat="49.52537" lon="3.52792">
        <ele>215.2</ele>
        <time>2016-01-25T14:40:13.358Z</time>
      </trkpt>
      <trkpt lat="49.52529" lon="3.52794">
        <ele>215.1</ele>
        <time>2016-01-25T14:40:19.438Z</time>
      </trkpt>
      <trkpt lat="49.52528" lon="3.52795">
        <ele>214.7</ele>
        <time>2016-01-25T14:40:20.312Z</time>
      </trkpt>
      <trkpt lat="49.52519" lon="3.52801">
        <ele>215.3</ele>
        <time>2016-01-25T14:40:28.414Z</time>
      </trkpt>
      <trkpt lat="49.52518" lon="3.52802">
        <ele>215.2</ele>
        <time>2016-01-25T14:40:29.402Z</time>
      </trkpt>
      <trkpt lat="49.5251" lon="3.52804">
        <ele>215.2</ele>
        <time>2016-01-25T14:40:35.412Z</time>
      </trkpt>
      <trkpt lat="49.52509" lon="3.52805">
        <ele>215.2</ele>
        <time>2016-01-25T14:40:36.315Z</time>
      </trkpt>
      <trkpt lat="49.52501" lon="3.52809">
        <ele>214.8</ele>
        <time>2016-01-25T14:40:42.418Z</time>
      </trkpt>
      <trkpt lat="49.525" lon="3.5281">
        <ele>214.6</ele>
        <time>2016-01-25T14:40:43.407Z</time>
      </trkpt>
      <trkpt lat="49.52492" lon="3.52815">
        <ele>215.7</ele>
        <time>2016-01-25T14:40:49.366Z</time>
      </trkpt>
      <trkpt lat="49.52491" lon="3.52816">
        <ele>215.9</ele>
        <time>2016-01-25T14:40:50.372Z</time>
      </trkpt>
      <trkpt lat="49.52483" lon="3.5282">
        <ele>217.1</ele>
        <time>2016-01-25T14:40:57.348Z</time>
      </trkpt>
      <trkpt lat="49.52482" lon="3.52821">
        <ele>217.2</ele>
        <time>2016-01-25T14:40:58.335Z</time>
      </trkpt>
      <trkpt lat="49.52473" lon="3.52825">
        <ele>217.1</ele>
        <time>2016-01-25T14:41:05.432Z</time>
      </trkpt>
      <trkpt lat="49.52472" lon="3.52826">
        <ele>217.1</ele>
        <time>2016-01-25T14:41:06.313Z</time>
      </trkpt>
      <trkpt lat="49.52464" lon="3.5283">
        <ele>217.4</ele>
        <time>2016-01-25T14:41:14.399Z</time>
      </trkpt>
      <trkpt lat="49.52463" lon="3.5283">
        <ele>217.3</ele>
        <time>2016-01-25T14:41:15.376Z</time>
      </trkpt>
      <trkpt lat="49.52454" lon="3.5283">
        <ele>218.1</ele>
        <time>2016-01-25T14:41:24.326Z</time>
      </trkpt>
      <trkpt lat="49.52453" lon="3.52831">
        <ele>218</ele>
        <time>2016-01-25T14:41:25.360Z</time>
      </trkpt>
      <trkpt lat="49.52446" lon="3.52833">
        <ele>218.7</ele>
        <time>2016-01-25T14:41:31.422Z</time>
      </trkpt>
      <trkpt lat="49.52444" lon="3.52832">
        <ele>218.6</ele>
        <time>2016-01-25T14:41:32.312Z</time>
      </trkpt>
      <trkpt lat="49.52435" lon="3.52833">
        <ele>218.7</ele>
        <time>2016-01-25T14:41:39.389Z</time>
      </trkpt>
      <trkpt lat="49.52434" lon="3.52833">
        <ele>218.8</ele>
        <time>2016-01-25T14:41:40.380Z</time>
      </trkpt>
      <trkpt lat="49.52434" lon="3.52833">
        <ele>218.8</ele>
        <time>2016-01-25T14:41:40.401Z</time>
      </trkpt>
      <trkpt lat="49.52433" lon="3.52832">
        <ele>218.9</ele>
        <time>2016-01-25T14:41:41.390Z</time>
      </trkpt>
      <trkpt lat="49.52429" lon="3.52831">
        <ele>218.9</ele>
        <time>2016-01-25T14:41:44.331Z</time>
      </trkpt>
      <trkpt lat="49.52428" lon="3.52831">
        <ele>218.9</ele>
        <time>2016-01-25T14:41:45.325Z</time>
      </trkpt>
      <trkpt lat="49.52428" lon="3.52831">
        <ele>218.9</ele>
        <time>2016-01-25T14:41:45.334Z</time>
      </trkpt>
      <trkpt lat="49.52428" lon="3.5283">
        <ele>218.9</ele>
        <time>2016-01-25T14:41:46.327Z</time>
      </trkpt>
      <trkpt lat="49.5242" lon="3.52827">
        <ele>218.4</ele>
        <time>2016-01-25T14:41:53.427Z</time>
      </trkpt>
      <trkpt lat="49.52419" lon="3.52827">
        <ele>218.3</ele>
        <time>2016-01-25T14:41:54.320Z</time>
      </trkpt>
      <trkpt lat="49.52411" lon="3.52825">
        <ele>217.6</ele>
        <time>2016-01-25T14:42:01.388Z</time>
      </trkpt>
      <trkpt lat="49.5241" lon="3.52826">
        <ele>217.3</ele>
        <time>2016-01-25T14:42:02.385Z</time>
      </trkpt>
      <trkpt lat="49.52402" lon="3.52828">
        <ele>216</ele>
        <time>2016-01-25T14:42:09.340Z</time>
      </trkpt>
      <trkpt lat="49.52401" lon="3.52828">
        <ele>215.7</ele>
        <time>2016-01-25T14:42:10.326Z</time>
      </trkpt>
      <trkpt lat="49.52392" lon="3.52832">
        <ele>214.9</ele>
        <time>2016-01-25T14:42:17.339Z</time>
      </trkpt>
      <trkpt lat="49.52391" lon="3.52833">
        <ele>214.7</ele>
        <time>2016-01-25T14:42:18.516Z</time>
      </trkpt>
      <trkpt lat="49.52384" lon="3.52837">
        <ele>214.3</ele>
        <time>2016-01-25T14:42:23.419Z</time>
      </trkpt>
      <trkpt lat="49.52382" lon="3.52838">
        <ele>214.2</ele>
        <time>2016-01-25T14:42:24.410Z</time>
      </trkpt>
      <trkpt lat="49.52374" lon="3.52842">
        <ele>214.1</ele>
        <time>2016-01-25T14:42:30.375Z</time>
      </trkpt>
      <trkpt lat="49.52373" lon="3.52843">
        <ele>214.3</ele>
        <time>2016-01-25T14:42:31.371Z</time>
      </trkpt>
      <trkpt lat="49.52366" lon="3.52849">
        <ele>214.7</ele>
        <time>2016-01-25T14:42:39.418Z</time>
      </trkpt>
      <trkpt lat="49.52365" lon="3.52849">
        <ele>215</ele>
        <time>2016-01-25T14:42:40.405Z</time>
      </trkpt>
      <trkpt lat="49.52357" lon="3.52852">
        <ele>215.6</ele>
        <time>2016-01-25T14:42:47.369Z</time>
      </trkpt>
      <trkpt lat="49.52356" lon="3.52852">
        <ele>215.7</ele>
        <time>2016-01-25T14:42:48.362Z</time>
      </trkpt>
      <trkpt lat="49.52349" lon="3.52857">
        <ele>214.6</ele>
        <time>2016-01-25T14:42:58.410Z</time>
      </trkpt>
      <trkpt lat="49.52348" lon="3.52858">
        <ele>214.5</ele>
        <time>2016-01-25T14:42:59.400Z</time>
      </trkpt>
      <trkpt lat="49.52341" lon="3.52865">
        <ele>214.6</ele>
        <time>2016-01-25T14:43:08.397Z</time>
      </trkpt>
      <trkpt lat="49.5234" lon="3.52866">
        <ele>214.5</ele>
        <time>2016-01-25T14:43:09.403Z</time>
      </trkpt>
      <trkpt lat="49.52333" lon="3.52869">
        <ele>213.8</ele>
        <time>2016-01-25T14:43:18.334Z</time>
      </trkpt>
      <trkpt lat="49.52331" lon="3.5287">
        <ele>213.7</ele>
        <time>2016-01-25T14:43:19.362Z</time>
      </trkpt>
      <trkpt lat="49.52324" lon="3.52877">
        <ele>213.4</ele>
        <time>2016-01-25T14:43:25.440Z</time>
      </trkpt>
      <trkpt lat="49.52322" lon="3.52878">
        <ele>213.4</ele>
        <time>2016-01-25T14:43:26.314Z</time>
      </trkpt>
      <trkpt lat="49.52315" lon="3.52885">
        <ele>213.4</ele>
        <time>2016-01-25T14:43:32.425Z</time>
      </trkpt>
      <trkpt lat="49.52313" lon="3.52887">
        <ele>213.3</ele>
        <time>2016-01-25T14:43:33.314Z</time>
      </trkpt>
      <trkpt lat="49.52306" lon="3.52894">
        <ele>213</ele>
        <time>2016-01-25T14:43:40.408Z</time>
      </trkpt>
      <trkpt lat="49.52305" lon="3.52895">
        <ele>213.1</ele>
        <time>2016-01-25T14:43:41.395Z</time>
      </trkpt>
      <trkpt lat="49.52298" lon="3.52902">
        <ele>211</ele>
        <time>2016-01-25T14:43:48.323Z</time>
      </trkpt>
      <trkpt lat="49.52297" lon="3.52903">
        <ele>210.7</ele>
        <time>2016-01-25T14:43:49.350Z</time>
      </trkpt>
      <trkpt lat="49.52292" lon="3.52912">
        <ele>211.3</ele>
        <time>2016-01-25T14:43:55.424Z</time>
      </trkpt>
      <trkpt lat="49.52291" lon="3.52913">
        <ele>211.5</ele>
        <time>2016-01-25T14:43:56.314Z</time>
      </trkpt>
      <trkpt lat="49.52284" lon="3.52922">
        <ele>212.8</ele>
        <time>2016-01-25T14:44:03.432Z</time>
      </trkpt>
      <trkpt lat="49.52283" lon="3.52922">
        <ele>212.8</ele>
        <time>2016-01-25T14:44:04.387Z</time>
      </trkpt>
      <trkpt lat="49.52277" lon="3.5293">
        <ele>212.6</ele>
        <time>2016-01-25T14:44:11.363Z</time>
      </trkpt>
      <trkpt lat="49.52277" lon="3.52932">
        <ele>212.6</ele>
        <time>2016-01-25T14:44:12.353Z</time>
      </trkpt>
      <trkpt lat="49.52277" lon="3.52945">
        <ele>212.5</ele>
        <time>2016-01-25T14:44:19.389Z</time>
      </trkpt>
      <trkpt lat="49.52277" lon="3.52947">
        <ele>212.3</ele>
        <time>2016-01-25T14:44:20.382Z</time>
      </trkpt>
      <trkpt lat="49.52281" lon="3.52959">
        <ele>211.6</ele>
        <time>2016-01-25T14:44:29.426Z</time>
      </trkpt>
      <trkpt lat="49.52281" lon="3.52961">
        <ele>211.3</ele>
        <time>2016-01-25T14:44:30.320Z</time>
      </trkpt>
      <trkpt lat="49.52286" lon="3.52972">
        <ele>209.3</ele>
        <time>2016-01-25T14:44:41.324Z</time>
      </trkpt>
      <trkpt lat="49.52287" lon="3.52973">
        <ele>208.9</ele>
        <time>2016-01-25T14:44:42.313Z</time>
      </trkpt>
      <trkpt lat="49.52291" lon="3.52985">
        <ele>209.1</ele>
        <time>2016-01-25T14:44:55.384Z</time>
      </trkpt>
      <trkpt lat="49.52291" lon="3.52985">
        <ele>209.1</ele>
        <time>2016-01-25T14:44:56.377Z</time>
      </trkpt>
      <trkpt lat="49.52298" lon="3.52993">
        <ele>208</ele>
        <time>2016-01-25T14:45:08.377Z</time>
      </trkpt>
      <trkpt lat="49.52298" lon="3.52994">
        <ele>207.9</ele>
        <time>2016-01-25T14:45:09.378Z</time>
      </trkpt>
      <trkpt lat="49.52301" lon="3.52998">
        <ele>207.2</ele>
        <time>2016-01-25T14:45:13.435Z</time>
      </trkpt>
      <trkpt lat="49.52301" lon="3.52998">
        <ele>207.2</ele>
        <time>2016-01-25T14:45:14.314Z</time>
      </trkpt>
      <trkpt lat="49.52301" lon="3.52998">
        <ele>207.2</ele>
        <time>2016-01-25T14:45:14.337Z</time>
      </trkpt>
      <trkpt lat="49.52301" lon="3.52999">
        <ele>207.3</ele>
        <time>2016-01-25T14:45:15.322Z</time>
      </trkpt>
      <trkpt lat="49.52302" lon="3.53001">
        <ele>207.6</ele>
        <time>2016-01-25T14:45:17.394Z</time>
      </trkpt>
      <trkpt lat="49.52303" lon="3.53001">
        <ele>207.7</ele>
        <time>2016-01-25T14:45:18.385Z</time>
      </trkpt>
      <trkpt lat="49.52303" lon="3.53001">
        <ele>207.7</ele>
        <time>2016-01-25T14:45:18.408Z</time>
      </trkpt>
      <trkpt lat="49.52303" lon="3.53002">
        <ele>207.7</ele>
        <time>2016-01-25T14:45:19.393Z</time>
      </trkpt>
      <trkpt lat="49.52307" lon="3.53014">
        <ele>206.6</ele>
        <time>2016-01-25T14:45:36.361Z</time>
      </trkpt>
      <trkpt lat="49.52307" lon="3.53015">
        <ele>206.6</ele>
        <time>2016-01-25T14:45:37.363Z</time>
      </trkpt>
      <trkpt lat="49.52314" lon="3.53024">
        <ele>205.4</ele>
        <time>2016-01-25T14:45:47.409Z</time>
      </trkpt>
      <trkpt lat="49.52315" lon="3.53025">
        <ele>205.2</ele>
        <time>2016-01-25T14:45:48.311Z</time>
      </trkpt>
      <trkpt lat="49.52314" lon="3.53026">
        <ele>205.1</ele>
        <time>2016-01-25T14:45:50.324Z</time>
      </trkpt>
      <trkpt lat="49.52314" lon="3.53027">
        <ele>205.1</ele>
        <time>2016-01-25T14:45:51.315Z</time>
      </trkpt>
      <trkpt lat="49.52314" lon="3.53028">
        <ele>205.2</ele>
        <time>2016-01-25T14:45:56.387Z</time>
      </trkpt>
      <trkpt lat="49.52314" lon="3.53028">
        <ele>205.2</ele>
        <time>2016-01-25T14:45:57.373Z</time>
      </trkpt>
      <trkpt lat="49.52314" lon="3.53032">
        <ele>204.9</ele>
        <time>2016-01-25T14:46:00.327Z</time>
      </trkpt>
      <trkpt lat="49.52315" lon="3.53033">
        <ele>204.7</ele>
        <time>2016-01-25T14:46:01.420Z</time>
      </trkpt>
      <trkpt lat="49.52315" lon="3.53033">
        <ele>204.6</ele>
        <time>2016-01-25T14:46:02.325Z</time>
      </trkpt>
      <trkpt lat="49.52315" lon="3.53034">
        <ele>204.5</ele>
        <time>2016-01-25T14:46:03.315Z</time>
      </trkpt>
      <trkpt lat="49.52318" lon="3.53037">
        <ele>204.5</ele>
        <time>2016-01-25T14:46:07.597Z</time>
      </trkpt>
      <trkpt lat="49.52317" lon="3.53038">
        <ele>204.3</ele>
        <time>2016-01-25T14:46:08.373Z</time>
      </trkpt>
      <trkpt lat="49.52317" lon="3.53039">
        <ele>204.1</ele>
        <time>2016-01-25T14:46:15.392Z</time>
      </trkpt>
      <trkpt lat="49.52317" lon="3.53045">
        <ele>203.9</ele>
        <time>2016-01-25T14:46:16.381Z</time>
      </trkpt>
      <trkpt lat="49.52318" lon="3.53059">
        <ele>202.4</ele>
        <time>2016-01-25T14:46:25.382Z</time>
      </trkpt>
      <trkpt lat="49.52319" lon="3.5306">
        <ele>202.3</ele>
        <time>2016-01-25T14:46:26.366Z</time>
      </trkpt>
      <trkpt lat="49.52323" lon="3.53072">
        <ele>199.5</ele>
        <time>2016-01-25T14:46:32.326Z</time>
      </trkpt>
      <trkpt lat="49.52323" lon="3.53074">
        <ele>199.1</ele>
        <time>2016-01-25T14:46:33.312Z</time>
      </trkpt>
      <trkpt lat="49.52324" lon="3.53077">
        <ele>198.5</ele>
        <time>2016-01-25T14:46:34.338Z</time>
      </trkpt>
      <trkpt lat="49.52324" lon="3.53078">
        <ele>198.1</ele>
        <time>2016-01-25T14:46:35.333Z</time>
      </trkpt>
      <trkpt lat="49.52324" lon="3.53078">
        <ele>198.1</ele>
        <time>2016-01-25T14:46:35.350Z</time>
      </trkpt>
      <trkpt lat="49.52324" lon="3.5308">
        <ele>197.8</ele>
        <time>2016-01-25T14:46:36.341Z</time>
      </trkpt>
      <trkpt lat="49.52324" lon="3.5308">
        <ele>197.8</ele>
        <time>2016-01-25T14:46:36.360Z</time>
      </trkpt>
      <trkpt lat="49.52325" lon="3.53081">
        <ele>197.7</ele>
        <time>2016-01-25T14:46:37.360Z</time>
      </trkpt>
      <trkpt lat="49.52325" lon="3.53081">
        <ele>197.7</ele>
        <time>2016-01-25T14:46:37.374Z</time>
      </trkpt>
      <trkpt lat="49.52325" lon="3.53082">
        <ele>197.5</ele>
        <time>2016-01-25T14:46:38.371Z</time>
      </trkpt>
      <trkpt lat="49.52327" lon="3.53095">
        <ele>195.9</ele>
        <time>2016-01-25T14:46:51.402Z</time>
      </trkpt>
      <trkpt lat="49.52327" lon="3.53096">
        <ele>195.9</ele>
        <time>2016-01-25T14:46:52.395Z</time>
      </trkpt>
      <trkpt lat="49.5233" lon="3.53102">
        <ele>195</ele>
        <time>2016-01-25T14:47:00.370Z</time>
      </trkpt>
      <trkpt lat="49.52331" lon="3.53103">
        <ele>195.1</ele>
        <time>2016-01-25T14:47:01.377Z</time>
      </trkpt>
      <trkpt lat="49.52331" lon="3.53103">
        <ele>195</ele>
        <time>2016-01-25T14:47:10.400Z</time>
      </trkpt>
      <trkpt lat="49.52332" lon="3.53108">
        <ele>194.4</ele>
        <time>2016-01-25T14:47:11.385Z</time>
      </trkpt>
      <trkpt lat="49.52333" lon="3.53109">
        <ele>194.7</ele>
        <time>2016-01-25T14:47:13.436Z</time>
      </trkpt>
      <trkpt lat="49.52334" lon="3.5311">
        <ele>194.7</ele>
        <time>2016-01-25T14:47:14.315Z</time>
      </trkpt>
      <trkpt lat="49.52334" lon="3.5311">
        <ele>194.7</ele>
        <time>2016-01-25T14:47:14.328Z</time>
      </trkpt>
      <trkpt lat="49.52334" lon="3.53111">
        <ele>195</ele>
        <time>2016-01-25T14:47:15.337Z</time>
      </trkpt>
      <trkpt lat="49.52337" lon="3.53123">
        <ele>193.8</ele>
        <time>2016-01-25T14:47:26.381Z</time>
      </trkpt>
      <trkpt lat="49.52337" lon="3.53124">
        <ele>193.8</ele>
        <time>2016-01-25T14:47:27.374Z</time>
      </trkpt>
      <trkpt lat="49.52337" lon="3.53124">
        <ele>193.8</ele>
        <time>2016-01-25T14:47:27.402Z</time>
      </trkpt>
      <trkpt lat="49.52337" lon="3.53124">
        <ele>193.7</ele>
        <time>2016-01-25T14:47:28.387Z</time>
      </trkpt>
      <trkpt lat="49.52337" lon="3.53124">
        <ele>193.7</ele>
        <time>2016-01-25T14:47:28.408Z</time>
      </trkpt>
      <trkpt lat="49.52337" lon="3.53125">
        <ele>193.6</ele>
        <time>2016-01-25T14:47:29.404Z</time>
      </trkpt>
      <trkpt lat="49.52342" lon="3.53136">
        <ele>191.2</ele>
        <time>2016-01-25T14:47:37.425Z</time>
      </trkpt>
      <trkpt lat="49.52342" lon="3.53137">
        <ele>190.7</ele>
        <time>2016-01-25T14:47:38.310Z</time>
      </trkpt>
      <trkpt lat="49.52342" lon="3.53137">
        <ele>190.7</ele>
        <time>2016-01-25T14:47:38.319Z</time>
      </trkpt>
      <trkpt lat="49.52342" lon="3.53139">
        <ele>190.7</ele>
        <time>2016-01-25T14:47:39.312Z</time>
      </trkpt>
      <trkpt lat="49.52342" lon="3.53139">
        <ele>190.7</ele>
        <time>2016-01-25T14:47:39.331Z</time>
      </trkpt>
      <trkpt lat="49.52342" lon="3.5314">
        <ele>190.8</ele>
        <time>2016-01-25T14:47:40.321Z</time>
      </trkpt>
      <trkpt lat="49.52348" lon="3.53149">
        <ele>187.7</ele>
        <time>2016-01-25T14:47:48.412Z</time>
      </trkpt>
      <trkpt lat="49.52348" lon="3.5315">
        <ele>187.4</ele>
        <time>2016-01-25T14:47:49.407Z</time>
      </trkpt>
      <trkpt lat="49.52351" lon="3.53163">
        <ele>182.9</ele>
        <time>2016-01-25T14:47:59.404Z</time>
      </trkpt>
      <trkpt lat="49.52352" lon="3.53164">
        <ele>182.5</ele>
        <time>2016-01-25T14:48:00.393Z</time>
      </trkpt>
      <trkpt lat="49.52358" lon="3.53175">
        <ele>181</ele>
        <time>2016-01-25T14:48:08.386Z</time>
      </trkpt>
      <trkpt lat="49.52359" lon="3.53176">
        <ele>181.1</ele>
        <time>2016-01-25T14:48:09.379Z</time>
      </trkpt>
      <trkpt lat="49.52364" lon="3.53185">
        <ele>179.4</ele>
        <time>2016-01-25T14:48:20.386Z</time>
      </trkpt>
      <trkpt lat="49.52365" lon="3.53186">
        <ele>179.6</ele>
        <time>2016-01-25T14:48:21.376Z</time>
      </trkpt>
      <trkpt lat="49.52366" lon="3.53189">
        <ele>179.5</ele>
        <time>2016-01-25T14:48:24.320Z</time>
      </trkpt>
      <trkpt lat="49.52367" lon="3.5319">
        <ele>179.8</ele>
        <time>2016-01-25T14:48:25.359Z</time>
      </trkpt>
      <trkpt lat="49.52367" lon="3.53191">
        <ele>179.8</ele>
        <time>2016-01-25T14:49:11.422Z</time>
      </trkpt>
      <trkpt lat="49.52369" lon="3.5319">
        <ele>180.6</ele>
        <time>2016-01-25T14:49:12.416Z</time>
      </trkpt>
      <trkpt lat="49.52369" lon="3.5319">
        <ele>180.5</ele>
        <time>2016-01-25T14:49:13.449Z</time>
      </trkpt>
      <trkpt lat="49.5237" lon="3.53191">
        <ele>180.5</ele>
        <time>2016-01-25T14:49:14.328Z</time>
      </trkpt>
      <trkpt lat="49.5237" lon="3.53191">
        <ele>180.5</ele>
        <time>2016-01-25T14:49:41.440Z</time>
      </trkpt>
      <trkpt lat="49.52371" lon="3.5319">
        <ele>180.4</ele>
        <time>2016-01-25T14:49:42.299Z</time>
      </trkpt>
      <trkpt lat="49.5237" lon="3.53189">
        <ele>180.6</ele>
        <time>2016-01-25T14:49:44.360Z</time>
      </trkpt>
      <trkpt lat="49.5237" lon="3.53189">
        <ele>180.7</ele>
        <time>2016-01-25T14:49:45.358Z</time>
      </trkpt>
      <trkpt lat="49.5237" lon="3.53189">
        <ele>180.7</ele>
        <time>2016-01-25T14:51:22.391Z</time>
      </trkpt>
      <trkpt lat="49.5237" lon="3.53191">
        <ele>175.5</ele>
        <time>2016-01-25T14:51:23.402Z</time>
      </trkpt>
      <trkpt lat="49.52371" lon="3.53192">
        <ele>176.2</ele>
        <time>2016-01-25T14:51:27.338Z</time>
      </trkpt>
      <trkpt lat="49.52371" lon="3.53192">
        <ele>176.1</ele>
        <time>2016-01-25T14:51:28.405Z</time>
      </trkpt>
      <trkpt lat="49.52372" lon="3.53192">
        <ele>176.1</ele>
        <time>2016-01-25T14:51:35.462Z</time>
      </trkpt>
      <trkpt lat="49.52374" lon="3.53193">
        <ele>175.9</ele>
        <time>2016-01-25T14:51:36.450Z</time>
      </trkpt>
      <trkpt lat="49.52376" lon="3.53191">
        <ele>175.8</ele>
        <time>2016-01-25T14:51:41.314Z</time>
      </trkpt>
      <trkpt lat="49.52376" lon="3.53191">
        <ele>175.7</ele>
        <time>2016-01-25T14:51:42.300Z</time>
      </trkpt>
      <trkpt lat="49.52376" lon="3.53191">
        <ele>175.7</ele>
        <time>2016-01-25T14:51:42.315Z</time>
      </trkpt>
      <trkpt lat="49.52376" lon="3.53192">
        <ele>175.2</ele>
        <time>2016-01-25T14:51:43.331Z</time>
      </trkpt>
      <trkpt lat="49.52384" lon="3.53195">
        <ele>173.1</ele>
        <time>2016-01-25T14:51:49.391Z</time>
      </trkpt>
      <trkpt lat="49.52386" lon="3.53195">
        <ele>172.7</ele>
        <time>2016-01-25T14:51:50.380Z</time>
      </trkpt>
      <trkpt lat="49.52394" lon="3.53197">
        <ele>172.2</ele>
        <time>2016-01-25T14:51:56.322Z</time>
      </trkpt>
      <trkpt lat="49.52396" lon="3.53197">
        <ele>171.9</ele>
        <time>2016-01-25T14:51:57.320Z</time>
      </trkpt>
      <trkpt lat="49.52402" lon="3.53203">
        <ele>170.2</ele>
        <time>2016-01-25T14:52:02.370Z</time>
      </trkpt>
      <trkpt lat="49.52403" lon="3.53205">
        <ele>169.9</ele>
        <time>2016-01-25T14:52:03.392Z</time>
      </trkpt>
      <trkpt lat="49.5241" lon="3.53214">
        <ele>169.3</ele>
        <time>2016-01-25T14:52:09.327Z</time>
      </trkpt>
      <trkpt lat="49.5241" lon="3.53216">
        <ele>169.1</ele>
        <time>2016-01-25T14:52:10.310Z</time>
      </trkpt>
      <trkpt lat="49.52415" lon="3.53226">
        <ele>167.7</ele>
        <time>2016-01-25T14:52:17.401Z</time>
      </trkpt>
      <trkpt lat="49.52416" lon="3.53228">
        <ele>167.6</ele>
        <time>2016-01-25T14:52:18.301Z</time>
      </trkpt>
      <trkpt lat="49.52421" lon="3.53238">
        <ele>166.8</ele>
        <time>2016-01-25T14:52:25.372Z</time>
      </trkpt>
      <trkpt lat="49.52421" lon="3.53239">
        <ele>166.7</ele>
        <time>2016-01-25T14:52:26.369Z</time>
      </trkpt>
      <trkpt lat="49.52426" lon="3.5325">
        <ele>166.1</ele>
        <time>2016-01-25T14:52:33.382Z</time>
      </trkpt>
      <trkpt lat="49.52427" lon="3.53252">
        <ele>166</ele>
        <time>2016-01-25T14:52:34.375Z</time>
      </trkpt>
      <trkpt lat="49.52431" lon="3.53262">
        <ele>165.3</ele>
        <time>2016-01-25T14:52:40.314Z</time>
      </trkpt>
      <trkpt lat="49.52432" lon="3.53264">
        <ele>165.2</ele>
        <time>2016-01-25T14:52:41.314Z</time>
      </trkpt>
      <trkpt lat="49.52437" lon="3.53275">
        <ele>164.5</ele>
        <time>2016-01-25T14:52:47.429Z</time>
      </trkpt>
      <trkpt lat="49.52438" lon="3.53276">
        <ele>164.6</ele>
        <time>2016-01-25T14:52:48.444Z</time>
      </trkpt>
      <trkpt lat="49.52443" lon="3.53287">
        <ele>164.3</ele>
        <time>2016-01-25T14:52:54.352Z</time>
      </trkpt>
      <trkpt lat="49.52444" lon="3.53289">
        <ele>164.2</ele>
        <time>2016-01-25T14:52:55.342Z</time>
      </trkpt>
      <trkpt lat="49.52448" lon="3.533">
        <ele>164</ele>
        <time>2016-01-25T14:53:01.468Z</time>
      </trkpt>
      <trkpt lat="49.52449" lon="3.53301">
        <ele>164</ele>
        <time>2016-01-25T14:53:02.460Z</time>
      </trkpt>
      <trkpt lat="49.52453" lon="3.53312">
        <ele>163.9</ele>
        <time>2016-01-25T14:53:07.327Z</time>
      </trkpt>
      <trkpt lat="49.52454" lon="3.53314">
        <ele>163.7</ele>
        <time>2016-01-25T14:53:08.307Z</time>
      </trkpt>
      <trkpt lat="49.52457" lon="3.53324">
        <ele>163.5</ele>
        <time>2016-01-25T14:53:13.459Z</time>
      </trkpt>
      <trkpt lat="49.52458" lon="3.53327">
        <ele>163.2</ele>
        <time>2016-01-25T14:53:14.446Z</time>
      </trkpt>
      <trkpt lat="49.52462" lon="3.53337">
        <ele>162.8</ele>
        <time>2016-01-25T14:53:19.604Z</time>
      </trkpt>
      <trkpt lat="49.52462" lon="3.53339">
        <ele>162.7</ele>
        <time>2016-01-25T14:53:20.306Z</time>
      </trkpt>
      <trkpt lat="49.52467" lon="3.5335">
        <ele>162.4</ele>
        <time>2016-01-25T14:53:25.465Z</time>
      </trkpt>
      <trkpt lat="49.52468" lon="3.53352">
        <ele>162.2</ele>
        <time>2016-01-25T14:53:26.449Z</time>
      </trkpt>
      <trkpt lat="49.52471" lon="3.53362">
        <ele>161.9</ele>
        <time>2016-01-25T14:53:31.407Z</time>
      </trkpt>
      <trkpt lat="49.52472" lon="3.53364">
        <ele>161.7</ele>
        <time>2016-01-25T14:53:32.389Z</time>
      </trkpt>
      <trkpt lat="49.52477" lon="3.53374">
        <ele>161.4</ele>
        <time>2016-01-25T14:53:37.469Z</time>
      </trkpt>
      <trkpt lat="49.52478" lon="3.53377">
        <ele>161.4</ele>
        <time>2016-01-25T14:53:38.454Z</time>
      </trkpt>
      <trkpt lat="49.52483" lon="3.53387">
        <ele>161.5</ele>
        <time>2016-01-25T14:53:44.420Z</time>
      </trkpt>
      <trkpt lat="49.52484" lon="3.53389">
        <ele>161.7</ele>
        <time>2016-01-25T14:53:45.407Z</time>
      </trkpt>
      <trkpt lat="49.52486" lon="3.53401">
        <ele>161.9</ele>
        <time>2016-01-25T14:53:50.469Z</time>
      </trkpt>
      <trkpt lat="49.52487" lon="3.53403">
        <ele>162</ele>
        <time>2016-01-25T14:53:51.459Z</time>
      </trkpt>
      <trkpt lat="49.5249" lon="3.53414">
        <ele>162.2</ele>
        <time>2016-01-25T14:53:56.399Z</time>
      </trkpt>
      <trkpt lat="49.52491" lon="3.53417">
        <ele>162.2</ele>
        <time>2016-01-25T14:53:57.401Z</time>
      </trkpt>
      <trkpt lat="49.52496" lon="3.53428">
        <ele>162.7</ele>
        <time>2016-01-25T14:54:03.478Z</time>
      </trkpt>
      <trkpt lat="49.52497" lon="3.5343">
        <ele>162.8</ele>
        <time>2016-01-25T14:54:04.467Z</time>
      </trkpt>
      <trkpt lat="49.525" lon="3.53439">
        <ele>163.3</ele>
        <time>2016-01-25T14:54:09.439Z</time>
      </trkpt>
      <trkpt lat="49.52501" lon="3.53442">
        <ele>163.5</ele>
        <time>2016-01-25T14:54:10.417Z</time>
      </trkpt>
      <trkpt lat="49.52505" lon="3.53453">
        <ele>163.5</ele>
        <time>2016-01-25T14:54:15.477Z</time>
      </trkpt>
      <trkpt lat="49.52505" lon="3.53455">
        <ele>163.4</ele>
        <time>2016-01-25T14:54:16.479Z</time>
      </trkpt>
      <trkpt lat="49.52507" lon="3.53467">
        <ele>162.1</ele>
        <time>2016-01-25T14:54:22.425Z</time>
      </trkpt>
      <trkpt lat="49.52507" lon="3.53469">
        <ele>162.1</ele>
        <time>2016-01-25T14:54:23.415Z</time>
      </trkpt>
      <trkpt lat="49.52503" lon="3.5348">
        <ele>162.1</ele>
        <time>2016-01-25T14:54:28.481Z</time>
      </trkpt>
      <trkpt lat="49.52502" lon="3.53482">
        <ele>162</ele>
        <time>2016-01-25T14:54:29.293Z</time>
      </trkpt>
      <trkpt lat="49.52495" lon="3.53486">
        <ele>161.2</ele>
        <time>2016-01-25T14:54:36.656Z</time>
      </trkpt>
      <trkpt lat="49.52493" lon="3.53486">
        <ele>161</ele>
        <time>2016-01-25T14:54:37.445Z</time>
      </trkpt>
      <trkpt lat="49.52486" lon="3.53493">
        <ele>160.3</ele>
        <time>2016-01-25T14:54:44.414Z</time>
      </trkpt>
      <trkpt lat="49.52484" lon="3.53493">
        <ele>160.2</ele>
        <time>2016-01-25T14:54:45.400Z</time>
      </trkpt>
      <trkpt lat="49.52475" lon="3.53495">
        <ele>159.9</ele>
        <time>2016-01-25T14:54:51.424Z</time>
      </trkpt>
      <trkpt lat="49.52474" lon="3.53495">
        <ele>159.8</ele>
        <time>2016-01-25T14:54:52.312Z</time>
      </trkpt>
      <trkpt lat="49.52467" lon="3.53501">
        <ele>159.9</ele>
        <time>2016-01-25T14:55:00.480Z</time>
      </trkpt>
      <trkpt lat="49.52466" lon="3.53502">
        <ele>159.8</ele>
        <time>2016-01-25T14:55:01.465Z</time>
      </trkpt>
      <trkpt lat="49.52459" lon="3.53511">
        <ele>159.2</ele>
        <time>2016-01-25T14:55:07.342Z</time>
      </trkpt>
      <trkpt lat="49.52458" lon="3.53511">
        <ele>159.2</ele>
        <time>2016-01-25T14:55:08.411Z</time>
      </trkpt>
      <trkpt lat="49.52452" lon="3.53518">
        <ele>158.9</ele>
        <time>2016-01-25T14:55:13.479Z</time>
      </trkpt>
      <trkpt lat="49.5245" lon="3.53519">
        <ele>158.9</ele>
        <time>2016-01-25T14:55:14.468Z</time>
      </trkpt>
      <trkpt lat="49.52442" lon="3.5352">
        <ele>159</ele>
        <time>2016-01-25T14:55:21.444Z</time>
      </trkpt>
      <trkpt lat="49.5244" lon="3.5352">
        <ele>158.9</ele>
        <time>2016-01-25T14:55:22.441Z</time>
      </trkpt>
      <trkpt lat="49.52433" lon="3.53526">
        <ele>159</ele>
        <time>2016-01-25T14:55:28.503Z</time>
      </trkpt>
      <trkpt lat="49.52431" lon="3.53527">
        <ele>158.9</ele>
        <time>2016-01-25T14:55:29.301Z</time>
      </trkpt>
      <trkpt lat="49.52425" lon="3.53534">
        <ele>158.7</ele>
        <time>2016-01-25T14:55:33.438Z</time>
      </trkpt>
      <trkpt lat="49.52424" lon="3.53536">
        <ele>158.9</ele>
        <time>2016-01-25T14:55:34.431Z</time>
      </trkpt>
      <trkpt lat="49.52417" lon="3.53544">
        <ele>159.2</ele>
        <time>2016-01-25T14:55:39.414Z</time>
      </trkpt>
      <trkpt lat="49.52415" lon="3.53545">
        <ele>159.3</ele>
        <time>2016-01-25T14:55:40.402Z</time>
      </trkpt>
      <trkpt lat="49.52408" lon="3.53551">
        <ele>159.4</ele>
        <time>2016-01-25T14:55:45.470Z</time>
      </trkpt>
      <trkpt lat="49.52406" lon="3.53552">
        <ele>159.3</ele>
        <time>2016-01-25T14:55:46.460Z</time>
      </trkpt>
      <trkpt lat="49.524" lon="3.53559">
        <ele>159</ele>
        <time>2016-01-25T14:55:51.421Z</time>
      </trkpt>
      <trkpt lat="49.52398" lon="3.5356">
        <ele>158.9</ele>
        <time>2016-01-25T14:55:52.414Z</time>
      </trkpt>
      <trkpt lat="49.52392" lon="3.53568">
        <ele>158.8</ele>
        <time>2016-01-25T14:55:58.431Z</time>
      </trkpt>
      <trkpt lat="49.5239" lon="3.53569">
        <ele>158.7</ele>
        <time>2016-01-25T14:55:59.409Z</time>
      </trkpt>
      <trkpt lat="49.52385" lon="3.53576">
        <ele>158.5</ele>
        <time>2016-01-25T14:56:04.433Z</time>
      </trkpt>
      <trkpt lat="49.52384" lon="3.53579">
        <ele>158.3</ele>
        <time>2016-01-25T14:56:05.445Z</time>
      </trkpt>
      <trkpt lat="49.5238" lon="3.53589">
        <ele>158.1</ele>
        <time>2016-01-25T14:56:09.486Z</time>
      </trkpt>
      <trkpt lat="49.52379" lon="3.53591">
        <ele>158.3</ele>
        <time>2016-01-25T14:56:10.483Z</time>
      </trkpt>
      <trkpt lat="49.52374" lon="3.53601">
        <ele>158.5</ele>
        <time>2016-01-25T14:56:16.445Z</time>
      </trkpt>
      <trkpt lat="49.52372" lon="3.53603">
        <ele>158.5</ele>
        <time>2016-01-25T14:56:17.439Z</time>
      </trkpt>
      <trkpt lat="49.52367" lon="3.53612">
        <ele>159</ele>
        <time>2016-01-25T14:56:23.414Z</time>
      </trkpt>
      <trkpt lat="49.52366" lon="3.53614">
        <ele>158.9</ele>
        <time>2016-01-25T14:56:24.448Z</time>
      </trkpt>
      <trkpt lat="49.52361" lon="3.53624">
        <ele>159</ele>
        <time>2016-01-25T14:56:29.413Z</time>
      </trkpt>
      <trkpt lat="49.5236" lon="3.53627">
        <ele>159</ele>
        <time>2016-01-25T14:56:30.511Z</time>
      </trkpt>
      <trkpt lat="49.52357" lon="3.53637">
        <ele>159</ele>
        <time>2016-01-25T14:56:35.512Z</time>
      </trkpt>
      <trkpt lat="49.52356" lon="3.53639">
        <ele>159.1</ele>
        <time>2016-01-25T14:56:36.494Z</time>
      </trkpt>
      <trkpt lat="49.52353" lon="3.53651">
        <ele>159</ele>
        <time>2016-01-25T14:56:42.331Z</time>
      </trkpt>
      <trkpt lat="49.52352" lon="3.53653">
        <ele>158.9</ele>
        <time>2016-01-25T14:56:43.525Z</time>
      </trkpt>
      <trkpt lat="49.52349" lon="3.53664">
        <ele>158.4</ele>
        <time>2016-01-25T14:56:49.467Z</time>
      </trkpt>
      <trkpt lat="49.52348" lon="3.53665">
        <ele>158.2</ele>
        <time>2016-01-25T14:56:50.457Z</time>
      </trkpt>
      <trkpt lat="49.52353" lon="3.53676">
        <ele>156.3</ele>
        <time>2016-01-25T14:56:58.455Z</time>
      </trkpt>
      <trkpt lat="49.52354" lon="3.53677">
        <ele>156.1</ele>
        <time>2016-01-25T14:56:59.436Z</time>
      </trkpt>
      <trkpt lat="49.52361" lon="3.53682">
        <ele>155.5</ele>
        <time>2016-01-25T14:57:05.415Z</time>
      </trkpt>
      <trkpt lat="49.52362" lon="3.53682">
        <ele>155.4</ele>
        <time>2016-01-25T14:57:06.449Z</time>
      </trkpt>
      <trkpt lat="49.5237" lon="3.53684">
        <ele>155.6</ele>
        <time>2016-01-25T14:57:14.480Z</time>
      </trkpt>
      <trkpt lat="49.52371" lon="3.53684">
        <ele>155.8</ele>
        <time>2016-01-25T14:57:15.474Z</time>
      </trkpt>
      <trkpt lat="49.52379" lon="3.53685">
        <ele>156.1</ele>
        <time>2016-01-25T14:57:22.543Z</time>
      </trkpt>
      <trkpt lat="49.52381" lon="3.53685">
        <ele>156</ele>
        <time>2016-01-25T14:57:23.414Z</time>
      </trkpt>
      <trkpt lat="49.52389" lon="3.53686">
        <ele>157</ele>
        <time>2016-01-25T14:57:30.351Z</time>
      </trkpt>
      <trkpt lat="49.5239" lon="3.53686">
        <ele>157.3</ele>
        <time>2016-01-25T14:57:31.352Z</time>
      </trkpt>
      <trkpt lat="49.52398" lon="3.53689">
        <ele>157.8</ele>
        <time>2016-01-25T14:57:37.471Z</time>
      </trkpt>
      <trkpt lat="49.52399" lon="3.5369">
        <ele>157.7</ele>
        <time>2016-01-25T14:57:38.460Z</time>
      </trkpt>
      <trkpt lat="49.52406" lon="3.53696">
        <ele>157.5</ele>
        <time>2016-01-25T14:57:44.436Z</time>
      </trkpt>
      <trkpt lat="49.52407" lon="3.53697">
        <ele>157.6</ele>
        <time>2016-01-25T14:57:45.428Z</time>
      </trkpt>
      <trkpt lat="49.52413" lon="3.53705">
        <ele>157.5</ele>
        <time>2016-01-25T14:57:51.415Z</time>
      </trkpt>
      <trkpt lat="49.52414" lon="3.53707">
        <ele>157.5</ele>
        <time>2016-01-25T14:57:52.407Z</time>
      </trkpt>
      <trkpt lat="49.5242" lon="3.53717">
        <ele>158</ele>
        <time>2016-01-25T14:58:00.533Z</time>
      </trkpt>
      <trkpt lat="49.52421" lon="3.53718">
        <ele>158.1</ele>
        <time>2016-01-25T14:58:01.404Z</time>
      </trkpt>
      <trkpt lat="49.52426" lon="3.53727">
        <ele>158.7</ele>
        <time>2016-01-25T14:58:08.481Z</time>
      </trkpt>
      <trkpt lat="49.52427" lon="3.53728">
        <ele>158.9</ele>
        <time>2016-01-25T14:58:09.469Z</time>
      </trkpt>
      <trkpt lat="49.52434" lon="3.53737">
        <ele>159.3</ele>
        <time>2016-01-25T14:58:17.462Z</time>
      </trkpt>
      <trkpt lat="49.52435" lon="3.53739">
        <ele>159.5</ele>
        <time>2016-01-25T14:58:18.451Z</time>
      </trkpt>
      <trkpt lat="49.5244" lon="3.53747">
        <ele>159.8</ele>
        <time>2016-01-25T14:58:25.467Z</time>
      </trkpt>
      <trkpt lat="49.52441" lon="3.53749">
        <ele>159.9</ele>
        <time>2016-01-25T14:58:26.460Z</time>
      </trkpt>
      <trkpt lat="49.52447" lon="3.53758">
        <ele>160.1</ele>
        <time>2016-01-25T14:58:33.440Z</time>
      </trkpt>
      <trkpt lat="49.52447" lon="3.53759">
        <ele>160.1</ele>
        <time>2016-01-25T14:58:34.420Z</time>
      </trkpt>
      <trkpt lat="49.52452" lon="3.53771">
        <ele>160.4</ele>
        <time>2016-01-25T14:58:42.463Z</time>
      </trkpt>
      <trkpt lat="49.52452" lon="3.53772">
        <ele>160.4</ele>
        <time>2016-01-25T14:58:43.454Z</time>
      </trkpt>
      <trkpt lat="49.52449" lon="3.53785">
        <ele>160.2</ele>
        <time>2016-01-25T14:58:51.442Z</time>
      </trkpt>
      <trkpt lat="49.52449" lon="3.53786">
        <ele>160.2</ele>
        <time>2016-01-25T14:58:52.433Z</time>
      </trkpt>
      <trkpt lat="49.52445" lon="3.53797">
        <ele>160.4</ele>
        <time>2016-01-25T14:58:59.419Z</time>
      </trkpt>
      <trkpt lat="49.52444" lon="3.53798">
        <ele>160.5</ele>
        <time>2016-01-25T14:59:00.517Z</time>
      </trkpt>
      <trkpt lat="49.52439" lon="3.53809">
        <ele>161</ele>
        <time>2016-01-25T14:59:07.512Z</time>
      </trkpt>
      <trkpt lat="49.52438" lon="3.5381">
        <ele>161</ele>
        <time>2016-01-25T14:59:08.472Z</time>
      </trkpt>
      <trkpt lat="49.52432" lon="3.5382">
        <ele>160.6</ele>
        <time>2016-01-25T14:59:15.446Z</time>
      </trkpt>
      <trkpt lat="49.52431" lon="3.53821">
        <ele>160.5</ele>
        <time>2016-01-25T14:59:16.426Z</time>
      </trkpt>
      <trkpt lat="49.52425" lon="3.53829">
        <ele>160.8</ele>
        <time>2016-01-25T14:59:23.422Z</time>
      </trkpt>
      <trkpt lat="49.52424" lon="3.5383">
        <ele>161</ele>
        <time>2016-01-25T14:59:24.460Z</time>
      </trkpt>
      <trkpt lat="49.52418" lon="3.53838">
        <ele>161.3</ele>
        <time>2016-01-25T14:59:30.539Z</time>
      </trkpt>
      <trkpt lat="49.52417" lon="3.53839">
        <ele>161.5</ele>
        <time>2016-01-25T14:59:31.415Z</time>
      </trkpt>
      <trkpt lat="49.5241" lon="3.53846">
        <ele>161.9</ele>
        <time>2016-01-25T14:59:39.503Z</time>
      </trkpt>
      <trkpt lat="49.52409" lon="3.53847">
        <ele>162</ele>
        <time>2016-01-25T14:59:40.494Z</time>
      </trkpt>
      <trkpt lat="49.52402" lon="3.53852">
        <ele>162</ele>
        <time>2016-01-25T14:59:47.461Z</time>
      </trkpt>
      <trkpt lat="49.524" lon="3.53853">
        <ele>161.8</ele>
        <time>2016-01-25T14:59:48.457Z</time>
      </trkpt>
      <trkpt lat="49.52393" lon="3.53859">
        <ele>161.5</ele>
        <time>2016-01-25T14:59:54.520Z</time>
      </trkpt>
      <trkpt lat="49.52392" lon="3.5386">
        <ele>161.5</ele>
        <time>2016-01-25T14:59:55.412Z</time>
      </trkpt>
      <trkpt lat="49.52385" lon="3.53866">
        <ele>161.6</ele>
        <time>2016-01-25T15:00:02.494Z</time>
      </trkpt>
      <trkpt lat="49.52384" lon="3.53867">
        <ele>161.6</ele>
        <time>2016-01-25T15:00:03.484Z</time>
      </trkpt>
      <trkpt lat="49.52376" lon="3.53872">
        <ele>161.4</ele>
        <time>2016-01-25T15:00:10.456Z</time>
      </trkpt>
      <trkpt lat="49.52375" lon="3.53873">
        <ele>161.5</ele>
        <time>2016-01-25T15:00:11.453Z</time>
      </trkpt>
      <trkpt lat="49.52368" lon="3.5388">
        <ele>160.4</ele>
        <time>2016-01-25T15:00:18.604Z</time>
      </trkpt>
      <trkpt lat="49.52367" lon="3.53881">
        <ele>160.4</ele>
        <time>2016-01-25T15:00:19.420Z</time>
      </trkpt>
      <trkpt lat="49.5236" lon="3.53889">
        <ele>160.4</ele>
        <time>2016-01-25T15:00:26.488Z</time>
      </trkpt>
      <trkpt lat="49.52359" lon="3.5389">
        <ele>160.2</ele>
        <time>2016-01-25T15:00:27.477Z</time>
      </trkpt>
      <trkpt lat="49.52353" lon="3.53898">
        <ele>160.1</ele>
        <time>2016-01-25T15:00:33.425Z</time>
      </trkpt>
      <trkpt lat="49.52352" lon="3.53899">
        <ele>160.1</ele>
        <time>2016-01-25T15:00:34.427Z</time>
      </trkpt>
      <trkpt lat="49.52351" lon="3.53912">
        <ele>159.9</ele>
        <time>2016-01-25T15:00:41.425Z</time>
      </trkpt>
      <trkpt lat="49.52351" lon="3.53915">
        <ele>160.2</ele>
        <time>2016-01-25T15:00:42.460Z</time>
      </trkpt>
      <trkpt lat="49.52354" lon="3.53927">
        <ele>161.1</ele>
        <time>2016-01-25T15:00:48.539Z</time>
      </trkpt>
      <trkpt lat="49.52354" lon="3.53929">
        <ele>160.9</ele>
        <time>2016-01-25T15:00:49.418Z</time>
      </trkpt>
      <trkpt lat="49.52357" lon="3.53942">
        <ele>160.9</ele>
        <time>2016-01-25T15:00:56.514Z</time>
      </trkpt>
      <trkpt lat="49.52358" lon="3.53944">
        <ele>160.8</ele>
        <time>2016-01-25T15:00:57.405Z</time>
      </trkpt>
      <trkpt lat="49.52362" lon="3.53956">
        <ele>161</ele>
        <time>2016-01-25T15:01:05.428Z</time>
      </trkpt>
      <trkpt lat="49.52362" lon="3.53957">
        <ele>161.1</ele>
        <time>2016-01-25T15:01:06.448Z</time>
      </trkpt>
      <trkpt lat="49.52361" lon="3.5397">
        <ele>161.1</ele>
        <time>2016-01-25T15:01:14.440Z</time>
      </trkpt>
      <trkpt lat="49.52361" lon="3.53971">
        <ele>161</ele>
        <time>2016-01-25T15:01:15.423Z</time>
      </trkpt>
      <trkpt lat="49.5236" lon="3.53985">
        <ele>161</ele>
        <time>2016-01-25T15:01:22.699Z</time>
      </trkpt>
      <trkpt lat="49.5236" lon="3.53986">
        <ele>161</ele>
        <time>2016-01-25T15:01:23.496Z</time>
      </trkpt>
      <trkpt lat="49.52358" lon="3.53998">
        <ele>160</ele>
        <time>2016-01-25T15:01:31.476Z</time>
      </trkpt>
      <trkpt lat="49.52359" lon="3.54">
        <ele>159.9</ele>
        <time>2016-01-25T15:01:32.466Z</time>
      </trkpt>
      <trkpt lat="49.5236" lon="3.54013">
        <ele>159.4</ele>
        <time>2016-01-25T15:01:39.441Z</time>
      </trkpt>
      <trkpt lat="49.5236" lon="3.54015">
        <ele>159.5</ele>
        <time>2016-01-25T15:01:40.435Z</time>
      </trkpt>
      <trkpt lat="49.52365" lon="3.54027">
        <ele>159.2</ele>
        <time>2016-01-25T15:01:47.425Z</time>
      </trkpt>
      <trkpt lat="49.52365" lon="3.54028">
        <ele>159.3</ele>
        <time>2016-01-25T15:01:48.525Z</time>
      </trkpt>
      <trkpt lat="49.52369" lon="3.54039">
        <ele>159.4</ele>
        <time>2016-01-25T15:01:57.516Z</time>
      </trkpt>
      <trkpt lat="49.5237" lon="3.5404">
        <ele>159.5</ele>
        <time>2016-01-25T15:01:58.417Z</time>
      </trkpt>
      <trkpt lat="49.52373" lon="3.54052">
        <ele>157.7</ele>
        <time>2016-01-25T15:02:07.494Z</time>
      </trkpt>
      <trkpt lat="49.52373" lon="3.54054">
        <ele>157.3</ele>
        <time>2016-01-25T15:02:08.476Z</time>
      </trkpt>
      <trkpt lat="49.52375" lon="3.54067">
        <ele>154.8</ele>
        <time>2016-01-25T15:02:19.416Z</time>
      </trkpt>
      <trkpt lat="49.52375" lon="3.54068">
        <ele>154.7</ele>
        <time>2016-01-25T15:02:20.413Z</time>
      </trkpt>
      <trkpt lat="49.52376" lon="3.5407">
        <ele>154</ele>
        <time>2016-01-25T15:02:23.470Z</time>
      </trkpt>
      <trkpt lat="49.52376" lon="3.54071">
        <ele>154</ele>
        <time>2016-01-25T15:02:24.462Z</time>
      </trkpt>
      <trkpt lat="49.52376" lon="3.54071">
        <ele>154</ele>
        <time>2016-01-25T15:02:24.472Z</time>
      </trkpt>
      <trkpt lat="49.52376" lon="3.54072">
        <ele>154.1</ele>
        <time>2016-01-25T15:02:25.490Z</time>
      </trkpt>
      <trkpt lat="49.52376" lon="3.54074">
        <ele>154.2</ele>
        <time>2016-01-25T15:02:27.502Z</time>
      </trkpt>
      <trkpt lat="49.52376" lon="3.54075">
        <ele>154.4</ele>
        <time>2016-01-25T15:02:28.491Z</time>
      </trkpt>
      <trkpt lat="49.52376" lon="3.54075">
        <ele>154.4</ele>
        <time>2016-01-25T15:02:28.508Z</time>
      </trkpt>
      <trkpt lat="49.52376" lon="3.54076">
        <ele>154.6</ele>
        <time>2016-01-25T15:02:29.396Z</time>
      </trkpt>
      <trkpt lat="49.52377" lon="3.54087">
        <ele>155.5</ele>
        <time>2016-01-25T15:02:39.454Z</time>
      </trkpt>
      <trkpt lat="49.52377" lon="3.54088">
        <ele>155.5</ele>
        <time>2016-01-25T15:02:40.451Z</time>
      </trkpt>
      <trkpt lat="49.52377" lon="3.54088">
        <ele>155.5</ele>
        <time>2016-01-25T15:02:40.472Z</time>
      </trkpt>
      <trkpt lat="49.52377" lon="3.54089">
        <ele>155.7</ele>
        <time>2016-01-25T15:02:41.459Z</time>
      </trkpt>
      <trkpt lat="49.52382" lon="3.541">
        <ele>155</ele>
        <time>2016-01-25T15:02:49.469Z</time>
      </trkpt>
      <trkpt lat="49.52382" lon="3.54102">
        <ele>154.8</ele>
        <time>2016-01-25T15:02:50.462Z</time>
      </trkpt>
      <trkpt lat="49.52386" lon="3.54113">
        <ele>154.1</ele>
        <time>2016-01-25T15:02:56.430Z</time>
      </trkpt>
      <trkpt lat="49.52386" lon="3.54115">
        <ele>154.2</ele>
        <time>2016-01-25T15:02:57.423Z</time>
      </trkpt>
      <trkpt lat="49.52392" lon="3.54126">
        <ele>153.3</ele>
        <time>2016-01-25T15:03:06.456Z</time>
      </trkpt>
      <trkpt lat="49.52392" lon="3.54126">
        <ele>153.5</ele>
        <time>2016-01-25T15:03:07.454Z</time>
      </trkpt>
      <trkpt lat="49.52398" lon="3.54135">
        <ele>154.9</ele>
        <time>2016-01-25T15:03:18.456Z</time>
      </trkpt>
      <trkpt lat="49.52399" lon="3.54136">
        <ele>155.1</ele>
        <time>2016-01-25T15:03:19.455Z</time>
      </trkpt>
      <trkpt lat="49.52405" lon="3.54142">
        <ele>153.9</ele>
        <time>2016-01-25T15:03:25.437Z</time>
      </trkpt>
      <trkpt lat="49.52407" lon="3.54143">
        <ele>153.8</ele>
        <time>2016-01-25T15:03:26.405Z</time>
      </trkpt>
      <trkpt lat="49.52416" lon="3.54146">
        <ele>151.2</ele>
        <time>2016-01-25T15:03:33.485Z</time>
      </trkpt>
      <trkpt lat="49.52418" lon="3.54147">
        <ele>151</ele>
        <time>2016-01-25T15:03:34.470Z</time>
      </trkpt>
      <trkpt lat="49.52426" lon="3.54151">
        <ele>150.8</ele>
        <time>2016-01-25T15:03:44.484Z</time>
      </trkpt>
      <trkpt lat="49.52427" lon="3.54151">
        <ele>150.9</ele>
        <time>2016-01-25T15:03:45.471Z</time>
      </trkpt>
      <trkpt lat="49.52435" lon="3.54153">
        <ele>151.2</ele>
        <time>2016-01-25T15:03:55.415Z</time>
      </trkpt>
      <trkpt lat="49.52437" lon="3.54154">
        <ele>151</ele>
        <time>2016-01-25T15:03:56.407Z</time>
      </trkpt>
      <trkpt lat="49.52444" lon="3.54158">
        <ele>150.8</ele>
        <time>2016-01-25T15:04:03.493Z</time>
      </trkpt>
      <trkpt lat="49.52445" lon="3.54158">
        <ele>150.8</ele>
        <time>2016-01-25T15:04:04.488Z</time>
      </trkpt>
      <trkpt lat="49.52453" lon="3.54165">
        <ele>152</ele>
        <time>2016-01-25T15:04:15.494Z</time>
      </trkpt>
      <trkpt lat="49.52454" lon="3.54166">
        <ele>152.3</ele>
        <time>2016-01-25T15:04:16.481Z</time>
      </trkpt>
      <trkpt lat="49.5246" lon="3.54172">
        <ele>152.1</ele>
        <time>2016-01-25T15:04:22.447Z</time>
      </trkpt>
      <trkpt lat="49.52462" lon="3.54173">
        <ele>152.2</ele>
        <time>2016-01-25T15:04:23.435Z</time>
      </trkpt>
      <trkpt lat="49.52469" lon="3.54178">
        <ele>151.5</ele>
        <time>2016-01-25T15:04:30.464Z</time>
      </trkpt>
      <trkpt lat="49.52469" lon="3.54179">
        <ele>151.5</ele>
        <time>2016-01-25T15:04:31.460Z</time>
      </trkpt>
      <trkpt lat="49.52469" lon="3.54179">
        <ele>151.5</ele>
        <time>2016-01-25T15:04:31.477Z</time>
      </trkpt>
      <trkpt lat="49.5247" lon="3.5418">
        <ele>151.5</ele>
        <time>2016-01-25T15:04:32.470Z</time>
      </trkpt>
      <trkpt lat="49.52478" lon="3.54185">
        <ele>150</ele>
        <time>2016-01-25T15:04:39.432Z</time>
      </trkpt>
      <trkpt lat="49.52479" lon="3.54185">
        <ele>149.7</ele>
        <time>2016-01-25T15:04:40.427Z</time>
      </trkpt>
      <trkpt lat="49.52487" lon="3.54185">
        <ele>149.1</ele>
        <time>2016-01-25T15:04:50.430Z</time>
      </trkpt>
      <trkpt lat="49.52488" lon="3.54185">
        <ele>148.9</ele>
        <time>2016-01-25T15:04:51.415Z</time>
      </trkpt>
      <trkpt lat="49.52496" lon="3.54185">
        <ele>147.6</ele>
        <time>2016-01-25T15:05:00.542Z</time>
      </trkpt>
      <trkpt lat="49.52498" lon="3.54185">
        <ele>147.7</ele>
        <time>2016-01-25T15:05:01.406Z</time>
      </trkpt>
      <trkpt lat="49.52507" lon="3.54184">
        <ele>146.6</ele>
        <time>2016-01-25T15:05:09.520Z</time>
      </trkpt>
      <trkpt lat="49.52508" lon="3.54184">
        <ele>146.7</ele>
        <time>2016-01-25T15:05:10.481Z</time>
      </trkpt>
      <trkpt lat="49.52516" lon="3.54181">
        <ele>147</ele>
        <time>2016-01-25T15:05:18.473Z</time>
      </trkpt>
      <trkpt lat="49.52518" lon="3.5418">
        <ele>147.1</ele>
        <time>2016-01-25T15:05:19.464Z</time>
      </trkpt>
      <trkpt lat="49.52526" lon="3.54176">
        <ele>147.2</ele>
        <time>2016-01-25T15:05:26.524Z</time>
      </trkpt>
      <trkpt lat="49.52527" lon="3.54176">
        <ele>147.2</ele>
        <time>2016-01-25T15:05:27.444Z</time>
      </trkpt>
      <trkpt lat="49.52535" lon="3.54173">
        <ele>146.9</ele>
        <time>2016-01-25T15:05:33.409Z</time>
      </trkpt>
      <trkpt lat="49.52536" lon="3.54172">
        <ele>146.8</ele>
        <time>2016-01-25T15:05:34.398Z</time>
      </trkpt>
      <trkpt lat="49.52544" lon="3.54178">
        <ele>143.2</ele>
        <time>2016-01-25T15:05:43.408Z</time>
      </trkpt>
      <trkpt lat="49.52545" lon="3.54179">
        <ele>142.8</ele>
        <time>2016-01-25T15:05:44.401Z</time>
      </trkpt>
      <trkpt lat="49.52548" lon="3.54191">
        <ele>141.8</ele>
        <time>2016-01-25T15:05:51.497Z</time>
      </trkpt>
      <trkpt lat="49.52549" lon="3.54192">
        <ele>141.6</ele>
        <time>2016-01-25T15:05:52.389Z</time>
      </trkpt>
      <trkpt lat="49.5255" lon="3.54205">
        <ele>140.4</ele>
        <time>2016-01-25T15:05:59.511Z</time>
      </trkpt>
      <trkpt lat="49.52551" lon="3.54207">
        <ele>140.3</ele>
        <time>2016-01-25T15:06:00.497Z</time>
      </trkpt>
      <trkpt lat="49.52554" lon="3.54219">
        <ele>139.7</ele>
        <time>2016-01-25T15:06:07.465Z</time>
      </trkpt>
      <trkpt lat="49.52554" lon="3.54221">
        <ele>139.7</ele>
        <time>2016-01-25T15:06:08.454Z</time>
      </trkpt>
      <trkpt lat="49.52558" lon="3.54232">
        <ele>139.3</ele>
        <time>2016-01-25T15:06:15.444Z</time>
      </trkpt>
      <trkpt lat="49.52559" lon="3.54233">
        <ele>139.3</ele>
        <time>2016-01-25T15:06:16.413Z</time>
      </trkpt>
      <trkpt lat="49.52564" lon="3.54244">
        <ele>139.6</ele>
        <time>2016-01-25T15:06:24.498Z</time>
      </trkpt>
      <trkpt lat="49.52564" lon="3.54246">
        <ele>139.6</ele>
        <time>2016-01-25T15:06:25.397Z</time>
      </trkpt>
      <trkpt lat="49.52566" lon="3.5425">
        <ele>139.4</ele>
        <time>2016-01-25T15:06:30.474Z</time>
      </trkpt>
      <trkpt lat="49.52566" lon="3.5425">
        <ele>139.6</ele>
        <time>2016-01-25T15:06:31.453Z</time>
      </trkpt>
      <trkpt lat="49.52566" lon="3.5425">
        <ele>139.5</ele>
        <time>2016-01-25T15:08:04.404Z</time>
      </trkpt>
      <trkpt lat="49.52569" lon="3.54245">
        <ele>138.8</ele>
        <time>2016-01-25T15:08:05.392Z</time>
      </trkpt>
      <trkpt lat="49.52569" lon="3.54246">
        <ele>138.8</ele>
        <time>2016-01-25T15:08:07.449Z</time>
      </trkpt>
      <trkpt lat="49.5257" lon="3.54246">
        <ele>138.8</ele>
        <time>2016-01-25T15:08:08.438Z</time>
      </trkpt>
      <trkpt lat="49.52569" lon="3.54246">
        <ele>138.7</ele>
        <time>2016-01-25T15:08:24.512Z</time>
      </trkpt>
      <trkpt lat="49.52568" lon="3.54246">
        <ele>138.6</ele>
        <time>2016-01-25T15:08:25.390Z</time>
      </trkpt>
      <trkpt lat="49.52563" lon="3.54236">
        <ele>138.3</ele>
        <time>2016-01-25T15:08:34.495Z</time>
      </trkpt>
      <trkpt lat="49.52563" lon="3.54235">
        <ele>138.4</ele>
        <time>2016-01-25T15:08:35.482Z</time>
      </trkpt>
      <trkpt lat="49.52563" lon="3.54235">
        <ele>138.4</ele>
        <time>2016-01-25T15:08:35.493Z</time>
      </trkpt>
      <trkpt lat="49.52563" lon="3.54234">
        <ele>138.4</ele>
        <time>2016-01-25T15:08:36.497Z</time>
      </trkpt>
      <trkpt lat="49.52563" lon="3.54234">
        <ele>138.4</ele>
        <time>2016-01-25T15:08:36.511Z</time>
      </trkpt>
      <trkpt lat="49.52563" lon="3.54233">
        <ele>138.4</ele>
        <time>2016-01-25T15:08:37.393Z</time>
      </trkpt>
      <trkpt lat="49.52567" lon="3.54244">
        <ele>136.6</ele>
        <time>2016-01-25T15:08:54.499Z</time>
      </trkpt>
      <trkpt lat="49.52567" lon="3.54245">
        <ele>136.6</ele>
        <time>2016-01-25T15:08:55.486Z</time>
      </trkpt>
      <trkpt lat="49.52573" lon="3.54254">
        <ele>136.5</ele>
        <time>2016-01-25T15:09:03.475Z</time>
      </trkpt>
      <trkpt lat="49.52574" lon="3.54255">
        <ele>136.6</ele>
        <time>2016-01-25T15:09:04.465Z</time>
      </trkpt>
      <trkpt lat="49.52581" lon="3.5426">
        <ele>135.6</ele>
        <time>2016-01-25T15:09:10.426Z</time>
      </trkpt>
      <trkpt lat="49.52583" lon="3.54261">
        <ele>135.4</ele>
        <time>2016-01-25T15:09:11.413Z</time>
      </trkpt>
      <trkpt lat="49.52591" lon="3.54265">
        <ele>134.9</ele>
        <time>2016-01-25T15:09:17.508Z</time>
      </trkpt>
      <trkpt lat="49.52592" lon="3.54266">
        <ele>134.7</ele>
        <time>2016-01-25T15:09:18.493Z</time>
      </trkpt>
      <trkpt lat="49.526" lon="3.54273">
        <ele>134.4</ele>
        <time>2016-01-25T15:09:25.464Z</time>
      </trkpt>
      <trkpt lat="49.52601" lon="3.54274">
        <ele>134.3</ele>
        <time>2016-01-25T15:09:26.455Z</time>
      </trkpt>
      <trkpt lat="49.52608" lon="3.5428">
        <ele>134.7</ele>
        <time>2016-01-25T15:09:32.437Z</time>
      </trkpt>
      <trkpt lat="49.52609" lon="3.54281">
        <ele>134.8</ele>
        <time>2016-01-25T15:09:33.415Z</time>
      </trkpt>
      <trkpt lat="49.52616" lon="3.54287">
        <ele>135.5</ele>
        <time>2016-01-25T15:09:40.498Z</time>
      </trkpt>
      <trkpt lat="49.52618" lon="3.54288">
        <ele>135.6</ele>
        <time>2016-01-25T15:09:41.392Z</time>
      </trkpt>
      <trkpt lat="49.5262" lon="3.54292">
        <ele>135.2</ele>
        <time>2016-01-25T15:09:48.502Z</time>
      </trkpt>
      <trkpt lat="49.5262" lon="3.54292">
        <ele>135.1</ele>
        <time>2016-01-25T15:09:49.491Z</time>
      </trkpt>
      <trkpt lat="49.5262" lon="3.54292">
        <ele>135.2</ele>
        <time>2016-01-25T15:10:46.488Z</time>
      </trkpt>
      <trkpt lat="49.52619" lon="3.54293">
        <ele>133.6</ele>
        <time>2016-01-25T15:10:47.474Z</time>
      </trkpt>
      <trkpt lat="49.52621" lon="3.54306">
        <ele>132.2</ele>
        <time>2016-01-25T15:10:58.472Z</time>
      </trkpt>
      <trkpt lat="49.52621" lon="3.54307">
        <ele>132.1</ele>
        <time>2016-01-25T15:10:59.472Z</time>
      </trkpt>
      <trkpt lat="49.5262" lon="3.5432">
        <ele>131.1</ele>
        <time>2016-01-25T15:11:07.467Z</time>
      </trkpt>
      <trkpt lat="49.5262" lon="3.54321">
        <ele>131</ele>
        <time>2016-01-25T15:11:08.451Z</time>
      </trkpt>
      <trkpt lat="49.52619" lon="3.54334">
        <ele>130</ele>
        <time>2016-01-25T15:11:16.431Z</time>
      </trkpt>
      <trkpt lat="49.52619" lon="3.54336">
        <ele>129.8</ele>
        <time>2016-01-25T15:11:17.426Z</time>
      </trkpt>
      <trkpt lat="49.52616" lon="3.54348">
        <ele>129.5</ele>
        <time>2016-01-25T15:11:24.424Z</time>
      </trkpt>
      <trkpt lat="49.52616" lon="3.54349">
        <ele>129.5</ele>
        <time>2016-01-25T15:11:25.407Z</time>
      </trkpt>
      <trkpt lat="49.52616" lon="3.54361">
        <ele>129.8</ele>
        <time>2016-01-25T15:11:32.392Z</time>
      </trkpt>
      <trkpt lat="49.52615" lon="3.54364">
        <ele>129.9</ele>
        <time>2016-01-25T15:11:33.373Z</time>
      </trkpt>
      <trkpt lat="49.52613" lon="3.54373">
        <ele>130.2</ele>
        <time>2016-01-25T15:11:38.451Z</time>
      </trkpt>
      <trkpt lat="49.52612" lon="3.54374">
        <ele>130.3</ele>
        <time>2016-01-25T15:11:39.425Z</time>
      </trkpt>
      <trkpt lat="49.52612" lon="3.54374">
        <ele>130.3</ele>
        <time>2016-01-25T15:11:39.445Z</time>
      </trkpt>
      <trkpt lat="49.52611" lon="3.54375">
        <ele>130.5</ele>
        <time>2016-01-25T15:11:40.436Z</time>
      </trkpt>
      <trkpt lat="49.52608" lon="3.54388">
        <ele>130.8</ele>
        <time>2016-01-25T15:11:49.424Z</time>
      </trkpt>
      <trkpt lat="49.52607" lon="3.54389">
        <ele>130.9</ele>
        <time>2016-01-25T15:11:50.416Z</time>
      </trkpt>
      <trkpt lat="49.52602" lon="3.54399">
        <ele>130.7</ele>
        <time>2016-01-25T15:11:56.454Z</time>
      </trkpt>
      <trkpt lat="49.52602" lon="3.544">
        <ele>130.6</ele>
        <time>2016-01-25T15:11:57.380Z</time>
      </trkpt>
      <trkpt lat="49.52598" lon="3.54411">
        <ele>130.5</ele>
        <time>2016-01-25T15:12:05.471Z</time>
      </trkpt>
      <trkpt lat="49.52597" lon="3.54412">
        <ele>130.7</ele>
        <time>2016-01-25T15:12:06.467Z</time>
      </trkpt>
      <trkpt lat="49.52594" lon="3.54424">
        <ele>131.5</ele>
        <time>2016-01-25T15:12:11.437Z</time>
      </trkpt>
      <trkpt lat="49.52594" lon="3.54426">
        <ele>131.6</ele>
        <time>2016-01-25T15:12:12.420Z</time>
      </trkpt>
      <trkpt lat="49.52591" lon="3.54438">
        <ele>131.7</ele>
        <time>2016-01-25T15:12:19.411Z</time>
      </trkpt>
      <trkpt lat="49.52591" lon="3.5444">
        <ele>131.7</ele>
        <time>2016-01-25T15:12:20.400Z</time>
      </trkpt>
      <trkpt lat="49.52589" lon="3.54452">
        <ele>133.9</ele>
        <time>2016-01-25T15:12:28.485Z</time>
      </trkpt>
      <trkpt lat="49.52589" lon="3.54454">
        <ele>133.9</ele>
        <time>2016-01-25T15:12:29.477Z</time>
      </trkpt>
      <trkpt lat="49.52585" lon="3.54464">
        <ele>135.5</ele>
        <time>2016-01-25T15:12:37.472Z</time>
      </trkpt>
      <trkpt lat="49.52584" lon="3.54465">
        <ele>135.4</ele>
        <time>2016-01-25T15:12:38.461Z</time>
      </trkpt>
      <trkpt lat="49.52583" lon="3.54478">
        <ele>137.7</ele>
        <time>2016-01-25T15:12:46.479Z</time>
      </trkpt>
      <trkpt lat="49.52583" lon="3.54479">
        <ele>137.9</ele>
        <time>2016-01-25T15:12:47.472Z</time>
      </trkpt>
      <trkpt lat="49.52583" lon="3.54479">
        <ele>137.9</ele>
        <time>2016-01-25T15:12:47.487Z</time>
      </trkpt>
      <trkpt lat="49.52583" lon="3.54481">
        <ele>138</ele>
        <time>2016-01-25T15:12:48.479Z</time>
      </trkpt>
      <trkpt lat="49.52583" lon="3.54482">
        <ele>138.2</ele>
        <time>2016-01-25T15:12:50.400Z</time>
      </trkpt>
      <trkpt lat="49.52583" lon="3.54484">
        <ele>138.7</ele>
        <time>2016-01-25T15:12:51.394Z</time>
      </trkpt>
      <trkpt lat="49.52581" lon="3.54497">
        <ele>140.9</ele>
        <time>2016-01-25T15:12:59.485Z</time>
      </trkpt>
      <trkpt lat="49.52582" lon="3.54499">
        <ele>141.1</ele>
        <time>2016-01-25T15:13:00.484Z</time>
      </trkpt>
      <trkpt lat="49.52578" lon="3.5451">
        <ele>141.4</ele>
        <time>2016-01-25T15:13:08.472Z</time>
      </trkpt>
      <trkpt lat="49.52578" lon="3.54512">
        <ele>141.3</ele>
        <time>2016-01-25T15:13:09.464Z</time>
      </trkpt>
      <trkpt lat="49.52579" lon="3.54524">
        <ele>142.2</ele>
        <time>2016-01-25T15:13:16.483Z</time>
      </trkpt>
      <trkpt lat="49.52579" lon="3.54526">
        <ele>142.4</ele>
        <time>2016-01-25T15:13:17.475Z</time>
      </trkpt>
      <trkpt lat="49.52578" lon="3.54538">
        <ele>143.7</ele>
        <time>2016-01-25T15:13:26.462Z</time>
      </trkpt>
      <trkpt lat="49.52578" lon="3.5454">
        <ele>143.8</ele>
        <time>2016-01-25T15:13:27.445Z</time>
      </trkpt>
      <trkpt lat="49.52579" lon="3.54553">
        <ele>143.3</ele>
        <time>2016-01-25T15:13:36.452Z</time>
      </trkpt>
      <trkpt lat="49.52579" lon="3.54555">
        <ele>143.6</ele>
        <time>2016-01-25T15:13:37.441Z</time>
      </trkpt>
      <trkpt lat="49.52582" lon="3.54567">
        <ele>144.7</ele>
        <time>2016-01-25T15:13:44.439Z</time>
      </trkpt>
      <trkpt lat="49.52582" lon="3.54568">
        <ele>144.6</ele>
        <time>2016-01-25T15:13:45.432Z</time>
      </trkpt>
      <trkpt lat="49.52584" lon="3.5458">
        <ele>144.6</ele>
        <time>2016-01-25T15:13:53.421Z</time>
      </trkpt>
      <trkpt lat="49.52584" lon="3.54582">
        <ele>144.5</ele>
        <time>2016-01-25T15:13:54.420Z</time>
      </trkpt>
      <trkpt lat="49.52585" lon="3.54583">
        <ele>144.8</ele>
        <time>2016-01-25T15:13:55.451Z</time>
      </trkpt>
      <trkpt lat="49.52585" lon="3.54584">
        <ele>145.1</ele>
        <time>2016-01-25T15:13:56.443Z</time>
      </trkpt>
      <trkpt lat="49.52585" lon="3.54585">
        <ele>145.3</ele>
        <time>2016-01-25T15:14:00.511Z</time>
      </trkpt>
      <trkpt lat="49.52585" lon="3.5459">
        <ele>145.5</ele>
        <time>2016-01-25T15:14:01.383Z</time>
      </trkpt>
      <trkpt lat="49.52583" lon="3.54603">
        <ele>145.6</ele>
        <time>2016-01-25T15:14:09.480Z</time>
      </trkpt>
      <trkpt lat="49.52583" lon="3.54604">
        <ele>145.6</ele>
        <time>2016-01-25T15:14:10.467Z</time>
      </trkpt>
      <trkpt lat="49.52586" lon="3.54617">
        <ele>146.7</ele>
        <time>2016-01-25T15:14:20.469Z</time>
      </trkpt>
      <trkpt lat="49.52586" lon="3.54618">
        <ele>147</ele>
        <time>2016-01-25T15:14:21.461Z</time>
      </trkpt>
      <trkpt lat="49.52589" lon="3.54623">
        <ele>147.6</ele>
        <time>2016-01-25T15:14:25.404Z</time>
      </trkpt>
      <trkpt lat="49.52589" lon="3.54624">
        <ele>147.8</ele>
        <time>2016-01-25T15:14:26.389Z</time>
      </trkpt>
      <trkpt lat="49.52589" lon="3.54624">
        <ele>147.8</ele>
        <time>2016-01-25T15:14:26.414Z</time>
      </trkpt>
      <trkpt lat="49.52589" lon="3.54625">
        <ele>148</ele>
        <time>2016-01-25T15:14:27.406Z</time>
      </trkpt>
      <trkpt lat="49.52588" lon="3.54626">
        <ele>147.9</ele>
        <time>2016-01-25T15:14:28.439Z</time>
      </trkpt>
      <trkpt lat="49.52588" lon="3.54627">
        <ele>148</ele>
        <time>2016-01-25T15:14:29.431Z</time>
      </trkpt>
      <trkpt lat="49.52588" lon="3.54627">
        <ele>148.1</ele>
        <time>2016-01-25T15:14:31.469Z</time>
      </trkpt>
      <trkpt lat="49.52588" lon="3.54628">
        <ele>148.3</ele>
        <time>2016-01-25T15:14:32.459Z</time>
      </trkpt>
      <trkpt lat="49.52588" lon="3.54629">
        <ele>148.4</ele>
        <time>2016-01-25T15:14:33.483Z</time>
      </trkpt>
      <trkpt lat="49.52588" lon="3.54631">
        <ele>148.3</ele>
        <time>2016-01-25T15:14:34.381Z</time>
      </trkpt>
      <trkpt lat="49.52588" lon="3.54631">
        <ele>148.4</ele>
        <time>2016-01-25T15:14:42.487Z</time>
      </trkpt>
      <trkpt lat="49.52587" lon="3.54634">
        <ele>149</ele>
        <time>2016-01-25T15:14:43.479Z</time>
      </trkpt>
      <trkpt lat="49.52587" lon="3.54635">
        <ele>149.1</ele>
        <time>2016-01-25T15:14:44.419Z</time>
      </trkpt>
      <trkpt lat="49.52587" lon="3.54636">
        <ele>149.2</ele>
        <time>2016-01-25T15:14:45.397Z</time>
      </trkpt>
      <trkpt lat="49.52587" lon="3.54636">
        <ele>149.4</ele>
        <time>2016-01-25T15:14:46.427Z</time>
      </trkpt>
      <trkpt lat="49.52587" lon="3.54636">
        <ele>149.4</ele>
        <time>2016-01-25T15:14:47.411Z</time>
      </trkpt>
      <trkpt lat="49.52592" lon="3.54646">
        <ele>150.5</ele>
        <time>2016-01-25T15:14:55.425Z</time>
      </trkpt>
      <trkpt lat="49.52593" lon="3.54648">
        <ele>150.7</ele>
        <time>2016-01-25T15:14:56.396Z</time>
      </trkpt>
      <trkpt lat="49.52598" lon="3.54658">
        <ele>150.4</ele>
        <time>2016-01-25T15:15:03.481Z</time>
      </trkpt>
      <trkpt lat="49.52599" lon="3.5466">
        <ele>149.7</ele>
        <time>2016-01-25T15:15:04.468Z</time>
      </trkpt>
      <trkpt lat="49.52602" lon="3.54671">
        <ele>150.7</ele>
        <time>2016-01-25T15:15:12.461Z</time>
      </trkpt>
      <trkpt lat="49.52603" lon="3.54673">
        <ele>150.9</ele>
        <time>2016-01-25T15:15:13.466Z</time>
      </trkpt>
      <trkpt lat="49.52605" lon="3.54685">
        <ele>153</ele>
        <time>2016-01-25T15:15:20.473Z</time>
      </trkpt>
      <trkpt lat="49.52606" lon="3.54686">
        <ele>152.9</ele>
        <time>2016-01-25T15:15:21.462Z</time>
      </trkpt>
      <trkpt lat="49.52609" lon="3.54699">
        <ele>153.6</ele>
        <time>2016-01-25T15:15:30.458Z</time>
      </trkpt>
      <trkpt lat="49.52609" lon="3.547">
        <ele>153.6</ele>
        <time>2016-01-25T15:15:31.441Z</time>
      </trkpt>
      <trkpt lat="49.52612" lon="3.54711">
        <ele>154.9</ele>
        <time>2016-01-25T15:15:39.430Z</time>
      </trkpt>
      <trkpt lat="49.52612" lon="3.54713">
        <ele>154.9</ele>
        <time>2016-01-25T15:15:40.420Z</time>
      </trkpt>
      <trkpt lat="49.52617" lon="3.54724">
        <ele>155.5</ele>
        <time>2016-01-25T15:15:51.464Z</time>
      </trkpt>
      <trkpt lat="49.52618" lon="3.54725">
        <ele>155.6</ele>
        <time>2016-01-25T15:15:52.456Z</time>
      </trkpt>
      <trkpt lat="49.52623" lon="3.54736">
        <ele>154.3</ele>
        <time>2016-01-25T15:16:01.451Z</time>
      </trkpt>
      <trkpt lat="49.52623" lon="3.54737">
        <ele>154.1</ele>
        <time>2016-01-25T15:16:02.442Z</time>
      </trkpt>
      <trkpt lat="49.5263" lon="3.54746">
        <ele>153.6</ele>
        <time>2016-01-25T15:16:10.436Z</time>
      </trkpt>
      <trkpt lat="49.5263" lon="3.54747">
        <ele>154</ele>
        <time>2016-01-25T15:16:11.419Z</time>
      </trkpt>
      <trkpt lat="49.52638" lon="3.54754">
        <ele>155.9</ele>
        <time>2016-01-25T15:16:19.406Z</time>
      </trkpt>
      <trkpt lat="49.52638" lon="3.54754">
        <ele>155.9</ele>
        <time>2016-01-25T15:16:20.400Z</time>
      </trkpt>
      <trkpt lat="49.52643" lon="3.54765">
        <ele>157.7</ele>
        <time>2016-01-25T15:16:28.482Z</time>
      </trkpt>
      <trkpt lat="49.52643" lon="3.54766">
        <ele>157.7</ele>
        <time>2016-01-25T15:16:29.470Z</time>
      </trkpt>
      <trkpt lat="49.52649" lon="3.54775">
        <ele>156.8</ele>
        <time>2016-01-25T15:16:37.470Z</time>
      </trkpt>
      <trkpt lat="49.5265" lon="3.54777">
        <ele>156.8</ele>
        <time>2016-01-25T15:16:38.461Z</time>
      </trkpt>
      <trkpt lat="49.52654" lon="3.54789">
        <ele>157.2</ele>
        <time>2016-01-25T15:16:45.469Z</time>
      </trkpt>
      <trkpt lat="49.52655" lon="3.54791">
        <ele>157.4</ele>
        <time>2016-01-25T15:16:46.461Z</time>
      </trkpt>
      <trkpt lat="49.52659" lon="3.54802">
        <ele>158.3</ele>
        <time>2016-01-25T15:16:53.451Z</time>
      </trkpt>
      <trkpt lat="49.52659" lon="3.54803">
        <ele>158.2</ele>
        <time>2016-01-25T15:16:54.442Z</time>
      </trkpt>
      <trkpt lat="49.52667" lon="3.54809">
        <ele>158.7</ele>
        <time>2016-01-25T15:17:01.449Z</time>
      </trkpt>
      <trkpt lat="49.52668" lon="3.5481">
        <ele>158.9</ele>
        <time>2016-01-25T15:17:02.438Z</time>
      </trkpt>
      <trkpt lat="49.52676" lon="3.54812">
        <ele>159.2</ele>
        <time>2016-01-25T15:17:07.492Z</time>
      </trkpt>
      <trkpt lat="49.52677" lon="3.54813">
        <ele>159</ele>
        <time>2016-01-25T15:17:08.393Z</time>
      </trkpt>
      <trkpt lat="49.52685" lon="3.54817">
        <ele>159.3</ele>
        <time>2016-01-25T15:17:13.460Z</time>
      </trkpt>
      <trkpt lat="49.52686" lon="3.54818">
        <ele>159.2</ele>
        <time>2016-01-25T15:17:14.451Z</time>
      </trkpt>
      <trkpt lat="49.52693" lon="3.5482">
        <ele>158.5</ele>
        <time>2016-01-25T15:17:26.471Z</time>
      </trkpt>
      <trkpt lat="49.52693" lon="3.5482">
        <ele>158.5</ele>
        <time>2016-01-25T15:17:27.467Z</time>
      </trkpt>
      <trkpt lat="49.52693" lon="3.5482">
        <ele>158.4</ele>
        <time>2016-01-25T15:17:33.429Z</time>
      </trkpt>
      <trkpt lat="49.52695" lon="3.54822">
        <ele>157.4</ele>
        <time>2016-01-25T15:17:34.418Z</time>
      </trkpt>
      <trkpt lat="49.52703" lon="3.54827">
        <ele>157.6</ele>
        <time>2016-01-25T15:17:41.492Z</time>
      </trkpt>
      <trkpt lat="49.52704" lon="3.54828">
        <ele>157.7</ele>
        <time>2016-01-25T15:17:42.489Z</time>
      </trkpt>
      <trkpt lat="49.52713" lon="3.5483">
        <ele>157.4</ele>
        <time>2016-01-25T15:17:49.484Z</time>
      </trkpt>
      <trkpt lat="49.52713" lon="3.5483">
        <ele>157.3</ele>
        <time>2016-01-25T15:17:50.492Z</time>
      </trkpt>
      <trkpt lat="49.52722" lon="3.54827">
        <ele>157.3</ele>
        <time>2016-01-25T15:18:00.512Z</time>
      </trkpt>
      <trkpt lat="49.52723" lon="3.54827">
        <ele>157.3</ele>
        <time>2016-01-25T15:18:01.391Z</time>
      </trkpt>
      <trkpt lat="49.52728" lon="3.54831">
        <ele>157.9</ele>
        <time>2016-01-25T15:18:10.691Z</time>
      </trkpt>
      <trkpt lat="49.52729" lon="3.54832">
        <ele>157.9</ele>
        <time>2016-01-25T15:18:11.482Z</time>
      </trkpt>
      <trkpt lat="49.52729" lon="3.54832">
        <ele>157.9</ele>
        <time>2016-01-25T15:18:14.414Z</time>
      </trkpt>
      <trkpt lat="49.52731" lon="3.54833">
        <ele>158</ele>
        <time>2016-01-25T15:18:15.404Z</time>
      </trkpt>
      <trkpt lat="49.52739" lon="3.54838">
        <ele>156.1</ele>
        <time>2016-01-25T15:18:22.478Z</time>
      </trkpt>
      <trkpt lat="49.5274" lon="3.54839">
        <ele>156</ele>
        <time>2016-01-25T15:18:23.467Z</time>
      </trkpt>
      <trkpt lat="49.52748" lon="3.54844">
        <ele>155.9</ele>
        <time>2016-01-25T15:18:33.486Z</time>
      </trkpt>
      <trkpt lat="49.52749" lon="3.54844">
        <ele>155.9</ele>
        <time>2016-01-25T15:18:34.474Z</time>
      </trkpt>
      <trkpt lat="49.52757" lon="3.5485">
        <ele>157.3</ele>
        <time>2016-01-25T15:18:44.492Z</time>
      </trkpt>
      <trkpt lat="49.52757" lon="3.54851">
        <ele>157.3</ele>
        <time>2016-01-25T15:18:45.498Z</time>
      </trkpt>
      <trkpt lat="49.52765" lon="3.54857">
        <ele>155.8</ele>
        <time>2016-01-25T15:18:55.409Z</time>
      </trkpt>
      <trkpt lat="49.52766" lon="3.54859">
        <ele>155</ele>
        <time>2016-01-25T15:18:56.397Z</time>
      </trkpt>
      <trkpt lat="49.52772" lon="3.54866">
        <ele>150.8</ele>
        <time>2016-01-25T15:19:02.456Z</time>
      </trkpt>
      <trkpt lat="49.52773" lon="3.54867">
        <ele>149.6</ele>
        <time>2016-01-25T15:19:03.460Z</time>
      </trkpt>
      <trkpt lat="49.52781" lon="3.54875">
        <ele>145.9</ele>
        <time>2016-01-25T15:19:13.452Z</time>
      </trkpt>
      <trkpt lat="49.52781" lon="3.54875">
        <ele>145.3</ele>
        <time>2016-01-25T15:19:14.455Z</time>
      </trkpt>
      <trkpt lat="49.52786" lon="3.54885">
        <ele>143.9</ele>
        <time>2016-01-25T15:19:21.428Z</time>
      </trkpt>
      <trkpt lat="49.52787" lon="3.54887">
        <ele>143.2</ele>
        <time>2016-01-25T15:19:22.417Z</time>
      </trkpt>
      <trkpt lat="49.52789" lon="3.54898">
        <ele>140.9</ele>
        <time>2016-01-25T15:19:28.507Z</time>
      </trkpt>
      <trkpt lat="49.5279" lon="3.549">
        <ele>140.4</ele>
        <time>2016-01-25T15:19:29.505Z</time>
      </trkpt>
      <trkpt lat="49.52793" lon="3.54913">
        <ele>139.8</ele>
        <time>2016-01-25T15:19:36.449Z</time>
      </trkpt>
      <trkpt lat="49.52793" lon="3.54915">
        <ele>140.1</ele>
        <time>2016-01-25T15:19:37.439Z</time>
      </trkpt>
      <trkpt lat="49.52795" lon="3.54928">
        <ele>141.4</ele>
        <time>2016-01-25T15:19:44.415Z</time>
      </trkpt>
      <trkpt lat="49.52796" lon="3.5493">
        <ele>141.3</ele>
        <time>2016-01-25T15:19:45.405Z</time>
      </trkpt>
      <trkpt lat="49.52798" lon="3.54942">
        <ele>140.4</ele>
        <time>2016-01-25T15:19:51.480Z</time>
      </trkpt>
      <trkpt lat="49.52798" lon="3.54943">
        <ele>140.2</ele>
        <time>2016-01-25T15:19:52.468Z</time>
      </trkpt>
      <trkpt lat="49.52801" lon="3.54955">
        <ele>139</ele>
        <time>2016-01-25T15:20:01.463Z</time>
      </trkpt>
      <trkpt lat="49.52802" lon="3.54956">
        <ele>138.9</ele>
        <time>2016-01-25T15:20:02.455Z</time>
      </trkpt>
      <trkpt lat="49.52807" lon="3.54967">
        <ele>138</ele>
        <time>2016-01-25T15:20:10.410Z</time>
      </trkpt>
      <trkpt lat="49.52808" lon="3.54968">
        <ele>138.1</ele>
        <time>2016-01-25T15:20:11.393Z</time>
      </trkpt>
      <trkpt lat="49.52814" lon="3.54976">
        <ele>136.7</ele>
        <time>2016-01-25T15:20:19.405Z</time>
      </trkpt>
      <trkpt lat="49.52815" lon="3.54977">
        <ele>136.5</ele>
        <time>2016-01-25T15:20:20.394Z</time>
      </trkpt>
      <trkpt lat="49.52821" lon="3.54984">
        <ele>135.1</ele>
        <time>2016-01-25T15:20:26.464Z</time>
      </trkpt>
      <trkpt lat="49.52822" lon="3.54986">
        <ele>134.6</ele>
        <time>2016-01-25T15:20:27.456Z</time>
      </trkpt>
      <trkpt lat="49.52829" lon="3.54993">
        <ele>133.6</ele>
        <time>2016-01-25T15:20:33.422Z</time>
      </trkpt>
      <trkpt lat="49.5283" lon="3.54995">
        <ele>133.6</ele>
        <time>2016-01-25T15:20:34.414Z</time>
      </trkpt>
      <trkpt lat="49.52836" lon="3.55002">
        <ele>132.9</ele>
        <time>2016-01-25T15:20:40.486Z</time>
      </trkpt>
      <trkpt lat="49.52837" lon="3.55003">
        <ele>132.8</ele>
        <time>2016-01-25T15:20:41.486Z</time>
      </trkpt>
      <trkpt lat="49.52844" lon="3.5501">
        <ele>132.1</ele>
        <time>2016-01-25T15:20:49.462Z</time>
      </trkpt>
      <trkpt lat="49.52845" lon="3.55012">
        <ele>132.1</ele>
        <time>2016-01-25T15:20:50.457Z</time>
      </trkpt>
      <trkpt lat="49.52851" lon="3.55022">
        <ele>132.4</ele>
        <time>2016-01-25T15:20:58.438Z</time>
      </trkpt>
      <trkpt lat="49.52851" lon="3.55023">
        <ele>132.3</ele>
        <time>2016-01-25T15:20:59.426Z</time>
      </trkpt>
      <trkpt lat="49.52856" lon="3.55033">
        <ele>132</ele>
        <time>2016-01-25T15:21:06.502Z</time>
      </trkpt>
      <trkpt lat="49.52857" lon="3.55035">
        <ele>132.1</ele>
        <time>2016-01-25T15:21:07.393Z</time>
      </trkpt>
      <trkpt lat="49.52862" lon="3.55047">
        <ele>130.1</ele>
        <time>2016-01-25T15:21:14.483Z</time>
      </trkpt>
      <trkpt lat="49.52863" lon="3.55048">
        <ele>129.9</ele>
        <time>2016-01-25T15:21:15.475Z</time>
      </trkpt>
      <trkpt lat="49.52866" lon="3.5506">
        <ele>129.6</ele>
        <time>2016-01-25T15:21:22.460Z</time>
      </trkpt>
      <trkpt lat="49.52866" lon="3.55061">
        <ele>129.6</ele>
        <time>2016-01-25T15:21:23.444Z</time>
      </trkpt>
      <trkpt lat="49.52869" lon="3.55072">
        <ele>129</ele>
        <time>2016-01-25T15:21:30.526Z</time>
      </trkpt>
      <trkpt lat="49.5287" lon="3.55074">
        <ele>129</ele>
        <time>2016-01-25T15:21:31.402Z</time>
      </trkpt>
      <trkpt lat="49.52873" lon="3.55087">
        <ele>128.3</ele>
        <time>2016-01-25T15:21:38.467Z</time>
      </trkpt>
      <trkpt lat="49.52873" lon="3.55088">
        <ele>128.3</ele>
        <time>2016-01-25T15:21:39.470Z</time>
      </trkpt>
      <trkpt lat="49.52876" lon="3.551">
        <ele>128.4</ele>
        <time>2016-01-25T15:21:46.441Z</time>
      </trkpt>
      <trkpt lat="49.52876" lon="3.55102">
        <ele>128.3</ele>
        <time>2016-01-25T15:21:47.430Z</time>
      </trkpt>
      <trkpt lat="49.52879" lon="3.55114">
        <ele>127.6</ele>
        <time>2016-01-25T15:21:54.508Z</time>
      </trkpt>
      <trkpt lat="49.52879" lon="3.55116">
        <ele>127.6</ele>
        <time>2016-01-25T15:21:55.402Z</time>
      </trkpt>
      <trkpt lat="49.52881" lon="3.55128">
        <ele>127.1</ele>
        <time>2016-01-25T15:22:01.471Z</time>
      </trkpt>
      <trkpt lat="49.52882" lon="3.5513">
        <ele>127</ele>
        <time>2016-01-25T15:22:02.459Z</time>
      </trkpt>
      <trkpt lat="49.52884" lon="3.55142">
        <ele>126.6</ele>
        <time>2016-01-25T15:22:08.414Z</time>
      </trkpt>
      <trkpt lat="49.52884" lon="3.55143">
        <ele>126.7</ele>
        <time>2016-01-25T15:22:09.417Z</time>
      </trkpt>
      <trkpt lat="49.52886" lon="3.55155">
        <ele>126.3</ele>
        <time>2016-01-25T15:22:15.484Z</time>
      </trkpt>
      <trkpt lat="49.52886" lon="3.55157">
        <ele>126.1</ele>
        <time>2016-01-25T15:22:16.476Z</time>
      </trkpt>
      <trkpt lat="49.52888" lon="3.55169">
        <ele>125.6</ele>
        <time>2016-01-25T15:22:22.455Z</time>
      </trkpt>
      <trkpt lat="49.52888" lon="3.55171">
        <ele>125.4</ele>
        <time>2016-01-25T15:22:23.458Z</time>
      </trkpt>
      <trkpt lat="49.52891" lon="3.55182">
        <ele>125.1</ele>
        <time>2016-01-25T15:22:30.463Z</time>
      </trkpt>
      <trkpt lat="49.52891" lon="3.55183">
        <ele>125</ele>
        <time>2016-01-25T15:22:31.456Z</time>
      </trkpt>
      <trkpt lat="49.52893" lon="3.55196">
        <ele>124.5</ele>
        <time>2016-01-25T15:22:38.432Z</time>
      </trkpt>
      <trkpt lat="49.52894" lon="3.55197">
        <ele>124.3</ele>
        <time>2016-01-25T15:22:39.422Z</time>
      </trkpt>
      <trkpt lat="49.52897" lon="3.55209">
        <ele>124</ele>
        <time>2016-01-25T15:22:46.499Z</time>
      </trkpt>
      <trkpt lat="49.52898" lon="3.55211">
        <ele>124.1</ele>
        <time>2016-01-25T15:22:47.489Z</time>
      </trkpt>
      <trkpt lat="49.529" lon="3.55222">
        <ele>123.7</ele>
        <time>2016-01-25T15:22:54.454Z</time>
      </trkpt>
      <trkpt lat="49.529" lon="3.55224">
        <ele>123.9</ele>
        <time>2016-01-25T15:22:55.447Z</time>
      </trkpt>
      <trkpt lat="49.529" lon="3.55226">
        <ele>123.8</ele>
        <time>2016-01-25T15:22:56.471Z</time>
      </trkpt>
      <trkpt lat="49.52899" lon="3.55226">
        <ele>123.2</ele>
        <time>2016-01-25T15:22:57.463Z</time>
      </trkpt>
      <trkpt lat="49.52899" lon="3.55226">
        <ele>123.2</ele>
        <time>2016-01-25T15:22:57.487Z</time>
      </trkpt>
      <trkpt lat="49.52899" lon="3.55227">
        <ele>122.9</ele>
        <time>2016-01-25T15:22:58.480Z</time>
      </trkpt>
      <trkpt lat="49.52897" lon="3.5522">
        <ele>121.9</ele>
        <time>2016-01-25T15:23:06.443Z</time>
      </trkpt>
      <trkpt lat="49.52897" lon="3.55219">
        <ele>122</ele>
        <time>2016-01-25T15:23:07.442Z</time>
      </trkpt>
      <trkpt lat="49.52897" lon="3.55219">
        <ele>122.1</ele>
        <time>2016-01-25T15:23:14.412Z</time>
      </trkpt>
      <trkpt lat="49.52896" lon="3.55215">
        <ele>122.1</ele>
        <time>2016-01-25T15:23:15.399Z</time>
      </trkpt>
      <trkpt lat="49.52896" lon="3.55213">
        <ele>122.2</ele>
        <time>2016-01-25T15:23:17.478Z</time>
      </trkpt>
      <trkpt lat="49.52896" lon="3.55212">
        <ele>122.3</ele>
        <time>2016-01-25T15:23:18.435Z</time>
      </trkpt>
      <trkpt lat="49.52896" lon="3.55212">
        <ele>122.4</ele>
        <time>2016-01-25T15:23:19.463Z</time>
      </trkpt>
      <trkpt lat="49.52896" lon="3.55211">
        <ele>122.4</ele>
        <time>2016-01-25T15:23:20.453Z</time>
      </trkpt>
      <trkpt lat="49.52895" lon="3.5521">
        <ele>122.4</ele>
        <time>2016-01-25T15:23:22.499Z</time>
      </trkpt>
      <trkpt lat="49.52895" lon="3.5521">
        <ele>122.5</ele>
        <time>2016-01-25T15:23:23.482Z</time>
      </trkpt>
      <trkpt lat="49.52895" lon="3.5521">
        <ele>122.6</ele>
        <time>2016-01-25T15:24:21.468Z</time>
      </trkpt>
      <trkpt lat="49.52892" lon="3.55209">
        <ele>119.2</ele>
        <time>2016-01-25T15:24:22.459Z</time>
      </trkpt>
      <trkpt lat="49.52891" lon="3.55207">
        <ele>119.4</ele>
        <time>2016-01-25T15:24:40.435Z</time>
      </trkpt>
      <trkpt lat="49.52892" lon="3.55207">
        <ele>119.3</ele>
        <time>2016-01-25T15:24:41.439Z</time>
      </trkpt>
      <trkpt lat="49.52892" lon="3.55207">
        <ele>119.4</ele>
        <time>2016-01-25T15:24:42.470Z</time>
      </trkpt>
      <trkpt lat="49.52892" lon="3.55207">
        <ele>119.5</ele>
        <time>2016-01-25T15:24:43.458Z</time>
      </trkpt>
      <trkpt lat="49.52892" lon="3.55207">
        <ele>119.5</ele>
        <time>2016-01-25T15:24:43.472Z</time>
      </trkpt>
      <trkpt lat="49.52891" lon="3.55207">
        <ele>119.2</ele>
        <time>2016-01-25T15:24:44.482Z</time>
      </trkpt>
      <trkpt lat="49.52891" lon="3.55208">
        <ele>118.5</ele>
        <time>2016-01-25T15:24:46.520Z</time>
      </trkpt>
      <trkpt lat="49.52891" lon="3.55209">
        <ele>118.3</ele>
        <time>2016-01-25T15:24:47.403Z</time>
      </trkpt>
      <trkpt lat="49.52893" lon="3.55221">
        <ele>117.2</ele>
        <time>2016-01-25T15:24:54.518Z</time>
      </trkpt>
      <trkpt lat="49.52894" lon="3.55223">
        <ele>117.3</ele>
        <time>2016-01-25T15:24:55.400Z</time>
      </trkpt>
      <trkpt lat="49.52896" lon="3.55234">
        <ele>117.9</ele>
        <time>2016-01-25T15:25:01.483Z</time>
      </trkpt>
      <trkpt lat="49.52897" lon="3.55236">
        <ele>118.2</ele>
        <time>2016-01-25T15:25:02.470Z</time>
      </trkpt>
      <trkpt lat="49.52901" lon="3.55246">
        <ele>119.5</ele>
        <time>2016-01-25T15:25:08.485Z</time>
      </trkpt>
      <trkpt lat="49.52902" lon="3.55248">
        <ele>119.6</ele>
        <time>2016-01-25T15:25:09.469Z</time>
      </trkpt>
      <trkpt lat="49.52904" lon="3.5526">
        <ele>120.2</ele>
        <time>2016-01-25T15:25:15.623Z</time>
      </trkpt>
      <trkpt lat="49.52904" lon="3.55262">
        <ele>120.2</ele>
        <time>2016-01-25T15:25:16.420Z</time>
      </trkpt>
      <trkpt lat="49.52906" lon="3.55275">
        <ele>120.5</ele>
        <time>2016-01-25T15:25:22.493Z</time>
      </trkpt>
      <trkpt lat="49.52906" lon="3.55277">
        <ele>120.5</ele>
        <time>2016-01-25T15:25:23.475Z</time>
      </trkpt>
      <trkpt lat="49.52907" lon="3.5529">
        <ele>121.2</ele>
        <time>2016-01-25T15:25:29.486Z</time>
      </trkpt>
      <trkpt lat="49.52907" lon="3.55292">
        <ele>121.3</ele>
        <time>2016-01-25T15:25:30.442Z</time>
      </trkpt>
      <trkpt lat="49.52908" lon="3.55305">
        <ele>121.7</ele>
        <time>2016-01-25T15:25:35.406Z</time>
      </trkpt>
      <trkpt lat="49.52908" lon="3.55307">
        <ele>121.9</ele>
        <time>2016-01-25T15:25:36.502Z</time>
      </trkpt>
      <trkpt lat="49.52909" lon="3.5532">
        <ele>122.5</ele>
        <time>2016-01-25T15:25:42.466Z</time>
      </trkpt>
      <trkpt lat="49.52909" lon="3.55322">
        <ele>122.6</ele>
        <time>2016-01-25T15:25:43.453Z</time>
      </trkpt>
      <trkpt lat="49.5291" lon="3.55334">
        <ele>123.1</ele>
        <time>2016-01-25T15:25:49.414Z</time>
      </trkpt>
      <trkpt lat="49.52911" lon="3.55337">
        <ele>123.3</ele>
        <time>2016-01-25T15:25:50.403Z</time>
      </trkpt>
      <trkpt lat="49.52911" lon="3.5535">
        <ele>123.8</ele>
        <time>2016-01-25T15:25:55.463Z</time>
      </trkpt>
      <trkpt lat="49.52911" lon="3.55352">
        <ele>123.7</ele>
        <time>2016-01-25T15:25:56.455Z</time>
      </trkpt>
      <trkpt lat="49.52912" lon="3.55365">
        <ele>123.9</ele>
        <time>2016-01-25T15:26:02.432Z</time>
      </trkpt>
      <trkpt lat="49.52913" lon="3.55367">
        <ele>123.9</ele>
        <time>2016-01-25T15:26:03.418Z</time>
      </trkpt>
      <trkpt lat="49.52913" lon="3.55379">
        <ele>124.1</ele>
        <time>2016-01-25T15:26:09.660Z</time>
      </trkpt>
      <trkpt lat="49.52913" lon="3.55382">
        <ele>123.9</ele>
        <time>2016-01-25T15:26:10.479Z</time>
      </trkpt>
      <trkpt lat="49.52913" lon="3.55395">
        <ele>123</ele>
        <time>2016-01-25T15:26:18.471Z</time>
      </trkpt>
      <trkpt lat="49.52913" lon="3.55397">
        <ele>122.8</ele>
        <time>2016-01-25T15:26:19.457Z</time>
      </trkpt>
      <trkpt lat="49.52913" lon="3.55409">
        <ele>122.2</ele>
        <time>2016-01-25T15:26:24.460Z</time>
      </trkpt>
      <trkpt lat="49.52913" lon="3.55411">
        <ele>122.1</ele>
        <time>2016-01-25T15:26:25.435Z</time>
      </trkpt>
      <trkpt lat="49.52915" lon="3.55423">
        <ele>121.7</ele>
        <time>2016-01-25T15:26:31.506Z</time>
      </trkpt>
      <trkpt lat="49.52915" lon="3.55424">
        <ele>121.6</ele>
        <time>2016-01-25T15:26:32.495Z</time>
      </trkpt>
      <trkpt lat="49.52919" lon="3.55436">
        <ele>121.6</ele>
        <time>2016-01-25T15:26:41.501Z</time>
      </trkpt>
      <trkpt lat="49.5292" lon="3.55437">
        <ele>121.6</ele>
        <time>2016-01-25T15:26:42.492Z</time>
      </trkpt>
      <trkpt lat="49.52925" lon="3.55447">
        <ele>121.8</ele>
        <time>2016-01-25T15:26:50.639Z</time>
      </trkpt>
      <trkpt lat="49.52926" lon="3.55448">
        <ele>121.9</ele>
        <time>2016-01-25T15:26:51.482Z</time>
      </trkpt>
      <trkpt lat="49.52932" lon="3.55456">
        <ele>122.4</ele>
        <time>2016-01-25T15:27:08.715Z</time>
      </trkpt>
    </trkseg>
  </trk>
</gpx>